[[{"header":{"parameterUnit":"m.s-1","parameterCategory":1,"la1":30.6,"la2":29.2853,"lo1":-89.7004,"lo2":-87.6739,"dy":0.0162,"dx":0.0183,"nx":112,"ny":82,"refTime":"2023-07-19T12:00:00:Z","depth":0,"parameterNumber":2,"parameterNumberName":"U-component_of_WINDS"},"data":[0.0,0.0,0.0,0.0,0.0,0.0,0.0,0.0,0.0,0.0,0.0,0.0,0.0,0.0,0.0,0.0,0.0,0.0,0.0,0.0,0.0,0.0,0.0,0.0,0.0,0.0,0.0,0.0,0.0,0.0,0.0,0.0,0.0,0.0,0.0,0.0,0.0,0.0,0.0,0.0,0.0,0.0,0.0,0.0,0.0,0.0,0.0,0.0,0.0,0.0,0.0,0.0,0.0,0.0,0.0,0.0,0.0,0.0,0.0,0.0,0.0,0.0,0.0,0.0,0.0,0.0,0.0,0.0,0.0,0.0,0.0,0.0,0.0,0.0,0.0,0.0,0.0,0.0,0.0,0.0,0.0,0.0,0.0,0.0,0.0,0.0,0.0,0.0,0.0,0.0,2.3595,2.3595,2.3595,2.3794,2.4225,2.3798,2.4139,2.5766,0.0,0.0,0.0,0.0,0.0,0.0,0.0,0.0,0.0,0.0,0.0,0.0,0.0,0.0,0.0,0.0,0.0,0.0,0.0,0.0,0.0,0.0,0.0,0.0,0.0,0.0,0.0,0.0,0.0,0.0,0.0,0.0,0.0,0.0,0.0,0.0,0.0,0.0,0.0,0.0,0.0,0.0,0.0,0.0,0.0,0.0,0.0,0.0,0.0,0.0,0.0,0.0,0.0,0.0,0.0,0.0,0.0,0.0,0.0,0.0,0.0,0.0,0.0,0.0,0.0,0.0,0.0,0.0,0.0,0.0,0.0,0.0,0.0,0.0,0.0,0.0,0.0,0.0,0.0,0.0,0.0,0.0,0.0,0.0,0.0,0.0,0.0,0.0,0.0,0.0,0.0,0.0,0.0,0.0,0.0,0.0,0.0,0.0,0.0,0.0,0.0,0.0,0.0,0.0,2.3595,2.3595,2.3595,2.3638,2.3709,2.4024,2.4547,2.5297,0.0,0.0,0.0,0.0,0.0,0.0,0.0,0.0,0.0,0.0,0.0,0.0,0.0,0.0,0.0,0.0,0.0,0.0,0.0,0.0,0.0,0.0,0.0,0.0,0.0,0.0,0.0,0.0,0.0,0.0,0.0,0.0,0.0,0.0,0.0,0.0,0.0,0.0,0.0,0.0,0.0,0.0,0.0,0.0,0.0,0.0,0.0,0.0,0.0,0.0,0.0,0.0,0.0,0.0,0.0,0.0,0.0,0.0,0.0,0.0,0.0,0.0,0.0,0.0,0.0,0.0,0.0,0.0,0.0,0.0,0.0,0.0,0.0,0.0,0.0,0.0,0.0,0.0,0.0,0.0,0.0,0.0,0.0,0.0,0.0,0.0,0.0,0.0,0.0,0.0,0.0,0.0,0.0,0.0,0.0,0.0,0.0,0.0,0.0,0.0,0.0,0.0,0.0,2.3595,2.3595,2.3595,2.3595,2.3595,2.3595,2.3837,2.4199,2.4736,2.4596,0.0,0.0,0.0,0.0,0.0,0.0,0.0,0.0,0.0,0.0,0.0,0.0,0.0,0.0,0.0,0.0,0.0,0.0,0.0,0.0,0.0,0.0,0.0,0.0,0.0,0.0,0.0,0.0,0.0,0.0,0.0,0.0,0.0,0.0,0.0,0.0,0.0,0.0,0.0,0.0,0.0,0.0,0.0,0.0,0.0,0.0,0.0,0.0,0.0,0.0,0.0,0.0,0.0,0.0,0.0,0.0,0.0,0.0,0.0,0.0,0.0,0.0,0.0,0.0,0.0,0.0,0.0,0.0,0.0,0.0,0.0,0.0,0.0,0.0,0.0,0.0,0.0,0.0,0.0,0.0,0.0,0.0,0.0,0.0,0.0,0.0,0.0,0.0,0.0,0.0,0.0,0.0,0.0,0.0,0.0,0.0,0.0,0.0,0.0,0.0,0.0,0.0,2.3508,2.3595,2.3595,2.3595,2.3595,2.3595,2.3595,2.3837,2.4348,2.4894,0.0,0.0,0.0,0.0,0.0,0.0,0.0,0.0,0.0,0.0,0.0,0.0,0.0,0.0,0.0,0.0,0.0,0.0,0.0,0.0,0.0,0.0,0.0,0.0,0.0,0.0,0.0,0.0,0.0,0.0,0.0,0.0,0.0,0.0,0.0,0.0,0.0,0.0,0.0,0.0,0.0,0.0,0.0,0.0,0.0,0.0,0.0,0.0,0.0,0.0,0.0,0.0,0.0,0.0,0.0,0.0,0.0,0.0,0.0,0.0,0.0,0.0,0.0,0.0,0.0,0.0,0.0,0.0,0.0,0.0,0.0,0.0,0.0,0.0,0.0,0.0,0.0,0.0,0.0,0.0,0.0,0.0,0.0,0.0,0.0,0.0,0.0,0.0,0.0,0.0,0.0,0.0,0.0,0.0,0.0,0.0,0.0,0.0,0.0,0.0,0.0,0.0,2.3246,2.3595,2.3595,2.3595,2.3595,2.3595,2.3595,2.3837,2.4348,2.4894,0.0,0.0,0.0,0.0,0.0,0.0,0.0,0.0,0.0,0.0,0.0,0.0,0.0,0.0,0.0,0.0,0.0,0.0,0.0,0.0,0.0,0.0,0.0,0.0,0.0,0.0,0.0,0.0,0.0,0.0,0.0,0.0,0.0,0.0,0.0,0.0,0.0,0.0,0.0,0.0,0.0,0.0,0.0,0.0,0.0,0.0,0.0,0.0,0.0,0.0,0.0,0.0,0.0,0.0,0.0,0.0,0.0,0.0,0.0,0.0,0.0,0.0,0.0,0.0,0.0,0.0,0.0,0.0,0.0,0.0,0.0,0.0,0.0,0.0,0.0,0.0,0.0,0.0,0.0,0.0,0.0,0.0,0.0,0.0,0.0,0.0,0.0,0.0,0.0,0.0,0.0,0.0,0.0,0.0,0.0,0.0,0.0,0.0,0.0,0.0,0.0,0.0,2.4003,2.4159,2.4159,2.4547,2.4852,2.4852,2.4852,2.4927,2.5152,0.0,0.0,0.0,0.0,0.0,0.0,0.0,0.0,0.0,0.0,0.0,0.0,0.0,0.0,0.0,0.0,0.0,0.0,0.0,0.0,0.0,0.0,0.0,0.0,0.0,0.0,0.0,0.0,0.0,0.0,0.0,0.0,0.0,0.0,0.0,0.0,0.0,0.0,0.0,0.0,0.0,0.0,0.0,0.0,0.0,0.0,0.0,0.0,0.0,0.0,0.0,0.0,0.0,0.0,0.0,0.0,0.0,0.0,0.0,0.0,0.0,0.0,0.0,0.0,0.0,0.0,0.0,0.0,0.0,0.0,0.0,0.0,0.0,0.0,0.0,0.0,0.0,0.0,0.0,0.0,0.0,0.0,0.0,0.0,0.0,0.0,0.0,0.0,0.0,0.0,0.0,0.0,0.0,0.0,0.0,0.0,0.0,0.0,0.0,0.0,0.0,0.0,2.3696,2.422,2.4482,2.4482,2.5143,2.5615,2.5615,2.5615,2.5615,2.5615,0.0,0.0,0.0,0.0,0.0,0.0,0.0,0.0,0.0,0.0,0.0,0.0,0.0,0.0,0.0,0.0,0.0,0.0,0.0,0.0,0.0,0.0,0.0,0.0,0.0,0.0,0.0,0.0,0.0,0.0,0.0,0.0,0.0,0.0,0.0,0.0,0.0,0.0,0.0,0.0,0.0,0.0,0.0,0.0,0.0,0.0,0.0,0.0,0.0,0.0,0.0,0.0,0.0,0.0,0.0,0.0,0.0,0.0,0.0,0.0,0.0,0.0,0.0,0.0,0.0,0.0,0.0,0.0,0.0,0.0,0.0,0.0,0.0,0.0,0.0,0.0,0.0,0.0,0.0,0.0,0.0,0.0,0.0,0.0,0.0,0.0,0.0,0.0,0.0,0.0,0.0,0.0,0.0,0.0,0.0,0.0,0.0,0.0,0.0,0.0,0.0,0.0,2.2443,2.3626,2.4496,2.4496,2.5173,2.563,2.563,2.563,2.563,0.0,0.0,0.0,0.0,0.0,0.0,0.0,0.0,0.0,0.0,0.0,0.0,0.0,0.0,0.0,0.0,0.0,0.0,0.0,0.0,0.0,0.0,0.0,0.0,0.0,0.0,0.0,0.0,0.0,0.0,0.0,0.0,0.0,0.0,0.0,0.0,0.0,0.0,0.0,0.0,0.0,0.0,0.0,0.0,0.0,0.0,0.0,0.0,0.0,0.0,0.0,0.0,0.0,0.0,0.0,0.0,0.0,0.0,0.0,0.0,0.0,0.0,0.0,0.0,0.0,0.0,0.0,0.0,0.0,0.0,0.0,0.0,0.0,0.0,0.0,0.0,0.0,0.0,0.0,0.0,0.0,0.0,0.0,0.0,0.0,0.0,0.0,0.0,0.0,0.0,0.0,0.0,0.0,0.0,0.0,0.0,0.0,0.0,0.0,0.0,0.0,0.0,0.0,2.3612,2.4102,2.4366,2.4366,2.5501,2.6206,2.6206,2.6728,2.6991,2.6991,0.0,0.0,0.0,0.0,0.0,0.0,0.0,0.0,0.0,0.0,0.0,0.0,0.0,0.0,0.0,0.0,0.0,0.0,0.0,0.0,0.0,0.0,0.0,0.0,0.0,0.0,0.0,0.0,0.0,0.0,0.0,0.0,0.0,0.0,0.0,0.0,0.0,0.0,0.0,0.0,0.0,0.0,0.0,0.0,0.0,0.0,0.0,0.0,0.0,0.0,0.0,0.0,0.0,0.0,0.0,0.0,0.0,0.0,0.0,0.0,0.0,0.0,0.0,0.0,0.0,0.0,0.0,0.0,0.0,0.0,0.0,0.0,0.0,0.0,0.0,0.0,0.0,0.0,0.0,0.0,0.0,0.0,0.0,0.0,0.0,0.0,0.0,0.0,0.0,0.0,0.0,0.0,0.0,0.0,0.0,0.0,0.0,0.0,0.0,0.0,0.0,0.0,2.3728,2.4118,2.4292,2.4292,2.5342,2.6068,2.6068,2.6721,2.7034,2.6759,0.0,0.0,0.0,0.0,0.0,0.0,0.0,0.0,0.0,0.0,0.0,0.0,0.0,0.0,0.0,0.0,0.0,0.0,0.0,0.0,0.0,0.0,0.0,0.0,0.0,0.0,0.0,0.0,0.0,0.0,0.0,0.0,0.0,0.0,0.0,0.0,0.0,0.0,0.0,0.0,0.0,0.0,0.0,0.0,0.0,0.0,0.0,0.0,0.0,0.0,0.0,0.0,0.0,0.0,0.0,0.0,0.0,0.0,0.0,0.0,0.0,0.0,0.0,0.0,0.0,0.0,0.0,0.0,0.0,0.0,0.0,0.0,0.0,0.0,0.0,0.0,0.0,0.0,0.0,0.0,0.0,0.0,0.0,0.0,0.0,0.0,0.0,0.0,0.0,0.0,0.0,0.0,0.0,0.0,0.0,0.0,0.0,0.0,0.0,0.0,0.0,0.0,2.3078,2.3721,2.4176,2.4176,2.4838,2.5287,2.5287,2.596,2.6122,2.5453,0.0,0.0,0.0,0.0,0.0,0.0,0.0,0.0,0.0,0.0,0.0,0.0,0.0,0.0,0.0,0.0,0.0,0.0,0.0,0.0,0.0,0.0,0.0,0.0,0.0,0.0,0.0,0.0,0.0,0.0,0.0,0.0,0.0,0.0,0.0,0.0,0.0,0.0,0.0,0.0,0.0,0.0,0.0,0.0,0.0,0.0,0.0,0.0,0.0,0.0,0.0,0.0,0.0,0.0,0.0,0.0,0.0,0.0,0.0,0.0,2.0964,0.0,0.0,0.0,0.0,0.0,0.0,0.0,0.0,0.0,0.0,0.0,0.0,0.0,0.0,0.0,0.0,0.0,0.0,0.0,0.0,0.0,0.0,0.0,0.0,0.0,0.0,0.0,0.0,0.0,0.0,0.0,0.0,0.0,0.0,0.0,0.0,0.0,0.0,0.0,0.0,0.0,2.3078,2.3245,2.3365,2.3365,2.406,2.4509,2.4509,2.5231,2.5563,2.5398,2.5728,0.0,0.0,0.0,0.0,0.0,0.0,0.0,0.0,0.0,0.0,0.0,0.0,0.0,0.0,0.0,0.0,0.0,0.0,0.0,0.0,0.0,0.0,0.0,0.0,0.0,0.0,0.0,0.0,0.0,0.0,0.0,0.0,0.0,0.0,0.0,0.0,0.0,0.0,0.0,0.0,0.0,0.0,0.0,0.0,0.0,0.0,0.0,0.0,0.0,0.0,0.0,0.0,0.0,0.0,0.0,0.0,0.0,0.0,0.0,0.0,2.0271,0.0,0.0,0.0,0.0,0.0,0.0,0.0,0.0,0.0,0.0,0.0,0.0,0.0,0.0,0.0,0.0,0.0,0.0,0.0,0.0,0.0,0.0,0.0,0.0,0.0,0.0,0.0,0.0,0.0,0.0,0.0,0.0,0.0,0.0,0.0,0.0,0.0,0.0,0.0,0.0,2.3078,2.3078,2.3078,2.3078,2.3484,2.3708,2.3708,2.4452,2.4724,2.4323,2.5007,0.0,0.0,0.0,0.0,0.0,0.0,0.0,0.0,0.0,0.0,0.0,0.0,0.0,0.0,0.0,0.0,0.0,0.0,0.0,0.0,0.0,0.0,0.0,0.0,0.0,0.0,0.0,0.0,0.0,0.0,0.0,0.0,0.0,0.0,0.0,0.0,0.0,0.0,0.0,0.0,0.0,0.0,0.0,0.0,0.0,0.0,0.0,0.0,0.0,0.0,0.0,0.0,0.0,2.3078,2.3078,2.3078,2.3078,2.3078,2.298,2.095,2.0823,2.1939,1.9628,0.0,0.0,0.0,0.0,0.0,0.0,0.0,0.0,0.0,0.0,0.0,0.0,0.0,0.0,0.0,0.0,0.0,0.0,0.0,0.0,0.0,0.0,0.0,0.0,2.3078,2.3078,2.3078,0.0,0.0,0.0,0.0,0.0,0.0,0.0,0.0,0.0,0.0,0.0,2.3078,2.3078,2.3078,2.3078,2.3078,2.3078,2.3078,2.3708,2.3826,2.3125,2.4266,2.4724,0.0,0.0,0.0,0.0,0.0,0.0,0.0,0.0,0.0,0.0,0.0,0.0,0.0,0.0,0.0,0.0,0.0,0.0,0.0,0.0,0.0,0.0,0.0,0.0,0.0,0.0,0.0,0.0,0.0,0.0,0.0,0.0,2.1932,2.1932,0.0,0.0,0.0,0.0,0.0,0.0,0.0,0.0,0.0,0.0,0.0,0.0,0.0,2.289,2.2965,2.2965,2.3002,2.3078,2.3078,2.3078,2.3078,2.3078,2.3078,2.3065,2.2053,0.0,2.2884,2.1803,0.0,0.0,0.0,0.0,0.0,0.0,0.0,0.0,0.0,0.0,0.0,0.0,0.0,0.0,0.0,0.0,0.0,0.0,0.0,0.0,0.0,0.0,2.2261,2.2944,2.3078,2.3078,0.0,2.3078,2.3078,2.3078,2.3078,0.0,0.0,0.0,0.0,0.0,0.0,0.0,2.3078,2.3078,2.3078,2.3078,2.3078,2.3078,2.3078,2.3198,2.3185,2.3138,2.3305,2.3365,2.3245,2.4105,0.0,0.0,0.0,0.0,0.0,0.0,0.0,0.0,0.0,0.0,0.0,0.0,0.0,0.0,0.0,0.0,0.0,0.0,0.0,0.0,0.0,0.0,0.0,0.0,0.0,0.0,0.0,0.0,0.0,2.2076,2.1794,2.2138,2.2437,2.2442,0.0,0.0,0.0,0.0,0.0,0.0,0.0,0.0,0.0,2.3065,2.3078,2.3078,2.3078,2.3078,2.3078,2.3078,2.3078,2.3078,2.3078,2.3078,2.2823,2.2384,2.2063,2.1803,2.1604,2.0782,2.0204,1.9759,0.0,0.0,0.0,0.0,1.8008,1.8008,1.8008,1.8008,1.8008,1.8008,0.0,0.0,0.0,0.0,0.0,0.0,0.0,0.0,0.0,0.0,2.1239,2.1604,2.1667,2.1667,2.1667,2.1667,2.199,0.0,2.3078,2.3078,2.3078,0.0,0.0,0.0,0.0,2.3078,2.3078,2.3078,2.3078,2.3078,2.3078,2.3078,2.3078,2.3078,2.3078,2.3078,2.3078,2.3078,2.3078,2.3884,2.3943,0.0,0.0,0.0,0.0,0.0,0.0,0.0,0.0,0.0,0.0,0.0,0.0,0.0,0.0,0.0,0.0,0.0,0.0,0.0,0.0,0.0,0.0,0.0,0.0,0.0,0.0,0.0,0.0,2.1813,2.1786,2.2277,2.2802,2.2897,0.0,0.0,0.0,0.0,0.0,0.0,2.3078,2.3078,2.3078,2.3078,2.3078,2.3078,2.3078,2.2884,2.2823,2.2823,2.2567,2.2433,2.2433,2.2433,2.2125,2.1553,2.1553,2.1037,2.0204,1.9824,1.9497,1.9233,1.8596,1.8202,1.8008,1.8008,1.8008,1.8008,1.8008,1.8008,1.8008,1.8008,1.8008,1.8008,1.8008,0.0,0.0,0.0,0.0,1.9044,1.9233,1.9759,2.0333,2.0526,2.059,2.059,2.059,2.059,2.0974,0.0,2.2433,2.2433,2.2433,0.0,0.0,0.0,0.0,2.2433,2.2433,2.2628,2.2823,2.2823,2.3005,2.3078,2.3078,2.3078,2.3078,2.3078,2.3078,2.3078,2.3078,2.3649,2.3708,2.3138,0.0,0.0,0.0,0.0,0.0,0.0,0.0,0.0,0.0,0.0,0.0,0.0,0.0,0.0,0.0,0.0,0.0,0.0,0.0,0.0,0.0,0.0,0.0,0.0,0.0,0.0,0.0,0.0,0.0,2.1554,2.2046,0.0,0.0,0.0,0.0,2.3027,2.3053,2.3078,2.3078,2.3078,2.3078,2.3078,2.3078,2.3078,2.3078,2.2322,2.1939,2.1939,2.1101,2.0719,2.0719,2.0719,2.0719,2.0655,2.0655,2.0139,1.9431,2.0204,2.0074,1.9299,1.9233,1.8721,1.8008,1.8008,1.8008,1.8008,1.8008,1.8008,1.8008,1.8008,1.8008,1.8008,1.8008,1.8008,0.0,0.0,1.8008,1.8269,1.911,1.9299,1.9562,2.0398,2.059,2.059,2.059,2.059,2.0655,0.0,2.0719,2.0719,2.0719,0.0,2.0719,2.0719,2.0719,2.0719,2.0719,2.1428,2.1939,2.1939,2.2628,2.3078,2.3078,2.3078,2.3078,2.3078,2.3078,2.3078,2.3078,2.3125,2.3125,2.3078,2.3125,0.0,0.0,0.0,0.0,0.0,0.0,0.0,0.0,0.0,0.0,0.0,0.0,0.0,0.0,0.0,0.0,0.0,0.0,0.0,0.0,0.0,0.0,0.0,0.0,0.0,0.0,0.0,0.0,2.202,2.251,0.0,2.2836,2.2965,2.3078,2.3078,2.3078,2.3078,2.3078,2.3078,2.3078,2.3078,2.258,2.2322,2.2322,2.1491,2.1037,2.1037,2.0719,2.059,2.059,2.059,2.0268,1.9748,1.9748,1.9299,1.8462,1.8787,1.8721,1.8462,1.8462,1.8269,1.8008,1.8008,1.8008,1.8008,1.8008,1.8008,1.8008,1.8008,1.8008,1.8008,1.8008,1.8193,1.8418,1.8418,1.8613,1.8899,1.9243,1.9304,1.9374,1.9715,1.9774,1.9774,1.9774,1.9774,1.9774,1.9774,2.0699,2.1239,2.0719,2.1479,2.2051,2.1491,2.1865,2.237,2.2732,2.2726,2.2641,2.2416,2.2342,2.2125,2.1542,2.1479,2.1479,2.1479,2.2002,2.2322,2.2322,2.2823,2.3078,2.3078,2.3078,2.3078,0.0,0.0,0.0,0.0,0.0,0.0,0.0,0.0,0.0,0.0,0.0,0.0,0.0,0.0,0.0,0.0,0.0,0.0,0.0,0.0,0.0,0.0,0.0,0.0,0.0,0.0,2.2585,2.2585,2.2852,2.3078,2.3078,2.3078,2.3078,2.3078,2.3078,2.3078,2.3078,2.2823,2.2702,2.2702,2.1877,2.1491,2.1491,2.059,2.0216,2.038,2.0051,2.0004,2.0165,2.0165,1.9828,1.9305,1.9305,1.8972,1.8437,1.8437,1.8437,1.8408,1.8115,1.8096,1.8223,1.8223,1.8311,1.8437,1.8437,1.8437,1.8437,1.8437,1.8437,1.8437,1.8437,1.8633,1.8857,1.8857,1.9062,1.9287,1.9287,1.9287,1.9287,1.9287,1.9287,1.9287,1.9287,1.9287,1.9287,1.9287,2.0249,2.082,2.0288,2.1072,2.1724,2.1552,2.167,2.2045,2.2811,2.2538,2.2186,2.1999,2.1943,2.1682,2.1083,2.1018,2.1018,2.1018,2.1617,2.1859,2.1684,2.2452,2.2813,2.2702,2.2944,2.3078,2.3078,0.0,0.0,0.0,0.0,0.0,0.0,0.0,0.0,0.0,0.0,0.0,0.0,0.0,0.0,0.0,0.0,0.0,0.0,0.0,0.0,0.0,0.0,0.0,2.1033,2.2224,2.3078,2.3078,2.3078,2.3078,2.3078,2.3078,2.3078,2.3078,2.3017,2.3005,2.3078,2.2322,2.1877,2.1877,2.106,2.0549,2.0549,1.9726,1.9504,1.9865,1.9064,1.8877,1.9287,1.9287,1.9287,1.9287,1.9287,1.9287,1.9287,1.9287,1.9287,1.9209,1.8379,1.8301,1.8652,1.8652,1.8926,1.9287,1.9287,1.9287,1.9287,1.9287,1.9287,1.9287,1.9287,1.9297,1.9307,1.9307,1.9316,1.9326,1.9326,1.9326,1.9326,1.9326,1.9326,1.9326,1.9326,1.9326,1.9326,1.9326,1.9326,1.9316,1.9287,1.936,1.9703,2.0613,1.9991,0.0,2.0705,2.0755,2.0613,2.0623,2.1376,2.1851,2.184,2.1851,2.1851,2.1851,2.184,2.1629,2.1219,2.2001,2.2297,2.1937,2.2678,2.3115,2.309,0.0,0.0,0.0,0.0,0.0,0.0,0.0,0.0,0.0,0.0,0.0,0.0,0.0,0.0,0.0,0.0,0.0,0.0,0.0,0.0,0.0,0.0,2.1132,2.2335,2.2845,2.3078,2.3078,2.3078,2.2884,2.2322,2.2261,2.2261,2.2261,2.1616,2.1542,2.2199,2.1428,2.0974,2.0974,2.0402,2.0119,2.0119,1.9594,1.9332,1.9451,1.9246,1.917,1.9287,1.9287,1.9287,1.9287,1.9287,1.9287,1.9287,1.9287,1.9287,1.9268,1.9023,1.9004,1.9111,1.9111,1.9189,1.9287,1.9287,1.9287,1.9287,1.9287,1.9287,1.9287,1.9287,1.9502,1.9746,1.9746,1.9971,2.0215,2.0215,2.0215,2.0215,2.0215,2.0215,2.0215,2.0215,2.0215,2.0215,2.0215,2.0215,2.0019,1.9394,2.0329,2.1086,2.0744,2.0956,0.0,2.2116,2.1793,2.1426,2.1207,2.1087,2.0673,2.0053,1.9981,1.9981,1.9981,2.0603,2.0892,2.0764,2.1572,2.1981,2.1924,2.2787,2.3063,0.0,0.0,0.0,0.0,0.0,0.0,0.0,0.0,0.0,0.0,0.0,0.0,0.0,0.0,0.0,0.0,0.0,0.0,0.0,0.0,0.0,0.0,1.9694,2.0515,2.1865,2.2051,2.2051,2.2051,2.2051,2.1865,2.1428,2.1365,2.1365,2.1365,2.091,2.0846,2.1302,2.0716,2.0303,2.0303,1.9896,1.9656,1.9656,1.9439,1.9375,1.9551,1.9551,1.9648,1.9824,1.9824,1.9824,1.9824,1.9824,1.9824,1.9824,1.9824,1.9824,0.0,0.0,0.0,0.0,0.0,1.9824,1.9824,1.9824,1.9824,1.9824,1.9824,1.9824,1.9824,1.9824,1.999,2.0185,2.0185,2.0371,2.0566,2.0566,2.0566,2.0566,2.0566,2.0566,2.0566,2.0566,2.0566,2.0566,2.0566,2.0566,0.0,1.9912,2.0675,2.1313,2.1167,2.1313,2.1626,2.2331,2.1763,2.1282,2.1118,2.0764,2.039,1.9899,1.9824,0.0,0.0,0.0,2.0667,2.0813,2.1193,0.0,0.0,0.0,2.2925,2.2223,0.0,0.0,0.0,2.296,2.2944,0.0,0.0,0.0,0.0,0.0,0.0,0.0,0.0,0.0,0.0,0.0,0.0,0.0,0.0,0.0,0.0,1.9177,1.9431,2.0204,2.0333,2.0398,2.059,2.059,2.059,2.0462,2.0462,2.0462,2.0462,2.0333,2.0355,2.054,0.0,0.0,0.0,0.0,1.9355,1.9355,1.9404,1.9619,1.999,1.999,2.0195,2.0566,2.0566,2.0566,2.0566,2.0566,2.0566,2.0566,2.0566,2.0566,2.0488,1.9727,1.9658,2.0029,2.042,2.0566,2.0566,2.0566,0.0,0.0,2.0566,2.0566,2.0566,2.0566,2.0566,2.0566,2.0566,2.0566,2.0566,2.0566,2.0566,2.0566,2.0566,2.0566,2.0566,2.0566,2.0566,2.0566,2.0566,2.0566,2.0566,2.0566,2.0566,2.0857,2.1735,2.1155,2.0934,2.1735,2.1155,2.0566,2.0566,0.0,0.0,2.0566,2.0566,2.0566,2.0566,2.0566,2.0765,2.1155,2.0762,2.0963,2.1728,2.2697,2.2731,2.1849,2.2753,2.2786,2.1898,2.2663,2.2554,0.0,0.0,0.0,0.0,0.0,0.0,0.0,0.0,0.0,0.0,0.0,0.0,0.0,0.0,0.0,1.8202,1.8269,1.8337,1.8462,1.8529,1.9044,2.0398,2.059,2.0333,1.9628,1.9562,1.9562,1.9562,1.8921,1.8941,1.9959,1.9261,1.9002,1.9419,1.9644,1.9795,1.9795,2.0146,2.0361,2.0439,0.0,0.0,2.0566,2.0566,2.0566,2.0566,2.0566,2.0566,2.0566,2.0566,2.0566,2.0547,2.0381,2.0371,2.0449,2.0537,2.0566,2.0566,2.0566,2.0566,2.0566,2.0566,2.0566,2.0566,2.0566,2.0566,0.0,2.0566,2.0566,2.0566,2.0566,2.0566,2.0566,2.0566,2.0566,2.0566,2.0566,2.0566,2.0566,2.0566,2.0566,2.0566,2.0566,2.0566,2.0644,2.0867,2.0712,2.0634,2.0857,2.0712,2.0566,2.0566,2.0566,2.0566,2.0566,2.0566,2.0566,2.0566,2.0566,2.0595,2.0738,2.0658,2.0685,2.0827,2.1765,2.1944,2.1354,2.2358,2.2509,2.1909,2.206,2.2037,0.0,0.0,0.0,0.0,0.0,0.0,0.0,0.0,0.0,0.0,0.0,1.8008,0.0,0.0,1.8008,1.8008,1.8008,1.8008,1.8008,1.8008,1.8337,1.9177,1.9299,1.911,1.8721,1.8654,1.8654,1.8654,1.8399,1.8547,1.9233,1.9249,1.9375,1.959,2.0019,2.0244,2.0244,2.0459,2.0566,2.0566,2.0566,2.0566,2.0566,2.0566,2.0684,2.0898,2.0898,2.1025,2.123,2.123,2.123,2.123,2.123,2.0957,2.0566,2.0566,2.0566,2.0566,2.0566,2.0713,2.0898,2.0898,2.1045,2.123,2.123,2.123,2.123,2.123,2.123,2.123,2.123,2.123,2.123,2.123,2.123,2.1172,2.0947,2.0898,2.083,2.0605,2.0566,2.0566,2.0566,2.0752,2.082,2.0596,2.0566,2.0566,2.0566,2.0566,2.0566,2.0566,2.0566,2.0566,2.0566,2.0566,2.0566,2.0566,2.0566,2.0566,2.0566,2.0566,2.0566,2.0566,2.1517,2.1621,2.0898,2.1914,2.1933,2.1209,2.1209,2.1248,0.0,0.0,0.0,0.0,0.0,0.0,0.0,0.0,1.8008,1.8008,1.8008,1.8008,1.8008,1.8008,1.8008,1.8008,1.8008,1.8008,1.8008,1.8008,1.8008,1.8008,1.8008,1.8008,1.8008,1.8008,1.8008,1.8008,1.8398,1.8672,1.876,1.9502,1.9951,2.0039,2.0381,2.0566,2.0566,2.0566,2.0566,2.0566,2.0566,2.0605,2.0693,2.0693,2.0937,2.1357,2.1357,2.1562,2.1885,2.1885,2.1885,2.1885,2.1885,2.1445,2.082,2.082,2.082,2.082,2.082,2.1055,2.1357,2.1357,2.1602,2.1885,2.1885,2.1885,2.1885,2.1885,2.1885,2.1885,2.1885,2.1885,2.1885,2.1885,2.1885,2.1787,2.1435,2.1357,2.125,2.0889,2.082,2.082,2.082,2.1123,2.1211,2.0762,2.0771,2.0791,2.0703,2.0693,2.0664,2.0576,2.0566,2.0566,2.0566,2.0566,2.0566,2.0566,2.0566,2.0566,2.0566,2.0566,2.0566,2.0566,2.1375,2.1375,2.0566,2.1375,2.1375,2.0566,2.0566,2.0631,1.5566,1.6018,1.6867,1.7784,1.8008,1.8008,0.0,0.0,1.8008,1.8008,1.8008,1.8008,1.8008,1.8008,1.8008,1.8008,1.8008,1.8008,1.8008,1.8008,1.8008,1.8008,1.8008,1.8008,1.8008,1.8008,1.8008,1.8008,1.8398,1.8809,1.9189,1.9658,2.0088,2.0478,2.0537,2.0566,2.0566,2.0566,2.0566,2.0566,2.0566,2.0771,2.1162,2.1162,2.1396,2.1816,2.1816,2.1836,2.1885,2.1885,2.1885,2.1885,2.1885,2.1826,2.1738,2.1738,2.1738,2.1738,2.1738,2.1768,2.1816,2.1816,2.1846,2.1885,2.1885,2.1885,2.1885,2.1885,2.1885,2.1885,2.1885,2.1885,2.1885,2.1885,2.1885,2.1875,2.1816,2.1816,2.1797,2.1748,2.1738,2.1738,2.1738,2.1777,2.166,2.123,2.1484,2.1602,2.1211,2.1162,2.1006,2.0605,2.0566,2.0566,2.0566,2.0566,2.0566,2.0566,2.0566,2.0566,2.0566,2.0566,2.0566,2.0566,2.0712,2.0712,2.0566,2.0712,2.0712,2.0566,2.0566,2.0595,1.5887,1.593,1.6009,1.6932,1.6784,1.6376,1.6376,1.6376,1.6515,1.707,1.7217,1.7354,1.7862,1.7569,1.7217,0.0,1.7217,1.7001,1.6446,1.6862,1.7001,1.6437,1.6376,1.6802,1.7872,1.8008,1.8008,1.8008,1.8633,1.9092,1.9277,1.9932,2.0381,2.0557,2.0566,2.0566,2.0566,2.0566,2.0703,2.0957,2.0957,2.1191,2.1611,2.1611,2.1846,2.2266,2.251,2.2617,2.2617,2.2617,2.2617,2.2617,2.2617,2.2617,2.2559,2.207,2.1885,2.1885,2.1885,2.2041,2.2246,2.2246,2.2412,2.2617,2.2617,2.2617,2.2617,2.2617,2.2617,2.2617,2.2617,2.2617,2.2617,2.2617,2.2617,2.2549,2.2305,2.2246,2.2178,2.1934,2.1885,2.1885,2.1885,2.209,2.2187,2.2012,2.1924,2.1816,2.1641,2.1611,2.1543,2.1348,2.1338,2.1338,2.1338,2.1338,2.1338,2.1338,2.1338,2.1221,2.0967,2.0957,2.083,2.0566,2.0566,2.0566,2.0566,2.0566,2.0566,2.0566,2.0566,2.0566,1.5579,1.5296,1.5021,1.6,1.572,1.5234,1.5234,1.5234,1.5376,1.607,1.621,1.6428,1.7079,1.6645,1.621,1.621,1.621,1.6,1.5305,1.5799,1.593,1.5305,1.5234,1.5728,1.7088,1.7432,1.7764,1.8105,1.8867,1.9336,1.9453,2.0166,2.0566,2.0566,2.0566,2.0566,2.0566,2.0566,2.0791,2.123,2.123,2.1523,2.206,2.2178,2.2402,2.2705,2.3008,2.3135,2.3135,2.3135,2.3135,2.3135,2.3135,2.3135,2.3066,2.2461,2.2236,2.2236,2.2236,2.2432,2.2685,2.2685,2.2891,2.3135,2.3135,2.3135,2.3135,2.3135,2.3135,2.3135,2.3135,2.3135,2.3135,2.3135,2.3135,2.3057,2.2754,2.2685,2.2598,2.2295,2.2236,2.2236,2.2236,2.248,2.2685,2.2685,2.2432,2.2187,2.207,2.1963,2.1885,2.1885,2.1885,2.1885,2.1885,2.1885,2.1885,2.1885,2.1885,2.1748,2.1426,2.1416,2.126,2.0937,2.0928,2.0928,2.0928,2.081,2.0752,2.0752,2.0625,2.0566,1.3528,1.3745,1.3954,1.5021,1.5234,1.5234,1.5234,1.5234,1.5234,1.5234,1.5234,1.5234,1.5305,1.5234,1.5234,1.5234,1.5234,1.5234,1.5234,1.5234,1.5234,1.5234,1.5234,1.5234,0.0,1.6079,1.7158,1.8514,1.9033,1.9463,1.9873,2.0322,2.0566,2.0566,2.0566,2.0566,2.0566,2.0566,2.0791,2.123,2.123,2.168,2.251,2.292,2.3105,2.3125,2.3135,2.3135,2.3135,2.3135,2.3135,2.3135,2.3135,2.3135,2.3135,2.3105,2.3096,2.3096,2.3096,2.3105,2.3125,2.3125,2.3125,2.3135,2.3135,2.3135,2.3135,2.3135,2.3135,2.3135,2.3135,2.3135,2.3135,2.3135,2.3135,2.3135,2.3125,2.3125,2.3115,2.3105,2.3096,2.3096,2.3096,2.3105,2.3125,2.3125,2.3105,2.2949,2.2549,2.2139,2.1885,2.1885,2.1885,2.1885,2.1885,2.1885,2.1885,2.1885,2.1885,2.1875,2.1865,2.1865,2.1865,2.1846,2.1846,2.1846,2.1846,2.1416,2.1211,2.1201,2.0762,2.0566,1.3455,1.3237,1.3025,1.3954,1.3738,1.3302,1.3302,1.3302,1.3448,1.4099,1.4171,1.4386,1.5092,1.4665,1.4171,1.4171,1.4171,1.3954,1.3375,1.381,1.3954,1.3375,1.3302,0.0,0.0,0.0,0.0,1.6549,1.7688,1.8172,1.7777,1.8888,1.9195,1.8461,1.8381,1.8789,1.952,1.978,2.0548,2.167,2.2236,2.2646,2.293,2.3076,2.3135,2.3135,2.3135,2.3135,2.3135,2.3135,2.3135,2.3135,2.3135,2.3135,2.3135,2.3135,2.3135,2.3135,2.3135,2.3135,2.3135,2.3135,2.3135,2.3135,2.3135,2.3135,2.3135,2.3135,2.3135,2.3135,2.3135,2.3135,2.3135,2.3135,2.3135,2.3135,2.3135,2.3135,2.3135,2.3135,2.3135,2.3135,2.3135,2.3135,2.3135,2.3135,2.3135,2.3086,2.2949,2.2803,2.2715,2.2715,2.2715,2.2715,2.2715,2.2715,2.2715,2.2715,2.2715,2.2236,2.1154,2.1144,2.093,2.0652,2.0643,2.1089,2.1885,2.1738,2.167,2.166,2.1514,2.1445,1.3025,1.2732,1.2445,1.3025,1.2732,1.2305,1.2305,1.2305,1.2445,1.3098,1.3164,1.3382,1.4019,1.3665,1.3164,1.3164,1.3164,1.3025,1.2372,1.2806,1.2952,1.2372,1.2305,1.256,0.0,0.0,0.0,1.5708,1.6841,1.7295,1.6954,1.7843,1.8069,1.7334,1.7342,1.7887,1.9164,1.9,1.9564,2.0798,2.1898,2.2492,2.2492,2.2862,2.3135,2.3135,2.3135,2.3135,2.3135,2.3135,2.3135,2.3135,2.3135,2.3135,2.3135,2.3135,2.3135,2.3135,2.3135,2.3135,2.3135,2.3135,2.3135,2.3135,2.3135,2.3135,2.3135,2.3135,2.3135,2.3135,2.3135,2.3135,2.3135,2.3135,2.3135,2.3135,2.3135,2.3135,2.3135,2.3135,2.3135,2.3135,2.3135,2.3135,2.3135,2.3135,2.3135,2.3135,2.3135,2.3135,2.3135,2.3135,2.2677,2.2589,2.3047,2.2677,2.2677,2.3047,2.2677,2.2007,2.0932,2.0483,2.0096,1.9852,1.9844,2.0458,2.1703,2.156,2.1671,2.2109,2.1953,2.1885,1.2305,1.2305,1.2305,1.2305,1.2305,1.2305,1.2305,1.2305,1.2305,1.2305,1.2305,1.2305,0.0,0.0,1.2305,1.2305,1.2305,1.2305,1.2305,1.2305,1.2305,0.0,0.0,0.0,0.0,0.0,0.0,1.5924,0.0,1.6779,1.7155,1.7172,1.7172,1.718,1.7115,1.7859,1.9452,1.8413,1.8206,1.8888,2.0491,2.1203,2.1382,2.2492,2.3047,2.3047,2.3047,2.3047,2.3047,2.3047,2.3135,2.3135,2.3135,2.3135,2.3135,2.3135,2.3154,2.3174,2.3174,2.3154,2.3135,2.3135,2.3154,2.3174,2.3174,2.3184,2.3193,2.3184,2.3174,2.3164,2.3144,2.3135,2.3135,2.3135,2.3135,2.3135,2.3135,2.3135,2.3135,2.3135,2.3135,2.3135,2.3135,2.3135,2.3135,2.3135,2.3135,2.3135,2.3135,2.3135,2.3135,2.3135,2.2031,2.1756,2.295,2.1943,2.1667,2.2862,2.1845,2.1203,2.1114,2.0034,1.9405,1.9405,1.9405,2.0034,2.1203,2.0835,2.1281,2.2444,2.2045,2.186,1.2305,1.2305,1.2305,1.2305,1.2305,1.2305,1.2305,1.2305,1.2305,1.2305,1.2305,1.2305,0.0,0.0,0.0,1.2305,1.2305,0.0,1.2305,1.2305,0.0,1.2305,0.0,1.2735,1.2815,1.3153,0.0,0.0,1.5165,1.544,1.4963,1.5711,1.5703,1.4901,1.5128,1.5774,1.7022,1.8054,1.8822,1.9356,1.9711,2.0395,2.1293,2.1658,2.1756,2.1845,2.2677,2.2589,2.1845,2.2765,2.3135,2.3135,2.3135,2.3135,2.3135,2.3135,2.335,2.3623,2.3623,2.3408,2.3135,2.3135,2.3359,2.3623,2.3623,2.3838,2.4023,2.3711,2.3623,2.3545,2.3223,2.3135,2.3135,2.3135,2.3135,2.3135,2.3135,2.3135,2.3135,2.3135,2.3135,2.3135,2.3135,2.3135,2.3135,2.3135,2.3135,2.3135,2.3135,2.3135,2.3135,2.3135,2.2031,2.1382,2.1756,2.0666,2.0124,2.0404,2.0124,1.9579,1.868,1.8319,1.8141,1.8141,1.8141,1.8772,1.9943,1.985,2.0436,2.1599,2.1498,2.1907,1.2305,1.2305,1.2305,1.2305,1.2305,1.2305,1.2305,1.2305,1.2305,1.2305,1.2305,0.0,1.2305,1.2305,0.0,0.0,0.0,0.0,1.2305,1.2305,1.2305,0.0,1.2565,0.0,1.2933,1.3367,1.3701,0.0,1.4399,1.4559,1.4159,1.465,1.4734,1.4088,1.4369,1.4892,1.575,1.7491,1.8208,1.7848,1.8403,1.9039,1.9761,2.0305,2.0477,2.0576,0.0,2.1933,2.1382,2.2589,2.3135,2.3135,2.3135,2.3262,2.3428,2.3428,2.3701,2.4062,2.4062,2.3906,2.3701,2.3701,2.3867,2.4062,2.4062,2.4228,2.4273,2.3379,2.3221,2.3164,2.2838,2.2772,2.2962,2.3522,2.3701,2.3701,2.3701,2.3701,2.3464,2.2725,2.2909,2.295,2.2403,2.2775,2.3135,2.3135,2.2677,2.2306,2.2306,2.2775,2.2862,2.2403,2.1212,2.0477,2.0477,1.9405,1.8956,1.9497,1.9047,1.8411,1.7692,1.7131,1.685,1.685,1.685,1.749,1.868,1.868,1.9314,2.0477,2.0477,2.0845,1.2305,1.2305,1.2305,1.2305,1.2305,1.2305,1.2305,1.2305,1.2305,1.2305,0.0,1.2305,1.2305,1.2305,1.2305,1.2305,0.0,1.2305,1.2305,1.2305,1.2305,1.2305,1.2599,1.2913,1.3186,1.3507,1.3808,1.4068,1.4088,1.4088,1.4088,1.4088,1.4122,1.4202,1.4482,1.4897,1.5444,1.6815,1.685,1.5825,1.6943,1.7505,1.7777,1.8772,1.9222,1.9314,2.0576,2.0935,2.0935,2.2129,2.2599,2.2599,2.2646,2.2904,2.3319,2.3286,2.3563,2.3925,2.3925,2.3954,2.4085,2.4073,2.4166,2.4214,2.4018,2.3963,2.3795,2.26,2.2203,2.2185,2.2141,2.2123,2.2501,2.3839,2.4127,2.4229,2.4322,2.4229,2.3734,2.2354,2.246,2.2368,2.1293,2.2017,2.2656,2.2599,2.1756,2.1025,2.1025,2.1943,2.2217,2.1203,1.9943,1.9222,1.9222,1.8133,1.7863,1.8948,1.8048,1.7412,1.7412,1.6386,1.5832,1.5832,1.5832,1.6386,1.7412,1.7412,1.8048,1.9222,1.9222,1.9314,1.2305,1.2305,1.2305,1.2305,1.2305,1.2305,1.2305,1.2305,0.0,0.0,1.2305,1.2305,1.2305,1.2305,1.2305,1.2305,1.2305,1.2305,1.2305,1.2305,1.2305,0.0,1.2792,1.3153,1.3206,1.3694,0.0,0.0,1.4088,1.4088,1.4088,1.4088,1.4309,1.4796,1.509,1.5411,1.5752,1.5988,1.6015,1.5832,1.6015,1.6669,1.7692,1.7963,1.8048,1.8048,1.9314,0.0,1.8411,1.9588,2.0133,2.0158,2.0373,2.0534,2.0628,2.0933,2.1281,2.1595,2.1595,2.1799,2.2266,2.2622,2.3012,2.3084,2.1896,2.1816,2.2002,2.1394,2.1203,2.1137,2.0845,2.077,2.1058,2.2407,2.2708,2.3084,2.4127,2.356,2.268,2.242,2.1587,2.0668,2.0264,2.0306,2.039,2.0175,1.9943,1.9852,1.9852,1.9943,2.0034,1.9852,1.8772,1.8048,1.8048,1.685,1.6197,1.6473,1.6292,1.6109,1.6109,1.592,1.5832,1.5832,1.5832,1.592,1.6109,1.6109,1.6756,1.8048,1.8048,1.8596,1.2305,1.2305,1.2305,1.2305,1.2305,1.2305,1.2305,0.0,0.0,0.0,1.2305,1.2305,1.2305,1.2305,0.0,1.2305,1.2305,1.2305,1.2305,1.2305,1.2305,1.2305,1.2839,1.3213,1.3213,1.3748,1.4088,1.4088,1.4088,1.4088,1.4088,1.4229,1.4583,1.517,1.5324,1.5538,1.5825,1.5832,1.5832,1.5832,1.5832,1.6109,1.6669,1.6669,1.6669,1.6756,1.8041,1.8226,1.7777,1.9047,1.9604,1.9693,1.9865,2.0161,2.0506,2.0687,2.0974,2.1387,2.1387,2.1502,2.1593,2.1155,2.1553,2.2192,2.1587,2.1511,2.1508,2.0537,2.0288,2.0249,1.9992,1.9953,2.0345,2.1731,2.2025,2.223,2.2903,2.2259,2.1442,2.0867,2.0516,2.0135,1.9294,1.9742,2.0153,1.9989,1.9247,1.8762,1.8762,1.8047,1.7855,1.8503,1.8056,1.7412,1.6756,1.6109,1.5832,1.5832,1.5832,1.5832,1.5832,1.5832,1.5832,1.5832,1.5832,1.5832,1.5832,1.5832,1.6109,1.6669,1.6669,1.703,1.2285,1.2305,1.2305,1.2305,1.2305,1.2305,1.2305,1.2305,0.0,1.2305,1.2305,1.2305,1.2305,1.2305,1.2305,0.0,1.2305,1.2305,1.2305,1.2305,1.2325,0.0,1.2879,0.0,1.33,1.3781,0.0,1.4088,1.4142,1.4182,1.4182,1.4516,1.4917,1.5384,1.5458,1.5598,1.5825,1.5832,1.5832,1.5832,1.5832,1.5832,1.5832,1.5832,1.5832,1.5832,1.685,1.7318,1.7404,1.8311,1.887,1.9091,1.917,1.9571,2.0221,2.03,2.0498,2.0837,2.0837,2.0837,2.0633,1.9524,2.0128,2.1245,2.0939,2.0837,2.0633,1.9524,1.922,1.922,1.922,1.922,1.9524,2.0939,2.1448,2.1752,2.1752,2.1119,2.0432,1.9449,1.9529,1.9413,1.8379,1.9049,1.9697,1.9618,1.8626,1.78,1.78,1.6725,1.6368,1.7334,1.7355,1.685,1.592,1.5832,1.5832,1.5832,1.5832,1.5832,1.5832,1.5832,1.5832,1.5832,1.5832,1.5832,1.5832,1.5832,1.5832,1.5832,1.5832,1.5832,1.2231,1.2305,1.2305,1.2305,1.2305,1.2305,1.2305,0.0,1.2305,1.2305,1.2305,1.2305,1.2305,1.2305,1.2305,1.2305,0.0,1.2305,1.2305,1.2305,1.2405,1.2748,0.0,0.0,1.3581,1.3895,1.4088,1.4088,1.4335,1.4482,1.4482,1.501,1.5344,1.5398,1.5651,1.5805,1.5832,1.5832,1.5832,1.5832,1.5832,1.5832,1.5832,1.5832,1.5832,1.5832,1.592,1.6015,0.0,1.6103,1.6375,1.6683,1.6949,1.7257,1.7579,1.7852,1.7969,1.7996,1.7996,1.7996,1.7996,1.7786,1.8708,1.9524,1.8297,1.7996,1.7996,1.7786,1.7786,1.7786,1.7786,1.7786,1.8094,1.942,2.0735,2.1752,2.1752,2.0617,1.9686,1.9583,1.8643,1.7721,1.7353,1.7408,1.7415,1.7134,1.688,1.686,1.686,1.674,1.6526,1.6454,1.6177,1.592,1.5832,1.5832,1.5832,1.5832,1.5832,1.5832,1.5832,1.5832,1.5832,1.5832,1.5832,1.5832,1.5832,1.5832,1.5832,1.5832,1.5832,1.5832,1.2011,1.2171,1.2305,1.2305,1.2305,1.2305,1.2305,0.0,1.2305,1.2305,1.2305,1.2305,1.2305,1.2305,1.2305,0.0,0.0,0.0,1.2305,1.2305,1.2412,1.2788,1.3019,0.0,0.0,0.0,1.4162,1.4335,1.4623,1.4863,1.5037,1.5271,1.5478,1.5651,1.5765,1.5832,1.5832,1.5832,1.5832,1.5832,1.5832,1.5832,1.5832,1.5832,1.5832,1.5832,1.5832,1.5832,0.0,1.5832,1.6106,1.6547,1.666,1.6994,1.7422,1.7542,1.7582,1.7582,1.7582,1.7582,1.7582,1.7582,1.7996,1.8304,1.7786,1.7582,1.7582,1.7582,1.7582,1.7582,1.7582,1.7582,1.7681,1.8304,1.8805,1.9213,1.9213,1.8805,1.8401,1.8401,1.7996,1.7549,1.7428,1.7408,1.7368,1.7248,1.7081,1.6974,1.6974,1.6814,1.666,1.6547,1.6273,1.6025,1.5845,1.5832,1.5832,1.5832,1.5832,1.5832,1.5832,1.5832,1.5832,1.5832,1.5832,1.5832,1.5832,1.5832,1.5832,1.5832,1.5832,1.5832,1.1824,1.2017,1.2191,1.2278,1.2305,1.2305,0.0,0.0,1.2305,1.2305,1.2305,1.2305,1.2305,1.2305,1.2305,0.0,0.0,1.2305,1.2305,1.2305,1.2445,1.2839,0.0,1.336,0.0,1.3968,1.4242,1.4623,1.4843,1.513,1.5504,1.5524,1.5618,1.5818,1.5832,1.5832,1.5832,1.5832,1.5832,1.5832,1.5832,1.5832,1.5832,1.5832,1.5832,1.5832,1.5832,1.5832,0.0,1.5832,1.6179,1.6707,1.6707,1.7061,1.7582,1.7582,1.7582,1.7582,1.7582,1.7582,1.7582,1.7582,1.7582,1.7582,1.7582,1.7582,1.7582,1.7582,1.7582,1.7582,1.7582,1.7582,1.7582,1.7582,1.7582,1.7582,1.7582,1.7582,1.7582,1.7582,1.7582,1.7582,1.7582,1.7582,1.7582,1.7582,1.7408,1.7275,1.7275,1.7094,1.6934,1.6847,1.6653,1.638,1.5992,1.5959,1.5925,1.5838,1.5832,1.5832,1.5832,1.5832,1.5832,1.5832,1.5832,1.5832,1.5832,1.5832,1.5832,1.5832,1.5832,1.5832,1.171,1.187,1.1944,1.2231,1.2305,1.2305,0.0,0.0,1.2305,1.2305,1.2305,1.2305,1.2305,1.2305,1.2305,1.2305,0.0,0.0,1.2305,1.2305,1.2525,0.0,0.0,1.344,1.4028,1.4088,1.4329,1.4917,1.4963,0.0,1.5792,1.5825,1.5825,1.5832,1.5832,1.5832,1.5832,1.5832,1.5832,1.5832,1.5832,1.5832,1.5832,1.5832,1.5832,1.5832,1.5832,1.5832,0.0,1.5832,1.6179,1.6707,1.6707,1.7061,1.7582,1.7582,1.7582,1.7582,1.7582,1.7582,1.7582,1.7582,1.7582,1.7582,1.7582,1.7582,1.7582,1.7582,1.7582,1.7582,1.7582,1.7582,1.7582,1.7582,1.7582,1.7582,1.7582,1.7582,1.7582,1.7582,1.7582,1.7582,1.7582,1.7582,1.7582,1.7582,1.7582,1.7582,1.7582,1.7575,1.7462,1.7174,1.7141,1.6907,1.6319,1.6266,1.6146,1.5845,1.5832,1.5832,1.5832,1.5832,1.5832,1.5832,1.5832,1.5832,1.5832,1.5832,1.5832,1.5832,1.5832,1.5832,1.1216,1.1416,1.1637,1.1931,1.2004,1.2058,1.2258,1.2305,1.2305,1.2305,1.2305,1.2305,1.2305,1.2305,1.2305,1.2305,1.2305,0.0,0.0,0.0,0.0,1.314,1.3567,1.3881,0.0,0.0,1.4329,1.4917,1.4963,1.5217,1.5798,1.5832,1.5832,1.5832,1.5832,1.5832,1.5832,1.5832,1.5832,1.5832,1.5832,1.5832,1.5832,1.5832,1.5832,1.5832,1.5832,1.5832,1.5832,1.5832,1.6179,1.6707,1.6707,1.7061,1.7582,1.7582,1.7582,1.7582,1.7582,1.7582,1.7582,1.7582,1.7582,1.7582,1.7582,1.7582,1.7582,1.7582,1.7582,1.7582,1.7582,1.7582,1.7582,1.7582,1.7582,1.7582,1.7582,1.7582,1.7582,1.7582,1.7582,1.7582,1.7582,1.7582,1.7582,1.7582,1.7582,1.7582,1.7582,1.7582,1.7549,1.7455,1.7442,1.7208,1.662,1.6386,1.6233,1.6139,1.5939,1.5832,1.5832,1.5832,1.5832,1.5832,1.5832,1.5832,1.5832,1.5832,1.5832,1.5832,1.5832,1.5832,0.0,1.1129,1.1356,1.1764,1.187,0.0,0.0,0.0,1.2305,1.2305,1.2305,1.2305,1.2305,1.2305,1.2305,1.2305,1.2305,1.2305,0.0,0.0,0.0,1.33,0.0,0.0,0.0,1.4182,1.4449,1.493,1.5064,1.5331,1.5805,1.5832,1.5832,1.5832,1.5832,1.5832,1.5832,1.5832,1.5832,1.5832,1.5832,1.5832,1.5832,1.5832,1.5832,1.5832,1.5832,1.5832,0.0,1.5832,1.6112,1.6553,1.666,1.7001,1.7428,1.7542,1.7582,1.7582,1.7582,1.7582,1.7582,1.7582,1.7582,1.7582,1.7582,1.7582,1.7582,1.7582,1.7582,1.7582,1.7582,1.7582,1.7582,1.7582,1.7582,1.7582,1.7582,1.7582,1.7582,1.7582,1.7582,1.7582,1.7582,1.7582,1.7582,1.7582,1.7582,1.7582,1.7582,1.7582,1.7582,1.7582,1.7582,1.7435,1.7068,1.6774,1.6513,1.6286,1.6099,1.5945,1.5832,1.5832,1.5832,1.5832,1.5832,1.5832,1.5832,1.5832,1.5832,1.5832,1.5832,1.5832,0.0,1.0962,1.1102,1.169,0.0,0.0,0.0,0.0,0.0,0.0,0.0,1.2305,1.2305,1.2305,1.2305,1.2305,1.2305,1.2305,0.0,1.2579,0.0,0.0,1.3908,0.0,1.4088,1.4349,1.4643,1.4943,1.5237,1.5524,1.5812,1.5832,1.5832,1.5832,1.5832,1.5832,1.5832,1.5832,1.5832,1.5832,1.5832,1.5832,1.5832,1.5832,1.5832,0.0,1.573,1.573,1.5825,1.573,1.5909,1.6299,1.6593,1.6887,1.7181,1.737,1.747,1.747,1.7364,1.7259,1.7259,1.7364,1.747,1.7477,1.7582,1.7582,1.7582,1.7582,1.7582,1.7582,1.7582,1.7582,1.7582,1.7582,1.7582,1.7582,1.7582,1.7582,1.7582,1.7582,1.7582,1.7582,1.7582,1.7582,1.7582,1.7582,1.7582,1.7582,1.7582,1.7582,1.7582,1.7582,1.7582,1.7582,1.7582,1.7315,1.6914,1.6373,1.6319,1.6166,1.5872,1.5865,1.5852,1.5832,1.5832,1.5832,1.5832,1.5832,1.5832,1.5832,1.5832,1.5832,1.0826,0.0,1.0802,1.1383,1.153,1.1663,0.0,0.0,0.0,0.0,0.0,0.0,0.0,0.0,1.2305,1.2305,1.2305,1.2305,1.2305,0.0,0.0,1.3601,1.3908,1.4088,1.4088,1.4349,1.4643,1.4943,1.5237,1.5524,1.5812,1.5832,1.5832,1.5832,1.5832,1.5832,1.5832,1.5832,1.5832,1.5832,1.5832,1.5832,1.5832,1.5832,1.5832,1.573,1.4752,1.4854,1.573,1.4752,1.5114,1.6299,1.6593,1.6887,1.7078,1.6181,1.5956,1.5743,1.4663,1.4341,1.4454,1.553,1.5956,1.6174,1.7252,1.7582,1.7582,1.7582,1.7582,1.7582,1.7582,1.7582,1.7582,1.7582,1.7582,1.7582,1.7582,1.7582,1.7582,1.7582,1.7582,1.7582,1.7582,1.7582,1.7582,1.7582,1.7582,1.7582,1.7582,1.7582,1.7582,1.7582,1.7582,1.7582,1.7582,1.7315,1.7094,1.6954,1.6734,1.6473,1.6179,1.6166,1.6059,1.5832,1.5832,1.5832,1.5832,1.5832,1.5832,1.5832,1.5832,1.5832,1.1351,1.0863,1.0701,1.1283,1.1423,1.1577,0.0,0.0,0.0,0.0,0.0,0.0,0.0,0.0,0.0,0.0,1.2305,0.0,0.0,0.0,1.3373,1.3794,1.3988,1.4142,0.0,1.4549,1.4843,1.5137,1.5431,1.5665,1.5818,1.5832,1.5832,1.5832,1.5832,1.5832,1.5832,1.5832,1.5832,1.5832,1.5832,1.5832,1.5737,1.5146,1.4949,1.4854,1.359,1.3397,1.398,1.3301,1.3477,1.4332,1.4707,1.494,1.5009,1.4641,1.4449,1.4341,1.3588,1.3264,1.348,1.4234,1.4449,1.4556,1.5423,1.5636,1.5849,1.7252,1.7582,1.7582,1.7582,1.7582,1.7582,1.7582,1.7582,1.7582,1.7582,1.7582,1.7582,1.7582,1.7582,1.7582,1.7582,1.7582,1.7582,1.7582,1.7582,1.7582,1.7582,1.7582,1.7582,1.7582,1.7582,1.7582,1.7582,1.7442,1.7288,1.7257,1.7001,1.678,1.648,1.6473,1.64,1.6233,1.6233,1.6233,1.6233,1.6233,1.6233,1.6233,1.6233,1.6159,1.2205,1.145,1.0941,1.1492,1.1628,1.1784,0.0,0.0,0.0,0.0,0.0,0.0,0.0,0.0,0.0,0.0,0.0,0.0,1.3126,1.3213,1.3427,1.4015,1.4088,0.0,1.4489,1.479,1.5084,1.5378,1.5665,1.5832,1.5832,1.5832,1.5832,1.5832,1.5832,1.5832,1.5832,1.5832,1.5832,1.5832,1.5629,1.5534,1.5439,1.4166,1.3584,1.3488,0.0,0.0,1.1848,1.1658,1.1755,1.1986,1.239,1.2567,1.2643,1.2849,1.2916,1.294,1.2729,1.262,1.262,1.294,1.294,1.3048,1.3264,1.3264,1.3804,1.6287,1.7147,1.7364,1.7582,1.7582,1.7582,1.7582,1.7582,1.7582,1.7582,1.7582,1.7582,1.7582,1.7582,1.7582,1.7259,1.7252,1.7147,1.6935,1.7147,1.7252,1.7252,1.7252,1.7364,1.7582,1.7364,1.7364,1.7582,1.7582,1.7475,1.7235,1.7215,1.7081,1.6787,1.6734,1.6707,1.6707,1.6707,1.6707,1.6707,1.6707,1.6707,1.6707,1.6707,1.6573,1.3,1.2414,1.2086,1.2543,1.2579,1.268,0.0,0.0,0.0,0.0,0.0,0.0,0.0,0.0,0.0,0.0,0.0,1.2518,0.0,0.0,1.3427,1.4015,0.0,1.4202,1.4489,1.479,1.5084,1.5378,1.5665,1.5832,1.5832,1.5832,1.5832,1.5832,1.5832,1.5832,1.5832,1.5832,1.5832,1.5825,1.4752,1.4166,1.4172,1.2818,1.2237,1.2139,0.0,1.0877,1.1848,1.0779,1.0974,1.197,1.2328,1.2537,1.252,1.1627,1.1289,1.1214,1.0025,0.9592,0.9809,1.1,1.1433,1.1647,1.294,1.3264,1.3372,1.3804,1.477,1.6068,1.7259,1.7582,1.7582,1.7582,1.7582,1.7582,1.7582,1.7582,1.7582,1.7582,1.7582,1.7147,1.5956,1.5743,1.531,1.4126,1.499,1.5743,1.5743,1.5743,1.6174,1.7477,1.6493,1.628,1.7477,1.7582,1.7562,1.7515,1.7515,1.7382,1.7094,1.684,1.6707,1.6707,1.6707,1.6707,1.6707,1.6707,1.6707,1.6707,1.6707,1.668,1.3855,1.3996,1.4308,1.4317,1.3299,1.241,0.0,0.0,0.0,0.0,0.0,0.0,0.0,0.0,1.2305,1.2305,0.0,1.2699,1.3146,1.3347,1.3601,0.0,0.0,1.4269,1.4716,1.4883,1.515,1.5598,1.5752,1.5832,1.5832,1.5832,1.5832,1.5832,1.5832,1.5832,1.5832,1.5832,1.5832,1.5825,1.5242,1.4555,1.3872,1.2528,1.1556,1.0779,0.0,0.9213,0.9702,0.9118,0.9312,0.9817,1.0109,1.0288,1.0373,0.9915,0.9847,0.9805,0.9158,0.894,0.9047,0.9699,0.9915,1.0025,1.0672,1.0891,1.1105,1.1864,1.3156,1.4449,1.5097,1.5849,1.6387,1.6387,1.7041,1.7582,1.7582,1.7582,1.7582,1.7582,1.6935,1.6174,1.5524,1.477,1.4019,1.3372,1.3804,1.4234,1.4234,1.4234,1.477,1.628,1.5849,1.5962,1.747,1.7582,1.7582,1.7582,1.7582,1.7522,1.7388,1.7248,1.7181,1.7181,1.7181,1.7181,1.7181,1.7181,1.7181,1.7181,1.7181,1.7094,1.4628,1.5181,1.5837,1.5506,0.0,0.0,1.2947,0.0,0.0,0.0,0.0,0.0,0.0,1.2305,0.0,1.2305,1.2552,1.2852,1.3166,1.346,1.3754,1.4048,1.4088,1.4315,1.4903,1.4963,1.5204,1.5785,1.5832,1.5832,1.5832,1.5832,1.5832,1.5832,1.5832,1.5832,1.5832,1.5832,1.5832,1.5825,1.5153,1.437,1.3392,1.1745,1.0485,0.9509,0.8432,0.8038,0.8038,0.8038,0.8038,0.8052,0.817,0.8326,0.852,0.8825,0.894,0.894,0.894,0.894,0.894,0.894,0.894,0.894,0.894,0.894,0.9158,1.0241,1.1433,1.2403,1.3156,1.4126,1.4877,1.4877,1.5743,1.6605,1.6605,1.6605,1.6605,1.6605,1.5956,1.5204,1.4556,1.3804,1.3048,1.2403,1.2512,1.2724,1.2724,1.2724,1.3372,1.477,1.4877,1.5636,1.747,1.7259,1.7252,1.7582,1.7582,1.7582,1.7582,1.7582,1.7582,1.7582,1.7582,1.7582,1.7582,1.7582,1.7582,1.7582,1.7582,1.7246,1.5352,1.5327,1.5349,1.5312,0.0,0.0,1.5081,0.0,0.0,0.0,0.0,0.0,0.0,1.2305,1.2305,1.2305,1.2552,1.2852,1.3166,0.0,1.3754,1.4048,1.4088,1.4315,1.4903,1.4963,1.5204,1.5785,1.5832,1.5832,1.5832,1.5832,1.5832,1.5832,1.5832,1.5832,1.5832,1.5832,1.5832,1.5737,1.3301,1.2139,1.1945,0.941,0.8233,0.8137,0.8038,0.8038,0.8038,0.8038,0.8038,0.8041,0.8052,0.8231,0.852,0.8825,0.894,0.894,0.894,0.894,0.894,0.894,0.894,0.894,0.894,0.894,0.8937,0.9047,0.9158,0.9805,1.262,1.3372,1.348,1.348,1.348,1.3588,1.3588,1.3588,1.3588,1.3588,1.4556,1.4556,1.186,1.2512,1.2403,0.9588,1.0351,1.1214,1.1214,1.1214,1.1864,1.3264,1.348,1.4556,1.7364,1.6387,1.6174,1.747,1.7582,1.7582,1.7582,1.7582,1.7582,1.7582,1.7582,1.7582,1.7582,1.7582,1.7582,1.7582,1.7582,1.6817,1.5742,1.6004,1.6258,1.6523,0.0,0.0,0.0,0.0,0.0,0.0,0.0,0.0,0.0,0.0,1.258,1.3354,1.3209,1.314,1.344,1.3734,1.3961,1.4075,1.4249,1.4516,1.4923,1.5124,1.5398,1.5798,1.5832,1.5832,1.5832,1.5832,1.5832,1.5832,1.5832,1.5832,1.5832,1.5832,1.5832,1.5737,1.3974,1.2721,1.1853,1.0096,0.8825,0.8038,0.8038,0.8038,0.8038,0.8038,0.8038,0.8048,0.8147,0.8306,0.8509,0.872,0.8855,0.894,0.894,0.894,0.894,0.894,0.894,0.894,0.894,0.894,0.894,0.894,0.894,0.9154,1.0241,1.1214,1.1969,1.1969,1.262,1.3264,1.3264,1.3264,1.3264,1.3264,1.294,1.2398,1.1324,1.0781,1.0241,0.9047,0.9372,0.9699,0.9699,0.9699,1.0351,1.1755,1.2729,1.3696,1.4883,1.4449,1.4341,1.4883,1.5743,1.628,1.628,1.628,1.5849,1.499,1.4883,1.4883,1.4883,1.4883,1.4883,1.4883,1.4883,1.4669,1.6037,1.6494,1.7012,0.0,0.0,0.0,0.0,0.0,0.0,0.0,0.0,0.0,0.0,0.0,0.0,0.0,1.3466,1.3313,1.3519,1.3901,1.4088,1.4088,1.4342,1.4636,1.4937,1.5224,1.5518,1.5805,1.5832,1.5832,1.5832,1.5832,1.5832,1.5832,1.5832,1.5832,1.5832,1.5832,1.5629,1.5146,1.3878,1.2813,1.1848,1.0096,0.8821,0.8038,0.8038,0.8038,0.8038,0.8038,0.8038,0.8055,0.8211,0.8357,0.8503,0.8655,0.8808,0.894,0.894,0.894,0.894,0.894,0.894,0.894,0.894,0.894,0.894,0.894,0.894,0.894,0.894,0.9699,1.0457,1.0457,1.1214,1.1864,1.1864,1.1864,1.1864,1.1864,1.1428,1.1,1.0457,0.9915,0.9482,0.8937,0.894,0.894,0.894,0.894,0.9482,1.0891,1.1969,1.2837,1.3264,1.2837,1.2837,1.3264,1.3804,1.4234,1.477,1.477,1.4234,1.3372,1.3264,1.3264,1.3264,1.3264,1.3264,1.3264,1.3264,1.3048,1.6135,1.6719,0.0,0.0,0.0,0.0,0.0,0.0,0.0,0.0,0.0,0.0,0.0,0.0,0.0,1.2927,1.3013,1.3313,1.3607,1.3901,1.4088,1.4088,1.4349,1.4636,1.4937,1.5224,1.5518,1.5805,1.5832,1.5832,1.5832,1.5832,1.5832,1.5832,1.5832,1.5832,1.5832,1.5832,1.5146,1.3878,1.2528,1.1848,1.175,0.9217,0.8038,0.8038,0.8038,0.8038,0.8038,0.8038,0.8038,0.8055,0.8208,0.8353,0.8499,0.8652,0.8804,0.8937,0.894,0.894,0.894,0.894,0.894,0.894,0.894,0.894,0.894,0.894,0.894,0.894,0.894,0.894,0.894,0.894,0.894,0.894,0.894,0.894,0.894,0.894,1.0135,1.0566,0.9154,1.0131,1.0566,0.9154,0.894,0.894,0.894,0.894,0.9482,1.0891,1.1109,1.1647,1.3161,1.1973,1.1647,1.3161,1.1864,1.1755,1.3264,1.327,1.3264,1.3264,1.3264,1.3264,1.3264,1.3264,1.3264,1.3264,1.3264,1.2512,1.6826,1.7178,0.0,0.0,0.0,0.0,0.0,0.0,0.0,0.0,0.0,0.0,1.3455,0.0,0.0,1.4,1.3705,1.3621,1.3915,1.4035,1.4088,1.4088,1.4529,1.487,1.4957,1.5411,1.5732,1.5818,1.5832,1.5832,1.5832,1.5832,1.5832,1.5832,1.5832,1.5832,1.5832,1.5832,1.5635,1.5242,1.3011,1.1458,1.0489,0.8825,0.8038,0.8038,0.8038,0.8038,0.8038,0.8038,0.8038,0.8045,0.8089,0.8201,0.835,0.8496,0.8648,0.8794,0.8903,0.894,0.894,0.894,0.894,0.894,0.894,0.894,0.894,0.894,0.894,0.894,0.894,0.894,0.894,0.894,0.894,0.894,0.894,0.894,0.894,0.894,0.9265,0.9372,0.8937,0.9265,0.9372,0.8937,0.894,0.894,0.894,0.894,0.9047,0.9482,0.9588,0.9699,1.0131,0.9805,0.9699,1.0131,0.9809,1.0241,1.1647,1.1755,1.1214,1.0241,1.0241,1.0241,1.0241,1.0241,1.0241,1.0241,1.0241,1.0025,1.7236,0.0,0.0,0.0,0.0,0.0,0.0,0.0,0.0,0.0,0.0,1.4353,1.3476,1.3365,0.0,1.4073,1.3837,1.3748,1.4048,1.4088,1.4088,1.4088,1.4502,1.4836,1.495,1.5384,1.5705,1.5818,1.5832,1.5832,1.5832,1.5832,1.5832,1.5832,1.5832,1.5832,1.5832,1.5832,1.554,1.5045,1.2915,1.1268,0.9998,0.8627,0.8038,0.8038,0.8038,0.8038,0.8038,0.8038,0.8038,0.8038,0.8038,0.8133,0.8289,0.8428,0.8577,0.873,0.8886,0.894,0.894,0.894,0.894,0.894,0.894,0.894,0.894,0.894,0.894,0.894,0.894,0.894,0.894,0.894,0.894,0.894,0.894,0.894,0.894,0.894,0.894,0.894,0.894,0.894,0.894,0.894,0.894,0.894,0.894,0.894,0.894,0.894,0.894,0.894,0.894,0.894,0.894,0.894,0.894,0.9265,1.0241,1.0241,0.9805,0.894,0.894,0.894,0.894,0.894,0.894,0.894,0.894,0.894,0.0,0.0,0.0,0.0,0.0,0.0,0.0,0.0,0.0,0.0,0.0,1.3484,1.2913,1.3521,1.3971,1.3628,1.3667,1.3774,1.4048,1.4088,1.4088,1.4088,1.4342,1.4636,1.4937,1.5224,1.5518,1.5805,1.5832,1.5832,1.5832,1.5832,1.5832,1.5832,1.5832,1.5832,1.5832,1.5832,1.5242,1.407,1.2624,1.1263,1.0096,0.8627,0.8038,0.8038,0.8038,0.8038,0.8038,0.8038,0.8038,0.8038,0.8038,0.8126,0.8265,0.8411,0.856,0.8713,0.8866,0.8927,0.894,0.894,0.894,0.894,0.894,0.894,0.894,0.894,0.894,0.894,0.894,0.894,0.894,0.894,0.894,0.894,0.894,0.894,0.894,0.894,0.894,0.894,0.894,0.894,0.894,0.894,0.894,0.894,0.894,0.894,0.894,0.894,0.894,0.894,0.894,0.894,0.894,0.894,0.894,0.894,0.894,0.894,0.894,0.894,0.894,0.894,0.894,0.894,0.894,0.894,0.894,0.894,0.0,0.0,0.0,0.0,0.0,0.0,0.0,0.0,0.0,0.0,1.3673,1.3484,1.2913,1.3178,1.3457,1.3581,1.3841,1.4015,1.4082,1.4088,1.4088,1.4088,1.4342,1.4636,1.4937,1.5224,1.5518,1.5805,1.5832,1.5832,1.5832,1.5832,1.5832,1.5832,1.5832,1.5832,1.5832,1.5832,1.5635,1.5343,1.3011,1.1755,1.1365,0.9019,0.8038,0.8038,0.8038,0.8038,0.8038,0.8038,0.8038,0.8038,0.8038,0.8058,0.8106,0.8258,0.8408,0.8554,0.8706,0.8838,0.894,0.894,0.894,0.894,0.894,0.894,0.894,0.894,0.894,0.894,0.894,0.894,0.894,0.894,0.894,0.894,0.894,0.894,0.894,0.894,0.894,0.894,0.894,0.894,0.894,0.894,0.894,0.894,0.894,0.894,0.894,0.894,0.894,0.894,0.894,0.894,0.894,0.894,0.894,0.894,0.894,0.894,0.894,0.894,0.894,0.894,0.894,0.894,0.894,0.894,0.894,0.894,0.0,0.0,0.0,0.0,0.0,0.0,0.0,0.0,0.0,1.3098,1.3025,1.3019,1.2963,1.31,1.3353,1.3788,1.3988,1.4088,1.4088,1.4088,1.4088,1.4088,1.4222,1.4429,1.4723,1.489,1.5157,1.5591,1.5625,1.5678,1.5818,1.5832,1.5832,1.5832,1.5832,1.5832,1.5832,1.5832,1.5534,1.4854,1.2818,1.1263,0.9998,0.8627,0.8038,0.8038,0.8038,0.8038,0.8038,0.8038,0.8038,0.8038,0.8038,0.8038,0.8058,0.8214,0.836,0.8503,0.8659,0.8811,0.894,0.894,0.894,0.894,0.894,0.894,0.894,0.894,0.894,0.894,0.894,0.894,0.894,0.894,0.894,0.894,0.894,0.894,0.894,0.894,0.894,0.894,0.894,0.894,0.894,0.894,0.894,0.894,0.894,0.894,0.894,0.894,0.894,0.894,0.894,0.894,0.894,0.894,0.894,0.894,0.894,0.894,0.894,0.894,0.894,0.894,0.894,0.894,0.894,0.894,0.894,0.894,0.0,0.0,0.0,0.0,0.0,0.0,0.0,0.0,0.0,1.2513,1.2378,1.2552,1.3106,1.3253,1.346,1.4001,1.4088,1.4088,1.4088,1.4088,1.4088,1.4088,1.4088,1.4202,1.4489,1.4522,1.4743,1.5284,1.5317,1.5444,1.5738,1.5752,1.5778,1.5832,1.5832,1.5832,1.5832,1.554,1.4949,1.3878,1.2334,1.0288,0.8038,0.8038,0.8038,0.8038,0.8038,0.8038,0.8038,0.8038,0.8038,0.8038,0.8038,0.8038,0.8055,0.8184,0.8336,0.8499,0.8628,0.8788,0.894,0.894,0.894,0.894,0.894,0.894,0.894,0.894,0.894,0.894,0.894,0.894,0.894,0.894,0.894,0.894,0.894,0.894,0.894,0.894,0.894,0.894,0.894,0.894,0.894,0.894,0.894,0.894,0.894,0.894,0.894,0.894,0.894,0.894,0.894,0.894,0.894,0.894,0.894,0.894,0.894,0.894,0.894,0.894,0.894,0.894,0.894,0.894,0.894,0.894,0.894,0.894,0.0,0.0,0.0,0.0,0.0,0.0,0.0,0.0,1.252,0.0,1.2761,1.2792,1.3146,1.3414,1.3694,1.4035,1.4088,1.4088,1.4088,1.4088,1.4088,1.4088,1.4088,1.4202,1.4489,1.4522,1.4663,1.4997,1.5023,1.515,1.5438,1.5451,1.5571,1.5818,1.5832,1.5832,1.5832,1.4752,1.407,1.3878,1.1453,0.9509,0.8038,0.8038,0.8038,0.8038,0.8038,0.8038,0.8038,0.8038,0.8038,0.8038,0.8038,0.8038,0.8041,0.8062,0.8245,0.8486,0.8506,0.8699,0.894,0.894,0.894,0.894,0.894,0.894,0.894,0.894,0.894,0.894,0.894,0.894,0.894,0.894,0.894,0.894,0.894,0.894,0.894,0.894,0.894,0.894,0.894,0.894,0.894,0.894,0.894,0.894,0.894,0.894,0.894,0.894,0.894,0.894,0.894,0.894,0.894,0.894,0.894,0.894,0.894,0.894,0.894,0.894,0.894,0.894,0.894,0.894,0.894,0.894,0.894,0.894,0.0,0.0,0.0,0.0,0.0,0.0,0.0,0.0,1.2585,1.2795,1.3013,1.3293,1.3427,1.3554,1.3741,1.4041,1.4088,1.4088,1.4088,1.4088,1.4088,1.4088,1.4088,1.4135,1.4262,1.4282,1.4396,1.4696,1.4716,1.4917,1.5371,1.5398,1.5531,1.5818,1.514,1.4752,1.4752,1.3397,1.2425,1.1648,0.9801,0.8531,0.8038,0.8038,0.8038,0.8038,0.8038,0.8038,0.8038,0.8038,0.8038,0.8038,0.8038,0.8038,0.8038,0.8038,0.8177,0.8374,0.8455,0.8625,0.8825,0.891,0.894,0.894,0.894,0.894,0.894,0.894,0.894,0.894,0.894,0.894,0.894,0.894,0.894,0.894,0.894,0.894,0.894,0.894,0.894,0.894,0.894,0.894,0.894,0.894,0.894,0.894,0.894,0.894,0.894,0.894,0.894,0.894,0.894,0.894,0.894,0.894,0.894,0.894,0.894,0.894,0.894,0.894,0.894,0.894,0.894,0.894,0.894,0.894,0.894,0.894,0.0,0.0,0.0,0.0,0.0,0.0,0.0,0.0,1.2869,0.0,1.3333,1.3667,1.3741,1.3754,1.3828,1.4048,1.4088,1.4088,1.4088,1.3822,1.3646,1.3646,1.3385,1.3215,1.3215,1.3215,1.3297,1.3504,1.3517,1.373,1.4305,1.4308,1.4471,1.4741,1.3849,1.3392,1.3392,1.2037,1.0779,0.9509,0.8432,0.8038,0.8038,0.8038,0.8038,0.8038,0.8038,0.8038,0.8038,0.8038,0.8038,0.8038,0.8038,0.8038,0.8038,0.8038,0.8136,0.8292,0.8431,0.8581,0.8733,0.8889,0.894,0.894,0.894,0.894,0.894,0.894,0.894,0.894,0.894,0.894,0.894,0.894,0.894,0.894,0.894,0.894,0.894,0.894,0.894,0.894,0.894,0.894,0.894,0.894,0.894,0.894,0.894,0.894,0.894,0.894,0.894,0.894,0.894,0.894,0.894,0.894,0.894,0.894,0.894,0.894,0.894,0.894,0.894,0.894,0.894,0.894,0.894,0.894,0.894,0.894,0.0,0.0,0.0,0.0,0.0,0.0,0.0,0.0,1.2906,1.348,1.3539,1.3728,1.4015,1.4062,1.4068,1.4082,1.4088,1.4088,1.4088,1.3118,1.2413,1.2413,1.1472,1.0783,1.0783,1.0783,1.0788,1.0799,1.0804,1.0994,1.1321,1.1455,1.1677,1.19,1.193,1.2042,1.2042,1.0779,0.941,0.8137,0.8038,0.8038,0.8038,0.8038,0.8038,0.8038,0.8038,0.8038,0.8038,0.8038,0.8038,0.8038,0.8038,0.8038,0.8038,0.8038,0.8136,0.8292,0.8431,0.8581,0.8733,0.8889,0.894,0.894,0.894,0.894,0.894,0.894,0.894,0.894,0.894,0.894,0.894,0.894,0.894,0.894,0.894,0.894,0.894,0.894,0.894,0.894,0.894,0.894,0.894,0.894,0.894,0.894,0.894,0.894,0.894,0.894,0.894,0.894,0.894,0.894,0.894,0.894,0.894,0.894,0.894,0.894,0.894,0.894,0.894,0.894,0.894,0.894,0.894,0.894,0.894,0.894,0.0,0.0,0.0,0.0,0.0,0.0,0.0,1.1356,1.1154,1.1421,1.1584,1.1719,1.1804,1.3039,1.4088,1.4088,1.4088,1.3822,1.3027,1.2589,1.2066,1.13,1.0869,1.0611,1.0611,1.0611,1.0611,1.0611,1.0611,1.0707,1.1112,1.1252,1.1384,1.1696,1.1057,1.0288,0.941,0.892,0.8432,0.8038,0.8038,0.8038,0.8038,0.8038,0.8038,0.8038,0.8038,0.8038,0.8038,0.8038,0.8038,0.8038,0.8038,0.8038,0.8038,0.8038,0.8075,0.8157,0.8397,0.8516,0.8604,0.8855,0.894,0.894,0.894,0.894,0.894,0.894,0.894,0.894,0.894,0.894,0.894,0.894,0.894,0.894,0.894,0.894,0.894,0.894,0.894,0.894,0.894,0.894,0.894,0.894,0.894,0.894,0.894,0.894,0.894,0.894,0.894,0.894,0.894,0.894,0.894,0.894,0.894,0.894,0.894,0.894,0.894,0.894,0.894,0.894,0.894,0.894,0.894,0.894,0.894,0.894,0.0,0.0,0.0,0.0,0.0,0.0,1.0761,0.0,1.0223,1.0293,1.0509,1.0611,1.0611,1.1906,1.2954,1.2954,1.2954,1.2687,1.1815,1.1381,1.0869,1.0096,0.9662,0.9396,0.9396,0.9396,0.9396,0.9396,0.9396,0.0,0.9762,0.9876,1.0107,1.0369,0.9705,0.892,0.8038,0.8038,0.8038,0.8038,0.8038,0.8038,0.8038,0.8038,0.8038,0.8038,0.8038,0.8038,0.8038,0.8038,0.8038,0.8038,0.8038,0.8038,0.8038,0.8038,0.8038,0.8082,0.8381,0.8482,0.8533,0.8838,0.894,0.894,0.894,0.894,0.894,0.894,0.894,0.894,0.894,0.894,0.894,0.894,0.894,0.894,0.894,0.894,0.894,0.894,0.894,0.894,0.894,0.894,0.894,0.894,0.894,0.894,0.894,0.894,0.894,0.894,0.894,0.894,0.894,0.894,0.894,0.894,0.894,0.894,0.894,0.894,0.894,0.894,0.894,0.894,0.894,0.894,0.894,0.894,0.894,0.894,0.0,0.0,0.0,0.0,0.0,0.0,1.0264,0.0,1.0184,1.0479,1.0524,1.0524,1.0524,1.0524,1.0524,1.0524,1.0524,1.0611,1.0524,0.9579,0.889,0.889,0.7841,0.7139,0.7139,0.7139,0.7139,0.7139,0.7139,0.7139,0.7139,0.7292,0.7509,0.7801,0.796,0.8038,0.8038,0.8038,0.8038,0.8038,0.8038,0.8038,0.8038,0.8038,0.8038,0.8038,0.8038,0.8038,0.8038,0.8038,0.8038,0.8038,0.8038,0.8038,0.8038,0.8038,0.8038,0.8082,0.8381,0.8482,0.8533,0.8838,0.894,0.894,0.894,0.894,0.894,0.894,0.894,0.894,0.894,0.894,0.894,0.894,0.894,0.894,0.894,0.894,0.894,0.894,0.894,0.894,0.894,0.894,0.894,0.894,0.894,0.894,0.894,0.894,0.894,0.894,0.894,0.894,0.894,0.894,0.894,0.894,0.894,0.894,0.894,0.894,0.894,0.894,0.894,0.894,0.894,0.894,0.894,0.894,0.894,0.894,1.0248,0.0,0.0,0.0,0.0,0.0,0.0,0.0,0.7952,0.8089,0.8097,0.8097,0.8097,0.8097,0.8097,0.8097,0.9483,1.0351,0.9492,0.9061,0.854,0.7665,0.7316,0.7139,0.7139,0.7139,0.7139,0.0,0.7139,0.7139,0.7139,0.739,0.7621,0.7804,0.796,0.8038,0.8038,0.8038,0.8038,0.8038,0.8038,0.8038,0.8038,0.8038,0.8038,0.8041,0.7955,0.7955,0.8038,0.8038,0.8038,0.8038,0.8038,0.8038,0.8038,0.8038,0.8038,0.8082,0.8381,0.8482,0.8533,0.8838,0.894,0.894,0.894,0.894,0.894,0.894,0.894,0.894,0.894,0.894,0.894,0.894,0.894,0.894,0.894,0.894,0.894,0.894,0.894,0.894,0.894,0.894,0.894,0.894,0.894,0.894,0.894,0.894,0.894,0.894,0.894,0.894,0.894,0.894,0.894,0.894,0.8954,0.8853,0.8853,0.8853,0.886,0.8876,0.886,0.886,0.8876,0.8954,0.894,0.894,0.894,0.894,0.0,0.0,0.0,0.0,0.0,0.0,0.7939,0.7425,0.7139,0.7139,0.7139,0.7139,0.7139,0.7061,0.7064,0.7064,0.8288,0.8894,0.8281,0.8193,0.7929,0.7228,0.7139,0.7139,0.7139,0.7139,0.7139,0.7139,0.7139,0.7139,0.7139,0.7431,0.7638,0.7719,0.7929,0.8038,0.8038,0.8048,0.7952,0.7952,0.7959,0.7962,0.7962,0.7962,0.7962,0.7962,0.7975,0.7356,0.6426,0.755,0.7952,0.8038,0.8038,0.8038,0.8038,0.8038,0.8038,0.8082,0.8381,0.8482,0.8533,0.8838,0.894,0.894,0.894,0.894,0.894,0.894,0.894,0.894,0.894,0.8947,0.8954,0.8954,0.885,0.8856,0.8856,0.8856,0.885,0.8944,0.894,0.894,0.894,0.8947,0.8954,0.8954,0.885,0.8856,0.8856,0.8856,0.8856,0.8856,0.8856,0.8856,0.8856,0.8856,0.8856,0.8856,0.887,0.8304,0.7163,0.7051,0.7624,0.8893,0.7739,0.7057,0.7067,0.8298,0.8856,0.8856,0.8856,0.8856,0.0,0.0,0.0,0.0,0.0,0.0,0.7288,0.7058,0.7058,0.7058,0.7058,0.7058,0.7058,0.7074,0.6996,0.6723,0.6719,0.6805,0.7058,0.7143,0.7139,0.7139,0.7139,0.7143,0.7143,0.7143,0.7058,0.7058,0.7058,0.7058,0.7058,0.7346,0.7604,0.7604,0.7892,0.8045,0.8045,0.7965,0.7872,0.7563,0.7572,0.7578,0.7578,0.7578,0.7578,0.7578,0.7889,0.6453,0.4218,0.6862,0.7975,0.8045,0.8045,0.8045,0.8045,0.8045,0.8045,0.8085,0.8364,0.8472,0.8537,0.8821,0.8927,0.8944,0.894,0.894,0.894,0.894,0.894,0.894,0.8944,0.8846,0.886,0.852,0.8422,0.8437,0.8437,0.8437,0.8425,0.8387,0.8719,0.8947,0.8947,0.8853,0.8752,0.8409,0.8422,0.8437,0.8437,0.8437,0.8437,0.8437,0.8437,0.8437,0.8437,0.8437,0.8437,0.8437,0.867,0.7753,0.5146,0.4359,0.5599,0.8788,0.6051,0.4474,0.4474,0.7182,0.8437,0.8437,0.8437,0.8437,0.0,0.0,0.0,0.0,0.0,0.0,0.716,0.7084,0.7091,0.7091,0.7091,0.7091,0.7091,0.7094,0.6459,0.4556,0.4285,0.4914,0.6805,0.7064,0.7139,0.7139,0.7139,0.7058,0.7078,0.7078,0.7081,0.7091,0.7091,0.7091,0.7091,0.7188,0.7348,0.7547,0.7828,0.7979,0.7979,0.7985,0.6959,0.4822,0.4822,0.4824,0.4824,0.4824,0.4824,0.4926,0.708,0.6464,0.4218,0.6879,0.8002,0.7979,0.7979,0.7979,0.7979,0.7979,0.7979,0.8002,0.8061,0.831,0.856,0.871,0.8852,0.8853,0.8944,0.894,0.894,0.894,0.894,0.8944,0.885,0.886,0.8295,0.5929,0.5369,0.5371,0.5371,0.5371,0.5369,0.5363,0.7285,0.8883,0.8883,0.8886,0.8088,0.5706,0.5369,0.5371,0.5371,0.5371,0.5371,0.5371,0.5371,0.5371,0.5371,0.5371,0.5371,0.5371,0.7533,0.868,0.8106,0.3466,0.3358,0.8821,0.5965,0.4492,0.4492,0.5041,0.5371,0.5371,0.5371,0.5371,0.0,0.0,0.0,0.7061,0.0,0.0,0.0,0.5369,0.5371,0.5371,0.5371,0.5371,0.5371,0.6287,0.6751,0.5565,0.4389,0.4389,0.6745,0.7091,0.7078,0.7078,0.7078,0.7081,0.7091,0.6,0.5366,0.5371,0.5371,0.5397,0.5363,0.5337,0.5451,0.56,0.5857,0.6042,0.6042,0.7281,0.7287,0.5954,0.3323,0.2013,0.2013,0.2013,0.2013,0.2114,0.343,0.4038,0.4033,0.4039,0.475,0.5967,0.605,0.6042,0.6042,0.6042,0.6042,0.5957,0.5957,0.7024,0.8027,0.6937,0.7618,0.8876,0.8866,0.8863,0.8863,0.8863,0.8863,0.8863,0.8876,0.8883,0.8546,0.7073,0.4367,0.2238,0.2238,0.3471,0.4484,0.4484,0.5725,0.6743,0.673,0.7871,0.8444,0.6961,0.4143,0.2238,0.2238,0.2238,0.2238,0.2238,0.2238,0.2238,0.2238,0.2238,0.2238,0.2238,0.3615,0.4432,0.4432,0.16,0.1378,0.438,0.2993,0.2291,0.2272,0.2268,0.2256,0.2238,0.2238,0.2238,0.0,0.0,0.0,0.0,0.0,0.6567,0.0,0.0,0.0,0.289,0.2892,0.2892,0.2892,0.0,0.0,0.6911,0.0,0.0,0.0,0.614,0.0,0.6465,0.6462,0.6646,0.7019,0.4565,0.2948,0.2948,0.2868,0.2897,0.2946,0.2922,0.2886,0.2933,0.3086,0.3215,0.3215,0.5352,0.6483,0.6382,0.2019,-0.0,-0.0,-0.0,-0.0,-0.0,-0.0,0.1212,0.3035,0.0909,0.1313,0.3236,0.3221,0.3215,0.3215,0.3215,0.3215,0.3222,0.3268,0.5012,0.6948,0.4968,0.6058,0.8094,0.8094,0.8094,0.8094,0.8094,0.8094,0.8208,0.8782,0.8907,0.8571,0.743,0.3477,-0.0,-0.0,0.1908,0.3594,0.3594,0.3594,0.3591,0.358,0.5607,0.7201,0.7201,0.3139,-0.0,-0.0,-0.0,-0.0,-0.0,-0.0,-0.0,-0.0,-0.0,-0.0,-0.0,-0.0,-0.0,-0.0,-0.0,-0.0,-0.0,-0.0,-0.0,-0.0,-0.0,-0.0,-0.0,-0.0,-0.0,0.0,0.0,0.0,0.0,0.5565,0.0,0.0,0.0,0.037,0.0377,0.0,0.0379,0.0379,0.0,0.0,0.0,0.0,0.0,0.0813,0.2646,0.403,0.403,0.4018,0.4835,0.6857,0.3053,0.0449,0.0449,0.0365,0.0369,0.037,0.0383,0.0392,0.0392,0.04,0.0504,0.0504,0.0707,0.0909,0.0909,0.0303,-0.0,-0.0,-0.0,-0.0,-0.0,-0.0,0.0202,0.0404,0.0101,0.0202,0.0404,0.0505,0.0504,0.0504,0.0504,0.0504,0.0504,0.0504,0.2172,0.4379,0.4153,0.4463,0.5033,0.5033,0.5033,0.5033,0.5033,0.5033,0.5599,0.8221,0.891,0.7541,0.2242,0.0448,-0.0,-0.0,0.0224,0.0561,0.0561,0.0561,0.0561,0.056,0.0784,0.1009,0.1009,0.0448,-0.0,-0.0,-0.0,-0.0,-0.0,-0.0,-0.0,-0.0,-0.0,-0.0,-0.0,-0.0,-0.0,-0.0,-0.0,-0.0,-0.0,-0.0,-0.0,-0.0,-0.0,-0.0,-0.0,-0.0,-0.0,0.0,0.0,0.0,0.0,0.0,0.0,0.3008,0.0,-0.0,0.0,0.0,0.0,0.0,0.0,0.0,0.0,0.1328,0.0,0.0,0.0,0.1489,0.1529,0.0,0.0,0.292,0.1187,-0.0,-0.0,-0.0,-0.0,-0.0,-0.0,-0.0,-0.0,-0.0,-0.0,-0.0,-0.0,-0.0,-0.0,-0.0,-0.0,-0.0,-0.0,-0.0,-0.0,-0.0,-0.0,-0.0,-0.0,-0.0,-0.0,-0.0,-0.0,-0.0,-0.0,-0.0,-0.0,-0.0,0.073,0.1712,0.1633,0.177,0.1903,0.1903,0.1903,0.1903,0.1903,0.1903,0.2127,0.3363,0.3702,0.3139,0.0561,-0.0,-0.0,-0.0,-0.0,-0.0,-0.0,-0.0,-0.0,-0.0,-0.0,-0.0,-0.0,-0.0,-0.0,-0.0,-0.0,-0.0,-0.0,-0.0,-0.0,-0.0,-0.0,-0.0,-0.0,-0.0,-0.0,-0.0,-0.0,-0.0,-0.0,-0.0,-0.0,-0.0,-0.0,-0.0,-0.0,-0.0,-0.0,0.3815,0.0,0.0,0.0,0.0,0.0,0.0,0.0,0.0,0.0,0.0,0.0,0.0,0.0,0.0,0.0,0.0,-0.1349,0.0,-0.1532,0.0,0.0,0.0,0.0,0.0,-0.0,-0.0,-0.0,-0.0,-0.0,-0.0,-0.0,-0.0,-0.0,-0.0,-0.0,-0.0,-0.0,-0.0,-0.0,-0.0,-0.0,-0.0,-0.0,-0.0,-0.0,-0.0,-0.0,-0.0,-0.0,-0.0,-0.0,-0.0,-0.0,-0.0,-0.0,-0.0,-0.0,-0.0,-0.0,-0.0,-0.0,-0.0,-0.0,-0.0,-0.0,-0.0,-0.0,-0.0,-0.0,-0.0,-0.0,-0.0,-0.0,-0.0,-0.0,-0.0,-0.0,-0.0,-0.0,-0.0,-0.0,-0.0,-0.0,-0.0,-0.0,-0.0,-0.0,-0.0,-0.0,-0.0,-0.0,-0.0,-0.0,-0.0,-0.0,-0.0,-0.0,-0.0,-0.0,-0.0,-0.0,-0.0,-0.0,-0.0,-0.0,-0.0,-0.0,-0.0,-0.0,-0.0,-0.0,0.0,0.0,0.0,-0.0,0.0,0.0,0.0,0.0,-0.0,0.0,0.0,0.0,0.0,0.0,0.0,0.0,0.0,0.0,0.0,0.0,0.0,0.0,0.0,0.0,0.0,-0.0,-0.0,-0.0,-0.0,-0.0,-0.0,-0.0,-0.0,-0.0,-0.0,-0.0,-0.0,-0.0,-0.0,-0.0,-0.0,-0.0,-0.0,-0.0,-0.0,-0.0,-0.0,-0.0,-0.0,-0.0,-0.0,-0.0,-0.0,-0.0,-0.0,-0.0,-0.0,-0.0,-0.0,-0.0,-0.0,-0.0,-0.0,-0.0,-0.0,-0.0,-0.0,-0.0,-0.0,-0.0,-0.0,-0.0,-0.0,-0.0,-0.0,-0.0,-0.0,-0.0,-0.0,-0.0,-0.0,-0.0,-0.0,-0.0,-0.0,-0.0,-0.0,-0.0,-0.0,-0.0,-0.0,-0.0,-0.0,-0.0,-0.0,-0.0,-0.0,-0.0,-0.0,-0.0,-0.0,-0.0,-0.0,-0.0,-0.0,-0.0,-0.0,-0.0,-0.0,-0.0,-0.0,-0.0,0.0,0.0,-0.2267,-0.0395,0.0,0.0,0.0,0.0,0.0,0.0,0.0,0.0,0.0,0.0,0.0,0.0,0.0,0.0,0.0,0.0,-0.5662,0.0,0.0,0.0,0.0,0.0,-0.0,-0.0,-0.0,-0.0,-0.0,-0.0,-0.0,-0.0,-0.0,-0.0,-0.0,-0.0,-0.0,-0.0,-0.0,-0.1817,-0.5159,-0.1615,-0.0,-0.0,-0.0,-0.0,-0.0,-0.0,-0.0,-0.0,-0.0,-0.0,-0.0,-0.0,-0.0,-0.0,-0.0,-0.0,-0.0,-0.0,-0.0,-0.0,-0.0,-0.0,-0.0,-0.0,-0.0,-0.0,-0.0,-0.0,-0.0,-0.0,-0.0,-0.0,-0.0,-0.0,-0.0,-0.0,-0.0,-0.0,-0.0,-0.0,-0.0,-0.0,-0.0,-0.0,-0.0,-0.0,-0.0,-0.0,-0.0,-0.0,-0.0,-0.0,-0.0,-0.0,-0.0,-0.0,-0.0,-0.0,-0.0,-0.0,-0.0,-0.0,-0.0,-0.0,-0.0,-0.0,-0.0,-0.0,-0.7982,-0.6751,0.0,-0.3317,-0.211,0.0,-0.1409,0.0,-0.6879,0.0,0.0,0.0,0.0,0.0,0.0,0.0,0.0,0.0,0.0,-0.8004,-0.7343,-0.5637,0.0,0.0,0.0,-0.0857,-0.1055,-0.0098,-0.0,-0.0,0.0,-0.0,-0.0,-0.0,-0.1817,-0.2827,-0.2827,-0.1915,-0.1411,-0.1411,-0.1411,-0.3225,-0.6469,-0.3939,-0.1814,-0.0,-0.0,-0.0,-0.0,-0.0,-0.0,-0.0,-0.0,-0.0,-0.0,-0.0,-0.0,-0.0,-0.0,-0.0,-0.0,-0.0,-0.0,-0.0,-0.0,-0.0,-0.0,-0.0,-0.0,-0.0,-0.0,-0.0,-0.0,-0.0,-0.0,-0.0,-0.0,-0.0,-0.0,-0.0,-0.0,-0.0,-0.0,-0.0,-0.0,-0.0,-0.0,-0.0,-0.0,-0.0,-0.0,-0.0,-0.0,-0.0,-0.0,-0.0,-0.0,-0.0,-0.0,-0.0,-0.0,-0.0,-0.0,-0.0,-0.0,-0.0,-0.0,-0.0,-0.0,-0.0,-0.0,-0.0]},{"header":{"parameterUnit":"m.s-1","parameterCategory":1,"la1":30.6,"la2":29.2853,"lo1":-89.7004,"lo2":-87.6739,"dy":0.0162,"dx":0.0183,"nx":112,"ny":82,"refTime":"2023-07-19T12:00:00:Z","depth":0,"parameterNumber":3,"parameterNumberName":"V-component_of_WINDS"},"data":[0.0,0.0,0.0,0.0,0.0,0.0,0.0,0.0,0.0,0.0,0.0,0.0,0.0,0.0,0.0,0.0,0.0,0.0,0.0,0.0,0.0,0.0,0.0,0.0,0.0,0.0,0.0,0.0,0.0,0.0,0.0,0.0,0.0,0.0,0.0,0.0,0.0,0.0,0.0,0.0,0.0,0.0,0.0,0.0,0.0,0.0,0.0,0.0,0.0,0.0,0.0,0.0,0.0,0.0,0.0,0.0,0.0,0.0,0.0,0.0,0.0,0.0,0.0,0.0,0.0,0.0,0.0,0.0,0.0,0.0,0.0,0.0,0.0,0.0,0.0,0.0,0.0,0.0,0.0,0.0,0.0,0.0,0.0,0.0,0.0,0.0,0.0,0.0,0.0,0.0,-1.9798,-1.9798,-1.9798,-1.9527,-1.8927,-1.8426,-1.778,-1.6733,0.0,0.0,0.0,0.0,0.0,0.0,0.0,0.0,0.0,0.0,0.0,0.0,0.0,0.0,0.0,0.0,0.0,0.0,0.0,0.0,0.0,0.0,0.0,0.0,0.0,0.0,0.0,0.0,0.0,0.0,0.0,0.0,0.0,0.0,0.0,0.0,0.0,0.0,0.0,0.0,0.0,0.0,0.0,0.0,0.0,0.0,0.0,0.0,0.0,0.0,0.0,0.0,0.0,0.0,0.0,0.0,0.0,0.0,0.0,0.0,0.0,0.0,0.0,0.0,0.0,0.0,0.0,0.0,0.0,0.0,0.0,0.0,0.0,0.0,0.0,0.0,0.0,0.0,0.0,0.0,0.0,0.0,0.0,0.0,0.0,0.0,0.0,0.0,0.0,0.0,0.0,0.0,0.0,0.0,0.0,0.0,0.0,0.0,0.0,0.0,0.0,0.0,0.0,0.0,-1.9798,-1.9798,-1.9798,-1.9747,-1.9631,-1.9024,-1.8247,-1.7468,0.0,0.0,0.0,0.0,0.0,0.0,0.0,0.0,0.0,0.0,0.0,0.0,0.0,0.0,0.0,0.0,0.0,0.0,0.0,0.0,0.0,0.0,0.0,0.0,0.0,0.0,0.0,0.0,0.0,0.0,0.0,0.0,0.0,0.0,0.0,0.0,0.0,0.0,0.0,0.0,0.0,0.0,0.0,0.0,0.0,0.0,0.0,0.0,0.0,0.0,0.0,0.0,0.0,0.0,0.0,0.0,0.0,0.0,0.0,0.0,0.0,0.0,0.0,0.0,0.0,0.0,0.0,0.0,0.0,0.0,0.0,0.0,0.0,0.0,0.0,0.0,0.0,0.0,0.0,0.0,0.0,0.0,0.0,0.0,0.0,0.0,0.0,0.0,0.0,0.0,0.0,0.0,0.0,0.0,0.0,0.0,0.0,0.0,0.0,0.0,0.0,0.0,0.0,-1.9798,-1.9798,-1.9798,-1.9798,-1.9798,-1.9798,-1.9475,-1.8992,-1.8221,-1.7142,0.0,0.0,0.0,0.0,0.0,0.0,0.0,0.0,0.0,0.0,0.0,0.0,0.0,0.0,0.0,0.0,0.0,0.0,0.0,0.0,0.0,0.0,0.0,0.0,0.0,0.0,0.0,0.0,0.0,0.0,0.0,0.0,0.0,0.0,0.0,0.0,0.0,0.0,0.0,0.0,0.0,0.0,0.0,0.0,0.0,0.0,0.0,0.0,0.0,0.0,0.0,0.0,0.0,0.0,0.0,0.0,0.0,0.0,0.0,0.0,0.0,0.0,0.0,0.0,0.0,0.0,0.0,0.0,0.0,0.0,0.0,0.0,0.0,0.0,0.0,0.0,0.0,0.0,0.0,0.0,0.0,0.0,0.0,0.0,0.0,0.0,0.0,0.0,0.0,0.0,0.0,0.0,0.0,0.0,0.0,0.0,0.0,0.0,0.0,0.0,0.0,0.0,-1.9901,-1.9798,-1.9798,-1.9798,-1.9798,-1.9798,-1.9798,-1.9475,-1.8768,-1.8004,0.0,0.0,0.0,0.0,0.0,0.0,0.0,0.0,0.0,0.0,0.0,0.0,0.0,0.0,0.0,0.0,0.0,0.0,0.0,0.0,0.0,0.0,0.0,0.0,0.0,0.0,0.0,0.0,0.0,0.0,0.0,0.0,0.0,0.0,0.0,0.0,0.0,0.0,0.0,0.0,0.0,0.0,0.0,0.0,0.0,0.0,0.0,0.0,0.0,0.0,0.0,0.0,0.0,0.0,0.0,0.0,0.0,0.0,0.0,0.0,0.0,0.0,0.0,0.0,0.0,0.0,0.0,0.0,0.0,0.0,0.0,0.0,0.0,0.0,0.0,0.0,0.0,0.0,0.0,0.0,0.0,0.0,0.0,0.0,0.0,0.0,0.0,0.0,0.0,0.0,0.0,0.0,0.0,0.0,0.0,0.0,0.0,0.0,0.0,0.0,0.0,0.0,-2.0207,-1.9798,-1.9798,-1.9798,-1.9798,-1.9798,-1.9798,-1.9475,-1.8768,-1.8004,0.0,0.0,0.0,0.0,0.0,0.0,0.0,0.0,0.0,0.0,0.0,0.0,0.0,0.0,0.0,0.0,0.0,0.0,0.0,0.0,0.0,0.0,0.0,0.0,0.0,0.0,0.0,0.0,0.0,0.0,0.0,0.0,0.0,0.0,0.0,0.0,0.0,0.0,0.0,0.0,0.0,0.0,0.0,0.0,0.0,0.0,0.0,0.0,0.0,0.0,0.0,0.0,0.0,0.0,0.0,0.0,0.0,0.0,0.0,0.0,0.0,0.0,0.0,0.0,0.0,0.0,0.0,0.0,0.0,0.0,0.0,0.0,0.0,0.0,0.0,0.0,0.0,0.0,0.0,0.0,0.0,0.0,0.0,0.0,0.0,0.0,0.0,0.0,0.0,0.0,0.0,0.0,0.0,0.0,0.0,0.0,0.0,0.0,0.0,0.0,0.0,0.0,-2.1708,-2.1563,-2.1563,-2.1151,-2.0853,-2.0853,-2.0853,-2.0732,-2.0459,0.0,0.0,0.0,0.0,0.0,0.0,0.0,0.0,0.0,0.0,0.0,0.0,0.0,0.0,0.0,0.0,0.0,0.0,0.0,0.0,0.0,0.0,0.0,0.0,0.0,0.0,0.0,0.0,0.0,0.0,0.0,0.0,0.0,0.0,0.0,0.0,0.0,0.0,0.0,0.0,0.0,0.0,0.0,0.0,0.0,0.0,0.0,0.0,0.0,0.0,0.0,0.0,0.0,0.0,0.0,0.0,0.0,0.0,0.0,0.0,0.0,0.0,0.0,0.0,0.0,0.0,0.0,0.0,0.0,0.0,0.0,0.0,0.0,0.0,0.0,0.0,0.0,0.0,0.0,0.0,0.0,0.0,0.0,0.0,0.0,0.0,0.0,0.0,0.0,0.0,0.0,0.0,0.0,0.0,0.0,0.0,0.0,0.0,0.0,0.0,0.0,0.0,-2.3286,-2.2883,-2.2631,-2.2631,-2.1953,-2.1493,-2.1493,-2.1493,-2.1493,-2.1493,0.0,0.0,0.0,0.0,0.0,0.0,0.0,0.0,0.0,0.0,0.0,0.0,0.0,0.0,0.0,0.0,0.0,0.0,0.0,0.0,0.0,0.0,0.0,0.0,0.0,0.0,0.0,0.0,0.0,0.0,0.0,0.0,0.0,0.0,0.0,0.0,0.0,0.0,0.0,0.0,0.0,0.0,0.0,0.0,0.0,0.0,0.0,0.0,0.0,0.0,0.0,0.0,0.0,0.0,0.0,0.0,0.0,0.0,0.0,0.0,0.0,0.0,0.0,0.0,0.0,0.0,0.0,0.0,0.0,0.0,0.0,0.0,0.0,0.0,0.0,0.0,0.0,0.0,0.0,0.0,0.0,0.0,0.0,0.0,0.0,0.0,0.0,0.0,0.0,0.0,0.0,0.0,0.0,0.0,0.0,0.0,0.0,0.0,0.0,0.0,0.0,0.0,-2.4708,-2.3523,-2.2644,-2.2644,-2.1979,-2.1506,-2.1506,-2.1506,-2.1506,0.0,0.0,0.0,0.0,0.0,0.0,0.0,0.0,0.0,0.0,0.0,0.0,0.0,0.0,0.0,0.0,0.0,0.0,0.0,0.0,0.0,0.0,0.0,0.0,0.0,0.0,0.0,0.0,0.0,0.0,0.0,0.0,0.0,0.0,0.0,0.0,0.0,0.0,0.0,0.0,0.0,0.0,0.0,0.0,0.0,0.0,0.0,0.0,0.0,0.0,0.0,0.0,0.0,0.0,0.0,0.0,0.0,0.0,0.0,0.0,0.0,0.0,0.0,0.0,0.0,0.0,0.0,0.0,0.0,0.0,0.0,0.0,0.0,0.0,0.0,0.0,0.0,0.0,0.0,0.0,0.0,0.0,0.0,0.0,0.0,0.0,0.0,0.0,0.0,0.0,0.0,0.0,0.0,0.0,0.0,0.0,0.0,0.0,0.0,0.0,0.0,0.0,0.0,-2.5994,-2.5621,-2.5342,-2.5342,-2.42,-2.3493,-2.3493,-2.2929,-2.2648,-2.2648,0.0,0.0,0.0,0.0,0.0,0.0,0.0,0.0,0.0,0.0,0.0,0.0,0.0,0.0,0.0,0.0,0.0,0.0,0.0,0.0,0.0,0.0,0.0,0.0,0.0,0.0,0.0,0.0,0.0,0.0,0.0,0.0,0.0,0.0,0.0,0.0,0.0,0.0,0.0,0.0,0.0,0.0,0.0,0.0,0.0,0.0,0.0,0.0,0.0,0.0,0.0,0.0,0.0,0.0,0.0,0.0,0.0,0.0,0.0,0.0,0.0,0.0,0.0,0.0,0.0,0.0,0.0,0.0,0.0,0.0,0.0,0.0,0.0,0.0,0.0,0.0,0.0,0.0,0.0,0.0,0.0,0.0,0.0,0.0,0.0,0.0,0.0,0.0,0.0,0.0,0.0,0.0,0.0,0.0,0.0,0.0,0.0,0.0,0.0,0.0,0.0,0.0,-2.6938,-2.6669,-2.651,-2.651,-2.5453,-2.4738,-2.4738,-2.406,-2.3708,-2.3989,0.0,0.0,0.0,0.0,0.0,0.0,0.0,0.0,0.0,0.0,0.0,0.0,0.0,0.0,0.0,0.0,0.0,0.0,0.0,0.0,0.0,0.0,0.0,0.0,0.0,0.0,0.0,0.0,0.0,0.0,0.0,0.0,0.0,0.0,0.0,0.0,0.0,0.0,0.0,0.0,0.0,0.0,0.0,0.0,0.0,0.0,0.0,0.0,0.0,0.0,0.0,0.0,0.0,0.0,0.0,0.0,0.0,0.0,0.0,0.0,0.0,0.0,0.0,0.0,0.0,0.0,0.0,0.0,0.0,0.0,0.0,0.0,0.0,0.0,0.0,0.0,0.0,0.0,0.0,0.0,0.0,0.0,0.0,0.0,0.0,0.0,0.0,0.0,0.0,0.0,0.0,0.0,0.0,0.0,0.0,0.0,0.0,0.0,0.0,0.0,0.0,0.0,-2.7625,-2.7049,-2.6616,-2.6616,-2.5946,-2.5508,-2.5508,-2.4851,-2.4681,-2.5342,0.0,0.0,0.0,0.0,0.0,0.0,0.0,0.0,0.0,0.0,0.0,0.0,0.0,0.0,0.0,0.0,0.0,0.0,0.0,0.0,0.0,0.0,0.0,0.0,0.0,0.0,0.0,0.0,0.0,0.0,0.0,0.0,0.0,0.0,0.0,0.0,0.0,0.0,0.0,0.0,0.0,0.0,0.0,0.0,0.0,0.0,0.0,0.0,0.0,0.0,0.0,0.0,0.0,0.0,0.0,0.0,0.0,0.0,0.0,0.0,-2.6474,0.0,0.0,0.0,0.0,0.0,0.0,0.0,0.0,0.0,0.0,0.0,0.0,0.0,0.0,0.0,0.0,0.0,0.0,0.0,0.0,0.0,0.0,0.0,0.0,0.0,0.0,0.0,0.0,0.0,0.0,0.0,0.0,0.0,0.0,0.0,0.0,0.0,0.0,0.0,0.0,0.0,-2.7625,-2.7458,-2.7357,-2.7357,-2.6721,-2.6283,-2.6283,-2.5563,-2.5231,-2.5398,-2.5063,0.0,0.0,0.0,0.0,0.0,0.0,0.0,0.0,0.0,0.0,0.0,0.0,0.0,0.0,0.0,0.0,0.0,0.0,0.0,0.0,0.0,0.0,0.0,0.0,0.0,0.0,0.0,0.0,0.0,0.0,0.0,0.0,0.0,0.0,0.0,0.0,0.0,0.0,0.0,0.0,0.0,0.0,0.0,0.0,0.0,0.0,0.0,0.0,0.0,0.0,0.0,0.0,0.0,0.0,0.0,0.0,0.0,0.0,0.0,0.0,-2.752,0.0,0.0,0.0,0.0,0.0,0.0,0.0,0.0,0.0,0.0,0.0,0.0,0.0,0.0,0.0,0.0,0.0,0.0,0.0,0.0,0.0,0.0,0.0,0.0,0.0,0.0,0.0,0.0,0.0,0.0,0.0,0.0,0.0,0.0,0.0,0.0,0.0,0.0,0.0,0.0,-2.7625,-2.7625,-2.7625,-2.7625,-2.7255,-2.7034,-2.7034,-2.6336,-2.6054,-2.6428,-2.5783,0.0,0.0,0.0,0.0,0.0,0.0,0.0,0.0,0.0,0.0,0.0,0.0,0.0,0.0,0.0,0.0,0.0,0.0,0.0,0.0,0.0,0.0,0.0,0.0,0.0,0.0,0.0,0.0,0.0,0.0,0.0,0.0,0.0,0.0,0.0,0.0,0.0,0.0,0.0,0.0,0.0,0.0,0.0,0.0,0.0,0.0,0.0,0.0,0.0,0.0,0.0,0.0,0.0,-2.7625,-2.7625,-2.7625,-2.7625,-2.7625,-2.763,-2.8183,-2.8399,-2.8463,-3.0081,0.0,0.0,0.0,0.0,0.0,0.0,0.0,0.0,0.0,0.0,0.0,0.0,0.0,0.0,0.0,0.0,0.0,0.0,0.0,0.0,0.0,0.0,0.0,0.0,-2.7625,-2.7625,-2.7625,0.0,0.0,0.0,0.0,0.0,0.0,0.0,0.0,0.0,0.0,0.0,-2.7625,-2.7625,-2.7625,-2.7625,-2.7625,-2.7625,-2.7625,-2.7034,-2.693,-2.756,-2.6481,-2.6054,0.0,0.0,0.0,0.0,0.0,0.0,0.0,0.0,0.0,0.0,0.0,0.0,0.0,0.0,0.0,0.0,0.0,0.0,0.0,0.0,0.0,0.0,0.0,0.0,0.0,0.0,0.0,0.0,0.0,0.0,0.0,0.0,-2.1459,-2.1459,0.0,0.0,0.0,0.0,0.0,0.0,0.0,0.0,0.0,0.0,0.0,0.0,0.0,-2.74,-2.749,-2.749,-2.7535,-2.7625,-2.7625,-2.7625,-2.7625,-2.7625,-2.7625,-2.761,-2.8227,0.0,-2.776,-2.8543,0.0,0.0,0.0,0.0,0.0,0.0,0.0,0.0,0.0,0.0,0.0,0.0,0.0,0.0,0.0,0.0,0.0,0.0,0.0,0.0,0.0,0.0,-2.8238,-2.771,-2.7625,-2.7625,0.0,-2.7625,-2.7625,-2.7625,-2.7625,0.0,0.0,0.0,0.0,0.0,0.0,0.0,-2.7625,-2.7625,-2.7625,-2.7625,-2.7625,-2.7625,-2.7625,-2.7524,-2.7509,-2.7575,-2.7408,-2.7357,-2.7458,-2.6654,0.0,0.0,0.0,0.0,0.0,0.0,0.0,0.0,0.0,0.0,0.0,0.0,0.0,0.0,0.0,0.0,0.0,0.0,0.0,0.0,0.0,0.0,0.0,0.0,0.0,0.0,0.0,0.0,0.0,-2.198,-2.2667,-2.2332,-2.3133,-2.3857,0.0,0.0,0.0,0.0,0.0,0.0,0.0,0.0,0.0,-2.761,-2.7625,-2.7625,-2.7625,-2.7625,-2.7625,-2.7625,-2.7625,-2.7625,-2.7625,-2.7625,-2.781,-2.814,-2.8367,-2.8543,-2.867,-2.9271,-2.9673,-2.9995,0.0,0.0,0.0,0.0,-3.119,-3.119,-3.119,-3.119,-3.119,-3.119,0.0,0.0,0.0,0.0,0.0,0.0,0.0,0.0,0.0,0.0,-2.8966,-2.867,-2.8622,-2.8622,-2.8622,-2.8622,-2.84,0.0,-2.7625,-2.7625,-2.7625,0.0,0.0,0.0,0.0,-2.7625,-2.7625,-2.7625,-2.7625,-2.7625,-2.7625,-2.7625,-2.7625,-2.7625,-2.7625,-2.7625,-2.7625,-2.7625,-2.7625,-2.6878,-2.6826,0.0,0.0,0.0,0.0,0.0,0.0,0.0,0.0,0.0,0.0,0.0,0.0,0.0,0.0,0.0,0.0,0.0,0.0,0.0,0.0,0.0,0.0,0.0,0.0,0.0,0.0,0.0,0.0,-2.3188,-2.3985,-2.3475,-2.4028,-2.4662,0.0,0.0,0.0,0.0,0.0,0.0,-2.7625,-2.7625,-2.7625,-2.7625,-2.7625,-2.7625,-2.7625,-2.776,-2.781,-2.781,-2.7993,-2.8076,-2.8076,-2.8076,-2.8319,-2.8732,-2.8732,-2.9088,-2.9673,-2.9951,-3.0166,-3.0335,-3.0797,-3.1055,-3.119,-3.119,-3.119,-3.119,-3.119,-3.119,-3.119,-3.119,-3.119,-3.119,-3.119,0.0,0.0,0.0,0.0,-3.0477,-3.0335,-2.9995,-2.9585,-2.9451,-2.9406,-2.9406,-2.9406,-2.9406,-2.9134,0.0,-2.8076,-2.8076,-2.8076,0.0,0.0,0.0,0.0,-2.8076,-2.8076,-2.7944,-2.781,-2.781,-2.766,-2.7625,-2.7625,-2.7625,-2.7625,-2.7625,-2.7625,-2.7625,-2.7625,-2.7086,-2.7034,-2.7575,0.0,0.0,0.0,0.0,0.0,0.0,0.0,0.0,0.0,0.0,0.0,0.0,0.0,0.0,0.0,0.0,0.0,0.0,0.0,0.0,0.0,0.0,0.0,0.0,0.0,0.0,0.0,0.0,0.0,-2.5461,-2.6042,0.0,0.0,0.0,0.0,-2.7565,-2.7595,-2.7625,-2.7625,-2.7625,-2.7625,-2.7625,-2.7625,-2.7625,-2.7625,-2.8189,-2.8463,-2.8463,-2.9042,-2.9316,-2.9316,-2.9316,-2.9316,-2.9361,-2.9361,-2.9717,-3.0208,-2.9673,-2.9761,-3.0293,-3.0335,-3.0699,-3.119,-3.119,-3.119,-3.119,-3.119,-3.119,-3.119,-3.119,-3.119,-3.119,-3.119,-3.119,0.0,0.0,-3.119,-3.1015,-3.0435,-3.0293,-3.0123,-2.954,-2.9406,-2.9406,-2.9406,-2.9406,-2.9361,0.0,-2.9316,-2.9316,-2.9316,0.0,-2.9316,-2.9316,-2.9316,-2.9316,-2.9316,-2.8826,-2.8463,-2.8463,-2.7944,-2.7625,-2.7625,-2.7625,-2.7625,-2.7625,-2.7625,-2.7625,-2.7625,-2.756,-2.756,-2.7625,-2.756,0.0,0.0,0.0,0.0,0.0,0.0,0.0,0.0,0.0,0.0,0.0,0.0,0.0,0.0,0.0,0.0,0.0,0.0,0.0,0.0,0.0,0.0,0.0,0.0,0.0,0.0,0.0,0.0,-2.6243,-2.6826,0.0,-2.7215,-2.749,-2.7625,-2.7625,-2.7625,-2.7625,-2.7625,-2.7625,-2.7625,-2.7625,-2.8008,-2.8189,-2.8189,-2.8779,-2.9088,-2.9088,-2.9316,-2.9406,-2.9406,-2.9406,-2.9629,-2.9978,-2.9978,-3.0293,-3.0878,-3.0658,-3.0699,-3.0878,-3.0878,-3.1015,-3.119,-3.119,-3.119,-3.119,-3.119,-3.119,-3.119,-3.119,-3.119,-3.119,-3.119,-3.1512,-3.1901,-3.1901,-3.2239,-3.257,-3.2345,-3.2286,-3.2244,-3.2014,-3.1955,-3.1955,-3.1955,-3.1955,-3.1955,-3.1955,-3.0258,-2.8966,-2.9316,-2.8764,-2.8352,-2.8779,-2.8496,-2.8376,-2.8836,-2.8316,-2.821,-2.9082,-2.8596,-2.8319,-2.8717,-2.8764,-2.8764,-2.8764,-2.8415,-2.8189,-2.8189,-2.781,-2.7625,-2.7625,-2.7625,-2.7625,0.0,0.0,0.0,0.0,0.0,0.0,0.0,0.0,0.0,0.0,0.0,0.0,0.0,0.0,0.0,0.0,0.0,0.0,0.0,0.0,0.0,0.0,0.0,0.0,0.0,0.0,-2.6916,-2.6916,-2.7355,-2.7625,-2.7625,-2.7625,-2.7625,-2.7625,-2.7625,-2.7625,-2.7625,-2.781,-2.791,-2.791,-2.8511,-2.8779,-2.8779,-2.9406,-2.983,-3.0073,-3.0293,-3.0511,-3.0756,-3.0756,-3.0974,-3.1349,-3.1349,-3.1574,-3.1935,-3.1935,-3.1935,-3.1884,-3.1376,-3.1343,-3.1562,-3.1562,-3.1715,-3.1935,-3.1935,-3.1935,-3.1935,-3.1935,-3.1935,-3.1935,-3.1935,-3.2273,-3.2662,-3.2662,-3.3017,-3.3406,-3.3406,-3.3406,-3.3406,-3.3406,-3.3406,-3.3406,-3.3406,-3.3406,-3.3406,-3.3406,-3.1632,-3.0293,-3.0652,-3.0094,-2.9627,-2.9801,-2.969,-2.9657,-2.9863,-2.9506,-2.9576,-3.0418,-2.9927,-2.9706,-3.011,-3.0156,-3.0156,-3.0156,-2.9753,-2.9406,-2.9171,-2.8609,-2.8171,-2.791,-2.771,-2.7625,-2.7625,0.0,0.0,0.0,0.0,0.0,0.0,0.0,0.0,0.0,0.0,0.0,0.0,0.0,0.0,0.0,0.0,0.0,0.0,0.0,0.0,0.0,0.0,0.0,-2.7534,-2.7567,-2.7625,-2.7625,-2.7625,-2.7625,-2.7625,-2.7625,-2.7625,-2.7625,-2.7675,-2.766,-2.7625,-2.8189,-2.8511,-2.8511,-2.912,-2.9483,-2.9483,-3.0087,-3.0764,-3.1483,-3.2043,-3.2696,-3.3406,-3.3406,-3.3406,-3.3406,-3.3406,-3.3406,-3.3406,-3.3406,-3.3406,-3.3271,-3.1833,-3.1698,-3.2307,-3.2307,-3.278,-3.3406,-3.3406,-3.3406,-3.3406,-3.3406,-3.3406,-3.3406,-3.3406,-3.3423,-3.344,-3.344,-3.3457,-3.3474,-3.3474,-3.3474,-3.3474,-3.3474,-3.3474,-3.3474,-3.3474,-3.3474,-3.3474,-3.3474,-3.3474,-3.3457,-3.3406,-3.3364,-3.3117,-3.2512,-3.2944,0.0,-3.25,-3.2422,-3.2512,-3.2529,-3.1992,-3.1646,-3.163,-3.1646,-3.1646,-3.1646,-3.163,-3.1324,-3.0587,-3.0005,-2.9321,-2.8589,-2.8005,-2.767,-2.764,0.0,0.0,0.0,0.0,0.0,0.0,0.0,0.0,0.0,0.0,0.0,0.0,0.0,0.0,0.0,0.0,0.0,0.0,0.0,0.0,0.0,0.0,-2.8559,-2.7704,-2.759,-2.7625,-2.7625,-2.7625,-2.776,-2.8189,-2.8238,-2.8238,-2.8238,-2.8685,-2.8717,-2.8286,-2.8826,-2.9134,-2.9134,-3.0247,-3.0833,-3.0833,-3.1974,-3.2656,-3.2858,-3.3001,-3.3203,-3.3406,-3.3406,-3.3406,-3.3406,-3.3406,-3.3406,-3.3406,-3.3406,-3.3406,-3.3372,-3.2949,-3.2916,-3.3102,-3.3102,-3.3237,-3.3406,-3.3406,-3.3406,-3.3406,-3.3406,-3.3406,-3.3406,-3.3406,-3.3778,-3.4201,-3.4201,-3.459,-3.5013,-3.5013,-3.5013,-3.5013,-3.5013,-3.5013,-3.5013,-3.5013,-3.5013,-3.5013,-3.5013,-3.5013,-3.4675,-3.3592,-3.2691,-3.2161,-3.2406,-3.2269,0.0,-3.2482,-3.2159,-3.2217,-3.3129,-3.2626,-3.2451,-3.2884,-3.2927,-3.2927,-3.2927,-3.2496,-3.2171,-3.1974,-3.1388,-3.0959,-3.0736,-3.0102,-2.952,0.0,0.0,0.0,0.0,0.0,0.0,0.0,0.0,0.0,0.0,0.0,0.0,0.0,0.0,0.0,0.0,0.0,0.0,0.0,0.0,0.0,0.0,-3.0038,-2.9435,-2.8496,-2.8352,-2.8352,-2.8352,-2.8352,-2.8496,-2.8826,-2.8873,-2.8873,-2.8873,-2.918,-2.9225,-2.8919,-2.9723,-3.0243,-3.0243,-3.1533,-3.2233,-3.2233,-3.3001,-3.3558,-3.3863,-3.3863,-3.4032,-3.4336,-3.4336,-3.4336,-3.4336,-3.4336,-3.4336,-3.4336,-3.4336,-3.4336,0.0,0.0,0.0,0.0,0.0,-3.4336,-3.4336,-3.4336,-3.4336,-3.4336,-3.4336,-3.4336,-3.4336,-3.4336,-3.4624,-3.4962,-3.4962,-3.5284,-3.5622,-3.5622,-3.5622,-3.5622,-3.5622,-3.5622,-3.5622,-3.5622,-3.5622,-3.5622,-3.5622,-3.5622,0.0,-3.4489,-3.3739,-3.3294,-3.3387,-3.3294,-3.3301,-3.3421,-3.3352,-3.3568,-3.4293,-3.4051,-3.3935,-3.4293,-3.4336,0.0,0.0,0.0,-3.3561,-3.2987,-3.2324,0.0,0.0,0.0,-3.056,-3.0448,0.0,0.0,0.0,-2.8102,-2.771,0.0,0.0,0.0,0.0,0.0,0.0,0.0,0.0,0.0,0.0,0.0,0.0,0.0,0.0,0.0,0.0,-3.0393,-3.0208,-2.9673,-2.9585,-2.954,-2.9406,-2.9406,-2.9406,-2.9496,-2.9496,-2.9496,-2.9496,-2.9585,-2.9617,-2.9608,0.0,0.0,0.0,0.0,-3.3525,-3.3525,-3.3609,-3.3981,-3.4624,-3.4624,-3.4979,-3.5622,-3.5622,-3.5622,-3.5622,-3.5622,-3.5622,-3.5622,-3.5622,-3.5622,-3.5487,-3.4167,-3.4049,-3.4692,-3.5368,-3.5622,-3.5622,-3.5622,0.0,0.0,-3.5622,-3.5622,-3.5622,-3.5622,-3.5622,-3.5622,-3.5622,-3.5622,-3.5622,-3.5622,-3.5622,-3.5622,-3.5622,-3.5622,-3.5622,-3.5622,-3.5622,-3.5622,-3.5622,-3.5622,-3.5622,-3.5622,-3.5622,-3.5407,-3.4783,-3.5207,-3.5362,-3.4783,-3.5207,-3.5622,-3.5622,0.0,0.0,-3.5622,-3.5622,-3.5622,-3.5622,-3.5622,-3.5076,-3.3856,-3.3226,-3.259,-3.2062,-3.1383,-3.1286,-3.179,-3.1173,-3.1076,-3.1566,-2.9138,-2.8354,0.0,0.0,0.0,0.0,0.0,0.0,0.0,0.0,0.0,0.0,0.0,0.0,0.0,0.0,0.0,-3.1055,-3.1015,-3.0975,-3.0878,-3.0838,-3.0477,-2.954,-2.9406,-2.9585,-3.0081,-3.0123,-3.0123,-3.0123,-3.0576,-3.0908,-3.103,-3.1742,-3.242,-3.2967,-3.3854,-3.4286,-3.4286,-3.4895,-3.5267,-3.5402,0.0,0.0,-3.5622,-3.5622,-3.5622,-3.5622,-3.5622,-3.5622,-3.5622,-3.5622,-3.5622,-3.5588,-3.5301,-3.5284,-3.5419,-3.5571,-3.5622,-3.5622,-3.5622,-3.5622,-3.5622,-3.5622,-3.5622,-3.5622,-3.5622,-3.5622,0.0,-3.5622,-3.5622,-3.5622,-3.5622,-3.5622,-3.5622,-3.5622,-3.5622,-3.5622,-3.5622,-3.5622,-3.5622,-3.5622,-3.5622,-3.5622,-3.5622,-3.5622,-3.5577,-3.5424,-3.5515,-3.556,-3.5407,-3.5515,-3.5622,-3.5622,-3.5622,-3.5622,-3.5622,-3.5622,-3.5622,-3.5622,-3.5622,-3.5493,-3.5206,-3.5071,-3.4942,-3.4834,-3.4164,-3.363,-3.3198,-3.253,-3.1997,-3.1582,-3.107,-3.0895,0.0,0.0,0.0,0.0,0.0,0.0,0.0,0.0,0.0,0.0,0.0,-3.119,0.0,0.0,-3.119,-3.119,-3.119,-3.119,-3.119,-3.119,-3.0975,-3.0393,-3.0293,-3.0435,-3.0699,-3.074,-3.074,-3.074,-3.1392,-3.1803,-3.1851,-3.2841,-3.3558,-3.3931,-3.4675,-3.5064,-3.5064,-3.5436,-3.5622,-3.5622,-3.5622,-3.5622,-3.5622,-3.5622,-3.5825,-3.6197,-3.6197,-3.6417,-3.6772,-3.6772,-3.6772,-3.6772,-3.6772,-3.6299,-3.5622,-3.5622,-3.5622,-3.5622,-3.5622,-3.5876,-3.6197,-3.6197,-3.6451,-3.6772,-3.6772,-3.6772,-3.6772,-3.6772,-3.6772,-3.6772,-3.6772,-3.6772,-3.6772,-3.6772,-3.6772,-3.6671,-3.6282,-3.6197,-3.6079,-3.569,-3.5622,-3.5622,-3.5622,-3.5943,-3.6062,-3.5673,-3.5622,-3.5622,-3.5622,-3.5622,-3.5622,-3.5622,-3.5622,-3.5622,-3.5622,-3.5622,-3.5622,-3.5622,-3.5622,-3.5622,-3.5622,-3.5622,-3.5622,-3.5622,-3.4941,-3.4601,-3.4609,-3.3906,-3.3614,-3.3614,-3.3614,-3.3034,0.0,0.0,0.0,0.0,0.0,0.0,0.0,0.0,-3.119,-3.119,-3.119,-3.119,-3.119,-3.119,-3.119,-3.119,-3.119,-3.119,-3.119,-3.119,-3.119,-3.119,-3.119,-3.119,-3.119,-3.119,-3.119,-3.119,-3.1867,-3.2341,-3.2493,-3.3778,-3.4556,-3.4709,-3.5301,-3.5622,-3.5622,-3.5622,-3.5622,-3.5622,-3.5622,-3.569,-3.5842,-3.5842,-3.6265,-3.6992,-3.6992,-3.7347,-3.7905,-3.7905,-3.7905,-3.7905,-3.7905,-3.7144,-3.6062,-3.6062,-3.6062,-3.6062,-3.6062,-3.6468,-3.6992,-3.6992,-3.7415,-3.7905,-3.7905,-3.7905,-3.7905,-3.7905,-3.7905,-3.7905,-3.7905,-3.7905,-3.7905,-3.7905,-3.7905,-3.7736,-3.7127,-3.6992,-3.6806,-3.618,-3.6062,-3.6062,-3.6062,-3.6586,-3.6738,-3.596,-3.5977,-3.6011,-3.5859,-3.5842,-3.5791,-3.5639,-3.5622,-3.5622,-3.5622,-3.5622,-3.5622,-3.5622,-3.5622,-3.5622,-3.5622,-3.5622,-3.5622,-3.5622,-3.5052,-3.5052,-3.5622,-3.5052,-3.5052,-3.5622,-3.5622,-3.4678,-3.1914,-3.1952,-3.1556,-3.1274,-3.119,-3.119,0.0,0.0,-3.119,-3.119,-3.119,-3.119,-3.119,-3.119,-3.119,-3.119,-3.119,-3.119,-3.119,-3.119,-3.119,-3.119,-3.119,-3.119,-3.119,-3.119,-3.119,-3.119,-3.1867,-3.2577,-3.3237,-3.4049,-3.4793,-3.547,-3.5571,-3.5622,-3.5622,-3.5622,-3.5622,-3.5622,-3.5622,-3.5977,-3.6654,-3.6654,-3.706,-3.7787,-3.7787,-3.7821,-3.7905,-3.7905,-3.7905,-3.7905,-3.7905,-3.7804,-3.7652,-3.7652,-3.7652,-3.7652,-3.7652,-3.7702,-3.7787,-3.7787,-3.7838,-3.7905,-3.7905,-3.7905,-3.7905,-3.7905,-3.7905,-3.7905,-3.7905,-3.7905,-3.7905,-3.7905,-3.7905,-3.7889,-3.7787,-3.7787,-3.7753,-3.7669,-3.7652,-3.7652,-3.7652,-3.7719,-3.7516,-3.6772,-3.7212,-3.7415,-3.6738,-3.6654,-3.6383,-3.569,-3.5622,-3.5622,-3.5622,-3.5622,-3.5622,-3.5622,-3.5622,-3.5622,-3.5622,-3.5622,-3.5622,-3.5622,-3.5515,-3.5515,-3.5622,-3.5515,-3.5515,-3.5622,-3.5622,-3.5493,-3.2039,-3.2127,-3.2109,-3.1677,-3.1733,-3.1967,-3.1967,-3.1967,-3.1896,-3.1603,-3.1545,-3.147,-3.1252,-3.1372,-3.1545,0.0,-3.1545,-3.164,-3.1932,-3.1714,-3.164,-3.1914,-3.1967,-3.1768,-3.1269,-3.119,-3.119,-3.119,-3.2273,-3.3068,-3.3389,-3.4523,-3.5301,-3.5605,-3.5622,-3.5622,-3.5622,-3.5622,-3.5859,-3.6299,-3.6299,-3.6705,-3.7432,-3.7432,-3.7838,-3.8565,-3.8988,-3.9174,-3.9174,-3.9174,-3.9174,-3.9174,-3.9174,-3.9174,-3.9073,-3.8227,-3.7905,-3.7905,-3.7905,-3.8176,-3.8531,-3.8531,-3.8819,-3.9174,-3.9174,-3.9174,-3.9174,-3.9174,-3.9174,-3.9174,-3.9174,-3.9174,-3.9174,-3.9174,-3.9174,-3.9056,-3.8633,-3.8531,-3.8413,-3.799,-3.7905,-3.7905,-3.7905,-3.8261,-3.843,-3.8125,-3.7973,-3.7787,-3.7483,-3.7432,-3.7313,-3.6975,-3.6958,-3.6958,-3.6958,-3.6958,-3.6958,-3.6958,-3.6958,-3.6755,-3.6315,-3.6299,-3.6079,-3.5622,-3.5622,-3.5622,-3.5622,-3.5622,-3.5622,-3.5622,-3.5622,-3.5622,-3.2298,-3.2433,-3.2583,-3.2092,-3.223,-3.2484,-3.2484,-3.2484,-3.2417,-3.2057,-3.1986,-3.1897,-3.162,-3.1806,-3.1986,-3.1986,-3.1986,-3.2092,-3.2451,-3.2213,-3.2127,-3.2451,-3.2484,-3.2248,-3.1637,-3.1449,-3.1397,-3.1517,-3.2679,-3.3491,-3.3694,-3.4928,-3.5622,-3.5622,-3.5622,-3.5622,-3.5622,-3.5622,-3.6011,-3.6772,-3.6772,-3.728,-3.821,-3.8413,-3.8802,-3.9326,-3.9851,-4.007,-4.007,-4.007,-4.007,-4.007,-4.007,-4.007,-3.9952,-3.8903,-3.8514,-3.8514,-3.8514,-3.8853,-3.9292,-3.9292,-3.9648,-4.007,-4.007,-4.007,-4.007,-4.007,-4.007,-4.007,-4.007,-4.007,-4.007,-4.007,-4.007,-3.9935,-3.9411,-3.9292,-3.914,-3.8616,-3.8514,-3.8514,-3.8514,-3.8937,-3.9292,-3.9292,-3.8853,-3.843,-3.8227,-3.8041,-3.7905,-3.7905,-3.7905,-3.7905,-3.7905,-3.7905,-3.7905,-3.7905,-3.7905,-3.7669,-3.711,-3.7094,-3.6823,-3.6265,-3.6248,-3.6248,-3.6248,-3.6045,-3.5943,-3.5943,-3.5723,-3.5622,-3.3273,-3.3184,-3.3075,-3.2583,-3.2484,-3.2484,-3.2484,-3.2484,-3.2484,-3.2484,-3.2484,-3.2484,-3.2451,-3.2484,-3.2484,-3.2484,-3.2484,-3.2484,-3.2484,-3.2484,-3.2484,-3.2484,-3.2484,-3.2484,0.0,-3.2074,-3.1932,-3.2229,-3.2966,-3.3711,-3.4421,-3.5199,-3.5622,-3.5622,-3.5622,-3.5622,-3.5622,-3.5622,-3.6011,-3.6772,-3.6772,-3.755,-3.8988,-3.9698,-4.002,-4.0054,-4.007,-4.007,-4.007,-4.007,-4.007,-4.007,-4.007,-4.007,-4.007,-4.002,-4.0003,-4.0003,-4.0003,-4.002,-4.0054,-4.0054,-4.0054,-4.007,-4.007,-4.007,-4.007,-4.007,-4.007,-4.007,-4.007,-4.007,-4.007,-4.007,-4.007,-4.007,-4.0054,-4.0054,-4.0037,-4.002,-4.0003,-4.0003,-4.0003,-4.002,-4.0054,-4.0054,-4.002,-3.9749,-3.9056,-3.8345,-3.7905,-3.7905,-3.7905,-3.7905,-3.7905,-3.7905,-3.7905,-3.7905,-3.7905,-3.7889,-3.7872,-3.7872,-3.7872,-3.7838,-3.7838,-3.7838,-3.7838,-3.7094,-3.6738,-3.6721,-3.596,-3.5622,-3.3302,-3.339,-3.3494,-3.3075,-3.3166,-3.3343,-3.3343,-3.3343,-3.3284,-3.3014,-3.2983,-3.289,-3.255,-3.2745,-3.2983,-3.2983,-3.2983,-3.3075,-3.3314,-3.3136,-3.3075,-3.3314,-3.3343,0.0,0.0,0.0,0.0,-3.3193,-3.3619,-3.4357,-3.5461,-3.5901,-3.6291,-3.6626,-3.6666,-3.6481,-3.6139,-3.662,-3.7069,-3.7533,-3.8514,-3.9225,-3.9715,-3.9969,-4.007,-4.007,-4.007,-4.007,-4.007,-4.007,-4.007,-4.007,-4.007,-4.007,-4.007,-4.007,-4.007,-4.007,-4.007,-4.007,-4.007,-4.007,-4.007,-4.007,-4.007,-4.007,-4.007,-4.007,-4.007,-4.007,-4.007,-4.007,-4.007,-4.007,-4.007,-4.007,-4.007,-4.007,-4.007,-4.007,-4.007,-4.007,-4.007,-4.007,-4.007,-4.007,-4.007,-3.9986,-3.9749,-3.9495,-3.9343,-3.9343,-3.9343,-3.9343,-3.9343,-3.9343,-3.9343,-3.9343,-3.9343,-3.9302,-3.9164,-3.9147,-3.8952,-3.8436,-3.8418,-3.8242,-3.7905,-3.7652,-3.7533,-3.7516,-3.7263,-3.7144,-3.3494,-3.3606,-3.3734,-3.3494,-3.3606,-3.3807,-3.3807,-3.3807,-3.3734,-3.3465,-3.3419,-3.3332,-3.3027,-3.3196,-3.3419,-3.3419,-3.3419,-3.3494,-3.3762,-3.3578,-3.3522,-3.3762,-3.3807,-3.3817,0.0,0.0,0.0,-3.4073,-3.453,-3.5265,-3.6358,-3.6584,-3.6843,-3.7173,-3.719,-3.7083,-3.6814,-3.7492,-3.8191,-3.8911,-3.9915,-4.0368,-4.0368,-4.0204,-4.007,-4.007,-4.007,-4.007,-4.007,-4.007,-4.007,-4.007,-4.007,-4.007,-4.007,-4.007,-4.007,-4.007,-4.007,-4.007,-4.007,-4.007,-4.007,-4.007,-4.007,-4.007,-4.007,-4.007,-4.007,-4.007,-4.007,-4.007,-4.007,-4.007,-4.007,-4.007,-4.007,-4.007,-4.007,-4.007,-4.007,-4.007,-4.007,-4.007,-4.007,-4.007,-4.007,-4.007,-4.007,-4.007,-4.007,-4.007,-4.0286,-4.0336,-4.0121,-4.0286,-4.0286,-4.0121,-4.0286,-4.0323,-4.021,-4.0418,-4.0307,-3.9817,-3.98,-3.951,-3.8952,-3.8696,-3.8499,-3.8294,-3.8024,-3.7905,-3.3807,-3.3807,-3.3807,-3.3807,-3.3807,-3.3807,-3.3807,-3.3807,-3.3807,-3.3807,-3.3807,-3.3807,0.0,0.0,-3.3807,-3.3807,-3.3807,-3.3807,-3.3807,-3.3807,-3.3807,0.0,0.0,0.0,0.0,0.0,0.0,-3.4941,0.0,-3.6397,-3.7212,-3.7248,-3.7248,-3.7266,-3.7339,-3.7443,-3.7567,-3.8174,-3.9266,-4.0737,-4.0874,-4.0949,-4.0856,-4.0368,-4.0121,-4.0121,-4.0121,-4.0121,-4.0121,-4.0121,-4.007,-4.007,-4.007,-4.007,-4.007,-4.007,-4.0104,-4.0138,-4.0138,-4.0104,-4.007,-4.007,-4.0104,-4.0138,-4.0138,-4.0155,-4.0172,-4.0155,-4.0138,-4.0121,-4.0087,-4.007,-4.007,-4.007,-4.007,-4.007,-4.007,-4.007,-4.007,-4.007,-4.007,-4.007,-4.007,-4.007,-4.007,-4.007,-4.007,-4.007,-4.007,-4.007,-4.007,-4.007,-4.0577,-4.0703,-4.0154,-4.0625,-4.075,-4.0204,-4.0655,-4.0949,-4.0995,-4.1534,-4.1853,-4.1853,-4.1853,-4.1534,-4.0949,-4.0238,-3.9606,-3.9071,-3.8376,-3.8055,-3.3807,-3.3807,-3.3807,-3.3807,-3.3807,-3.3807,-3.3807,-3.3807,-3.3807,-3.3807,-3.3807,-3.3807,0.0,0.0,0.0,-3.3807,-3.3807,0.0,-3.3807,-3.3807,0.0,-3.3807,0.0,-3.4752,-3.4972,-3.6138,0.0,0.0,-3.6612,-3.7048,-3.8231,-3.7929,-3.7911,-3.8318,-3.89,-3.9043,-3.8686,-3.9615,-4.0595,-4.151,-4.1558,-4.1358,-4.0903,-4.0733,-4.0703,-4.0655,-4.0286,-4.0336,-4.0655,-4.0237,-4.007,-4.007,-4.007,-4.007,-4.007,-4.007,-4.0443,-4.0916,-4.0916,-4.0544,-4.007,-4.007,-4.046,-4.0916,-4.0916,-4.1288,-4.161,-4.1068,-4.0916,-4.0781,-4.0223,-4.007,-4.007,-4.007,-4.007,-4.007,-4.007,-4.007,-4.007,-4.007,-4.007,-4.007,-4.007,-4.007,-4.007,-4.007,-4.007,-4.007,-4.007,-4.007,-4.007,-4.007,-4.0577,-4.0856,-4.0703,-4.1223,-4.149,-4.1375,-4.149,-4.175,-4.2203,-4.2382,-4.248,-4.248,-4.248,-4.2162,-4.1578,-4.1384,-4.0989,-4.041,-4.022,-3.9932,-3.3807,-3.3807,-3.3807,-3.3807,-3.3807,-3.3807,-3.3807,-3.3807,-3.3807,-3.3807,-3.3807,0.0,-3.3807,-3.3807,0.0,0.0,0.0,0.0,-3.3807,-3.3807,-3.3807,0.0,-3.4523,0.0,-3.5532,-3.6725,-3.7643,0.0,-3.7758,-3.7927,-3.864,-3.8415,-3.8382,-3.8707,-3.9478,-4.0097,-4.0502,-4.1207,-4.1877,-4.2562,-4.2324,-4.2021,-4.1664,-4.1402,-4.1296,-4.1268,0.0,-4.0607,-4.0856,-4.0336,-4.007,-4.007,-4.007,-4.029,-4.0578,-4.0578,-4.1052,-4.1677,-4.1677,-4.1407,-4.1052,-4.1052,-4.1339,-4.1677,-4.1677,-4.1965,-4.2255,-4.2176,-4.2108,-4.2005,-4.1627,-4.1507,-4.1425,-4.1155,-4.1052,-4.1052,-4.1052,-4.1052,-4.1053,-4.0998,-4.0492,-4.0154,-4.0417,-4.0254,-4.007,-4.007,-4.0286,-4.0449,-4.0449,-4.0254,-4.0204,-4.0417,-4.0967,-4.1296,-4.1296,-4.1853,-4.208,-4.181,-4.2038,-4.2342,-4.2711,-4.2939,-4.305,-4.305,-4.305,-4.2752,-4.2203,-4.2203,-4.1895,-4.1296,-4.1296,-4.1133,-3.3807,-3.3807,-3.3807,-3.3807,-3.3807,-3.3807,-3.3807,-3.3807,-3.3807,-3.3807,0.0,-3.3807,-3.3807,-3.3807,-3.3807,-3.3807,0.0,-3.3807,-3.3807,-3.3807,-3.3807,-3.3807,-3.4614,-3.5477,-3.6229,-3.711,-3.7936,-3.8652,-3.8707,-3.8707,-3.8707,-3.8707,-3.8799,-3.9019,-3.979,-4.0928,-4.2433,-4.2686,-4.305,-4.3479,-4.3014,-4.2788,-4.2655,-4.2162,-4.1937,-4.1895,-4.1268,-4.1087,-4.1087,-4.0546,-4.0353,-4.0353,-4.0438,-4.0898,-4.1427,-4.158,-4.2074,-4.2722,-4.2722,-4.2773,-4.2788,-4.2549,-4.2496,-4.2581,-4.2669,-4.279,-4.2928,-4.3415,-4.3576,-4.3541,-4.3454,-4.3419,-4.3224,-4.2568,-4.2428,-4.2392,-4.2339,-4.2392,-4.2381,-4.2265,-4.1366,-4.0771,-4.1123,-4.0762,-4.0455,-4.0353,-4.0703,-4.1041,-4.1041,-4.0625,-4.0497,-4.0949,-4.1578,-4.1937,-4.1937,-4.2462,-4.2598,-4.2062,-4.2519,-4.2826,-4.2826,-4.325,-4.3497,-4.3497,-4.3497,-4.325,-4.2826,-4.2826,-4.2519,-4.1937,-4.1937,-4.1895,-3.3807,-3.3807,-3.3807,-3.3807,-3.3807,-3.3807,-3.3807,-3.3807,0.0,0.0,-3.3807,-3.3807,-3.3807,-3.3807,-3.3807,-3.3807,-3.3807,-3.3807,-3.3807,-3.3807,-3.3807,0.0,-3.5147,-3.6138,-3.6285,-3.7624,0.0,0.0,-3.8707,-3.8707,-3.8707,-3.8707,-3.9313,-4.0653,-4.146,-4.2341,-4.3277,-4.3336,-4.341,-4.3497,-4.341,-4.3142,-4.2711,-4.2577,-4.2519,-4.2519,-4.1895,0.0,-4.2342,-4.1768,-4.1508,-4.1561,-4.2238,-4.2572,-4.2765,-4.3399,-4.412,-4.4771,-4.4771,-4.5193,-4.54,-4.369,-4.3508,-4.411,-4.4646,-4.5228,-4.5615,-4.5105,-4.4958,-4.4816,-4.4198,-4.4039,-4.3902,-4.3273,-4.316,-4.2961,-4.2428,-4.2723,-4.3108,-4.3068,-4.3296,-4.3331,-4.2723,-4.2573,-4.2273,-4.1596,-4.1578,-4.1621,-4.1621,-4.1578,-4.1534,-4.1621,-4.2162,-4.2519,-4.2519,-4.305,-4.3321,-4.3196,-4.3286,-4.3375,-4.3375,-4.3444,-4.3497,-4.3497,-4.3497,-4.3444,-4.3375,-4.3375,-4.3087,-4.2519,-4.2519,-4.2262,-3.3807,-3.3807,-3.3807,-3.3807,-3.3807,-3.3807,-3.3807,0.0,0.0,0.0,-3.3807,-3.3807,-3.3807,-3.3807,0.0,-3.3807,-3.3807,-3.3807,-3.3807,-3.3807,-3.3807,-3.3807,-3.5275,-3.6303,-3.6303,-3.7771,-3.8707,-3.8707,-3.8707,-3.8707,-3.8707,-3.9093,-4.0065,-4.168,-4.2103,-4.269,-4.3479,-4.3497,-4.3497,-4.3497,-4.3497,-4.3375,-4.3142,-4.3142,-4.3142,-4.3087,-4.2501,-4.2422,-4.2655,-4.2038,-4.2041,-4.2473,-4.2845,-4.3483,-4.4227,-4.4617,-4.5237,-4.5864,-4.5864,-4.6112,-4.6307,-4.5627,-4.5441,-4.5501,-4.577,-4.613,-4.6389,-4.64,-4.6382,-4.6292,-4.5978,-4.5889,-4.5695,-4.5052,-4.4909,-4.483,-4.4468,-4.4401,-4.4454,-4.4749,-4.4502,-4.4183,-4.4109,-4.3825,-4.3465,-4.3111,-4.2977,-4.2893,-4.2893,-4.2775,-4.258,-4.2302,-4.2537,-4.2826,-4.3087,-4.3375,-4.3497,-4.3497,-4.3497,-4.3497,-4.3497,-4.3497,-4.3497,-4.3497,-4.3497,-4.3497,-4.3497,-4.3497,-4.3375,-4.3142,-4.3142,-4.2958,-3.3752,-3.3807,-3.3807,-3.3807,-3.3807,-3.3807,-3.3807,-3.3807,0.0,-3.3807,-3.3807,-3.3807,-3.3807,-3.3807,-3.3807,0.0,-3.3807,-3.3807,-3.3807,-3.3807,-3.3862,0.0,-3.5385,0.0,-3.6541,-3.7863,0.0,-3.8707,-3.8854,-3.8964,-3.8964,-3.9882,-4.0983,-4.2268,-4.247,-4.2855,-4.3479,-4.3497,-4.3497,-4.3497,-4.3497,-4.3497,-4.3497,-4.3497,-4.3497,-4.3497,-4.305,-4.2864,-4.2808,-4.2364,-4.2632,-4.3388,-4.3567,-4.4478,-4.5686,-4.5864,-4.6311,-4.6801,-4.6801,-4.6801,-4.6892,-4.7428,-4.7132,-4.6618,-4.6756,-4.6801,-4.6892,-4.7428,-4.7572,-4.7572,-4.7572,-4.7572,-4.7428,-4.6756,-4.6524,-4.6383,-4.6383,-4.6074,-4.5891,-4.638,-4.5731,-4.5186,-4.549,-4.515,-4.4764,-4.4586,-4.4417,-4.4334,-4.4334,-4.4145,-4.3778,-4.3174,-4.2955,-4.305,-4.3444,-4.3497,-4.3497,-4.3497,-4.3497,-4.3497,-4.3497,-4.3497,-4.3497,-4.3497,-4.3497,-4.3497,-4.3497,-4.3497,-4.3497,-4.3497,-4.3497,-4.3497,-3.3605,-3.3807,-3.3807,-3.3807,-3.3807,-3.3807,-3.3807,0.0,-3.3807,-3.3807,-3.3807,-3.3807,-3.3807,-3.3807,-3.3807,-3.3807,0.0,-3.3807,-3.3807,-3.3807,-3.4082,-3.4789,0.0,0.0,-3.7312,-3.8175,-3.8707,-3.8707,-3.9386,-3.979,-3.979,-4.124,-4.2158,-4.2304,-4.3002,-4.3424,-4.3497,-4.3497,-4.3497,-4.3497,-4.3497,-4.3497,-4.3497,-4.3497,-4.3497,-4.3497,-4.3444,-4.341,0.0,-4.3356,-4.3797,-4.462,-4.5333,-4.6157,-4.7016,-4.7748,-4.8059,-4.8132,-4.8132,-4.8132,-4.8132,-4.821,-4.7797,-4.7428,-4.7977,-4.8132,-4.8132,-4.821,-4.821,-4.821,-4.821,-4.821,-4.8075,-4.747,-4.6847,-4.6383,-4.6383,-4.6856,-4.7234,-4.7277,-4.7634,-4.7714,-4.7038,-4.6872,-4.6577,-4.5827,-4.5755,-4.57,-4.57,-4.5682,-4.5406,-4.4601,-4.3849,-4.3444,-4.3497,-4.3497,-4.3497,-4.3497,-4.3497,-4.3497,-4.3497,-4.3497,-4.3497,-4.3497,-4.3497,-4.3497,-4.3497,-4.3497,-4.3497,-4.3497,-4.3497,-4.3497,-3.2999,-3.344,-3.3807,-3.3807,-3.3807,-3.3807,-3.3807,0.0,-3.3807,-3.3807,-3.3807,-3.3807,-3.3807,-3.3807,-3.3807,0.0,0.0,0.0,-3.3807,-3.3807,-3.41,-3.4899,-3.5771,0.0,0.0,0.0,-3.8909,-3.9386,-4.0175,-4.0836,-4.1313,-4.1956,-4.2525,-4.3002,-4.3314,-4.3497,-4.3497,-4.3497,-4.3497,-4.3497,-4.3497,-4.3497,-4.3497,-4.3497,-4.3497,-4.3497,-4.3497,-4.3497,0.0,-4.3497,-4.425,-4.5461,-4.5773,-4.6691,-4.7865,-4.8196,-4.8306,-4.8306,-4.8306,-4.8306,-4.8306,-4.8306,-4.8132,-4.7995,-4.821,-4.8306,-4.8306,-4.8306,-4.8306,-4.8306,-4.8306,-4.8306,-4.8249,-4.7995,-4.7738,-4.7554,-4.7554,-4.7738,-4.7937,-4.7937,-4.8132,-4.8214,-4.7884,-4.7829,-4.7719,-4.7388,-4.6929,-4.6636,-4.6636,-4.6195,-4.5773,-4.5461,-4.4709,-4.403,-4.3534,-4.3497,-4.3497,-4.3497,-4.3497,-4.3497,-4.3497,-4.3497,-4.3497,-4.3497,-4.3497,-4.3497,-4.3497,-4.3497,-4.3497,-4.3497,-4.3497,-4.3497,-3.2485,-3.3018,-3.3495,-3.3733,-3.3807,-3.3807,0.0,0.0,-3.3807,-3.3807,-3.3807,-3.3807,-3.3807,-3.3807,-3.3807,0.0,0.0,-3.3807,-3.3807,-3.3807,-3.4192,-3.5275,0.0,-3.6707,0.0,-3.8377,-3.9129,-4.0175,-4.0781,-4.157,-4.2598,-4.2653,-4.291,-4.3461,-4.3497,-4.3497,-4.3497,-4.3497,-4.3497,-4.3497,-4.3497,-4.3497,-4.3497,-4.3497,-4.3497,-4.3497,-4.3497,-4.3497,0.0,-4.3497,-4.4452,-4.5902,-4.5902,-4.6874,-4.8306,-4.8306,-4.8306,-4.8306,-4.8306,-4.8306,-4.8306,-4.8306,-4.8306,-4.8306,-4.8306,-4.8306,-4.8306,-4.8306,-4.8306,-4.8306,-4.8306,-4.8306,-4.8306,-4.8306,-4.8306,-4.8306,-4.8306,-4.8306,-4.8306,-4.8306,-4.8306,-4.8306,-4.8306,-4.8306,-4.8306,-4.8306,-4.7829,-4.7462,-4.7462,-4.6966,-4.6526,-4.6287,-4.5755,-4.5002,-4.3938,-4.3846,-4.3754,-4.3516,-4.3497,-4.3497,-4.3497,-4.3497,-4.3497,-4.3497,-4.3497,-4.3497,-4.3497,-4.3497,-4.3497,-4.3497,-4.3497,-4.3497,-3.2173,-3.2614,-3.2816,-3.3605,-3.3807,-3.3807,0.0,0.0,-3.3807,-3.3807,-3.3807,-3.3807,-3.3807,-3.3807,-3.3807,-3.3807,0.0,0.0,-3.3807,-3.3807,-3.4412,0.0,0.0,-3.6927,-3.8542,-3.8707,-3.9368,-4.0983,-4.1111,0.0,-4.3387,-4.3479,-4.3479,-4.3497,-4.3497,-4.3497,-4.3497,-4.3497,-4.3497,-4.3497,-4.3497,-4.3497,-4.3497,-4.3497,-4.3497,-4.3497,-4.3497,-4.3497,0.0,-4.3497,-4.4452,-4.5902,-4.5902,-4.6874,-4.8306,-4.8306,-4.8306,-4.8306,-4.8306,-4.8306,-4.8306,-4.8306,-4.8306,-4.8306,-4.8306,-4.8306,-4.8306,-4.8306,-4.8306,-4.8306,-4.8306,-4.8306,-4.8306,-4.8306,-4.8306,-4.8306,-4.8306,-4.8306,-4.8306,-4.8306,-4.8306,-4.8306,-4.8306,-4.8306,-4.8306,-4.8306,-4.8306,-4.8306,-4.8306,-4.8288,-4.7976,-4.7186,-4.7095,-4.6452,-4.4837,-4.469,-4.436,-4.3534,-4.3497,-4.3497,-4.3497,-4.3497,-4.3497,-4.3497,-4.3497,-4.3497,-4.3497,-4.3497,-4.3497,-4.3497,-4.3497,-4.3497,-3.0815,-3.1366,-3.1971,-3.2779,-3.2981,-3.3128,-3.3678,-3.3807,-3.3807,-3.3807,-3.3807,-3.3807,-3.3807,-3.3807,-3.3807,-3.3807,-3.3807,0.0,0.0,0.0,0.0,-3.6101,-3.7276,-3.8138,0.0,0.0,-3.9368,-4.0983,-4.1111,-4.1809,-4.3406,-4.3497,-4.3497,-4.3497,-4.3497,-4.3497,-4.3497,-4.3497,-4.3497,-4.3497,-4.3497,-4.3497,-4.3497,-4.3497,-4.3497,-4.3497,-4.3497,-4.3497,-4.3497,-4.3497,-4.4452,-4.5902,-4.5902,-4.6874,-4.8306,-4.8306,-4.8306,-4.8306,-4.8306,-4.8306,-4.8306,-4.8306,-4.8306,-4.8306,-4.8306,-4.8306,-4.8306,-4.8306,-4.8306,-4.8306,-4.8306,-4.8306,-4.8306,-4.8306,-4.8306,-4.8306,-4.8306,-4.8306,-4.8306,-4.8306,-4.8306,-4.8306,-4.8306,-4.8306,-4.8306,-4.8306,-4.8306,-4.8306,-4.8306,-4.8306,-4.8214,-4.7957,-4.7921,-4.7278,-4.5663,-4.5021,-4.4599,-4.4342,-4.3791,-4.3497,-4.3497,-4.3497,-4.3497,-4.3497,-4.3497,-4.3497,-4.3497,-4.3497,-4.3497,-4.3497,-4.3497,-4.3497,0.0,-3.0577,-3.1201,-3.232,-3.2614,0.0,0.0,0.0,-3.3807,-3.3807,-3.3807,-3.3807,-3.3807,-3.3807,-3.3807,-3.3807,-3.3807,-3.3807,0.0,0.0,0.0,-3.6541,0.0,0.0,0.0,-3.8964,-3.9698,-4.102,-4.1387,-4.2121,-4.3424,-4.3497,-4.3497,-4.3497,-4.3497,-4.3497,-4.3497,-4.3497,-4.3497,-4.3497,-4.3497,-4.3497,-4.3497,-4.3497,-4.3497,-4.3497,-4.3497,-4.3497,0.0,-4.3497,-4.4268,-4.548,-4.5773,-4.6709,-4.7884,-4.8196,-4.8306,-4.8306,-4.8306,-4.8306,-4.8306,-4.8306,-4.8306,-4.8306,-4.8306,-4.8306,-4.8306,-4.8306,-4.8306,-4.8306,-4.8306,-4.8306,-4.8306,-4.8306,-4.8306,-4.8306,-4.8306,-4.8306,-4.8306,-4.8306,-4.8306,-4.8306,-4.8306,-4.8306,-4.8306,-4.8306,-4.8306,-4.8306,-4.8306,-4.8306,-4.8306,-4.8306,-4.8306,-4.7902,-4.6893,-4.6085,-4.5369,-4.4745,-4.4232,-4.3809,-4.3497,-4.3497,-4.3497,-4.3497,-4.3497,-4.3497,-4.3497,-4.3497,-4.3497,-4.3497,-4.3497,-4.3497,0.0,-3.0118,-3.0503,-3.2118,0.0,0.0,0.0,0.0,0.0,0.0,0.0,-3.3807,-3.3807,-3.3807,-3.3807,-3.3807,-3.3807,-3.3807,0.0,-3.4559,0.0,0.0,-3.8212,0.0,-3.8707,-3.9423,-4.023,-4.1056,-4.1864,-4.2653,-4.3442,-4.3497,-4.3497,-4.3497,-4.3497,-4.3497,-4.3497,-4.3497,-4.3497,-4.3497,-4.3497,-4.3497,-4.3497,-4.3497,-4.3497,0.0,-4.3513,-4.3513,-4.3479,-4.3513,-4.4009,-4.4782,-4.559,-4.6397,-4.7205,-4.805,-4.8326,-4.8326,-4.8364,-4.8402,-4.8402,-4.8364,-4.8326,-4.8344,-4.8306,-4.8306,-4.8306,-4.8306,-4.8306,-4.8306,-4.8306,-4.8306,-4.8306,-4.8306,-4.8306,-4.8306,-4.8306,-4.8306,-4.8306,-4.8306,-4.8306,-4.8306,-4.8306,-4.8306,-4.8306,-4.8306,-4.8306,-4.8306,-4.8306,-4.8306,-4.8306,-4.8306,-4.8306,-4.8306,-4.8306,-4.7572,-4.6471,-4.4984,-4.4837,-4.4415,-4.3608,-4.3589,-4.3552,-4.3497,-4.3497,-4.3497,-4.3497,-4.3497,-4.3497,-4.3497,-4.3497,-4.3497,-2.9148,0.0,-2.9677,-3.1274,-3.1678,-3.2045,0.0,0.0,0.0,0.0,0.0,0.0,0.0,0.0,-3.3807,-3.3807,-3.3807,-3.3807,-3.3807,0.0,0.0,-3.7367,-3.8212,-3.8707,-3.8707,-3.9423,-4.023,-4.1056,-4.1864,-4.2653,-4.3442,-4.3497,-4.3497,-4.3497,-4.3497,-4.3497,-4.3497,-4.3497,-4.3497,-4.3497,-4.3497,-4.3497,-4.3497,-4.3497,-4.3497,-4.3513,-4.3772,-4.3758,-4.3513,-4.3772,-4.4206,-4.4782,-4.559,-4.6397,-4.7242,-4.8361,-4.8744,-4.8813,-4.9108,-4.9202,-4.919,-4.8881,-4.8744,-4.8692,-4.8383,-4.8306,-4.8306,-4.8306,-4.8306,-4.8306,-4.8306,-4.8306,-4.8306,-4.8306,-4.8306,-4.8306,-4.8306,-4.8306,-4.8306,-4.8306,-4.8306,-4.8306,-4.8306,-4.8306,-4.8306,-4.8306,-4.8306,-4.8306,-4.8306,-4.8306,-4.8306,-4.8306,-4.8306,-4.8306,-4.8306,-4.7572,-4.6966,-4.6581,-4.5975,-4.5259,-4.4452,-4.4415,-4.4121,-4.3497,-4.3497,-4.3497,-4.3497,-4.3497,-4.3497,-4.3497,-4.3497,-4.3497,-2.8633,-2.8863,-2.9402,-3.0999,-3.1384,-3.1806,0.0,0.0,0.0,0.0,0.0,0.0,0.0,0.0,0.0,0.0,-3.3807,0.0,0.0,0.0,-3.6743,-3.79,-3.8432,-3.8854,0.0,-3.9974,-4.0781,-4.1589,-4.2396,-4.3039,-4.3461,-4.3497,-4.3497,-4.3497,-4.3497,-4.3497,-4.3497,-4.3497,-4.3497,-4.3497,-4.3497,-4.3497,-4.3532,-4.3679,-4.3726,-4.3758,-4.4106,-4.4165,-4.4004,-4.4194,-4.4427,-4.4774,-4.5946,-4.6671,-4.7243,-4.8645,-4.9171,-4.9202,-4.9416,-4.9504,-4.9445,-4.9234,-4.9171,-4.9139,-4.8915,-4.8847,-4.8779,-4.8383,-4.8306,-4.8306,-4.8306,-4.8306,-4.8306,-4.8306,-4.8306,-4.8306,-4.8306,-4.8306,-4.8306,-4.8306,-4.8306,-4.8306,-4.8306,-4.8306,-4.8306,-4.8306,-4.8306,-4.8306,-4.8306,-4.8306,-4.8306,-4.8306,-4.8306,-4.8306,-4.8306,-4.7921,-4.7498,-4.7094,-4.6709,-4.6104,-4.5278,-4.5259,-4.5057,-4.4599,-4.4599,-4.4599,-4.4599,-4.4599,-4.4599,-4.4599,-4.4599,-4.4397,-2.8237,-2.8699,-2.946,-3.0943,-3.1309,-3.173,0.0,0.0,0.0,0.0,0.0,0.0,0.0,0.0,0.0,0.0,0.0,0.0,-3.6064,-3.6303,-3.689,-3.8505,-3.8707,0.0,-3.9808,-4.0634,-4.1442,-4.2249,-4.3039,-4.3497,-4.3497,-4.3497,-4.3497,-4.3497,-4.3497,-4.3497,-4.3497,-4.3497,-4.3497,-4.3497,-4.3529,-4.3563,-4.3597,-4.3924,-4.4087,-4.4117,0.0,0.0,-4.4606,-4.4676,-4.465,-4.4731,-4.624,-4.69,-4.7183,-4.8805,-4.9495,-4.9589,-4.9664,-4.9692,-4.9692,-4.9589,-4.9589,-4.9561,-4.9504,-4.9504,-4.9356,-4.8676,-4.8421,-4.8364,-4.8306,-4.8306,-4.8306,-4.8306,-4.8306,-4.8306,-4.8306,-4.8306,-4.8306,-4.8306,-4.8306,-4.8306,-4.8402,-4.8383,-4.8421,-4.8495,-4.8421,-4.8383,-4.8383,-4.8383,-4.8364,-4.8306,-4.8364,-4.8364,-4.8306,-4.8306,-4.8012,-4.7352,-4.7297,-4.6929,-4.6122,-4.5975,-4.5902,-4.5902,-4.5902,-4.5902,-4.5902,-4.5902,-4.5902,-4.5902,-4.5902,-4.5535,-2.788,-2.8721,-2.9727,-3.0658,-3.0939,-3.1383,0.0,0.0,0.0,0.0,0.0,0.0,0.0,0.0,0.0,0.0,0.0,-3.4394,0.0,0.0,-3.689,-3.8505,0.0,-3.9019,-3.9808,-4.0634,-4.1442,-4.2249,-4.3039,-4.3497,-4.3497,-4.3497,-4.3497,-4.3497,-4.3497,-4.3497,-4.3497,-4.3497,-4.3497,-4.3479,-4.3772,-4.3924,-4.3943,-4.4337,-4.4501,-4.4527,0.0,-4.4872,-4.4606,-4.4896,-4.4849,-4.4674,-4.5609,-4.6382,-4.7135,-4.8428,-4.939,-5.0068,-5.0399,-5.0523,-5.0462,-5.0135,-5.0019,-4.9949,-4.9589,-4.9504,-4.9475,-4.9356,-4.9075,-4.8728,-4.8402,-4.8306,-4.8306,-4.8306,-4.8306,-4.8306,-4.8306,-4.8306,-4.8306,-4.8306,-4.8306,-4.8421,-4.8744,-4.8813,-4.893,-4.9265,-4.9029,-4.8813,-4.8813,-4.8813,-4.8692,-4.8344,-4.8586,-4.8657,-4.8344,-4.8306,-4.8251,-4.8122,-4.8122,-4.7755,-4.6966,-4.6269,-4.5902,-4.5902,-4.5902,-4.5902,-4.5902,-4.5902,-4.5902,-4.5902,-4.5902,-4.5828,-2.7487,-2.8072,-2.8854,-2.9849,-3.0955,-3.2119,0.0,0.0,0.0,0.0,0.0,0.0,0.0,0.0,-3.3807,-3.3807,0.0,-3.489,-3.6119,-3.667,-3.7367,0.0,0.0,-3.9203,-4.0432,-4.0891,-4.1625,-4.2855,-4.3277,-4.3497,-4.3497,-4.3497,-4.3497,-4.3497,-4.3497,-4.3497,-4.3497,-4.3497,-4.3497,-4.3479,-4.3646,-4.3818,-4.3998,-4.4419,-4.4682,-4.4896,0.0,-4.5283,-4.5161,-4.5322,-4.5263,-4.5216,-4.6072,-4.6892,-4.7774,-4.9286,-5.0076,-5.0442,-5.0643,-5.0702,-5.0663,-5.0483,-5.0421,-5.0399,-5.0206,-5.0159,-5.0092,-4.9898,-4.9532,-4.9171,-4.8996,-4.8779,-4.8621,-4.8621,-4.8458,-4.8306,-4.8306,-4.8306,-4.8306,-4.8306,-4.8495,-4.8692,-4.8863,-4.9075,-4.9295,-4.9475,-4.9356,-4.9234,-4.9234,-4.9234,-4.9075,-4.8657,-4.8779,-4.8763,-4.8326,-4.8306,-4.8306,-4.8306,-4.8306,-4.8141,-4.7774,-4.7388,-4.7205,-4.7205,-4.7205,-4.7205,-4.7205,-4.7205,-4.7205,-4.7205,-4.7205,-4.6966,-2.7083,-2.7672,-2.8425,-2.9316,0.0,0.0,-3.3294,0.0,0.0,0.0,0.0,0.0,0.0,-3.3807,0.0,-3.3807,-3.4486,-3.5312,-3.6174,-3.6982,-3.779,-3.8597,-3.8707,-3.9331,-4.0946,-4.1111,-4.1772,-4.3369,-4.3497,-4.3497,-4.3497,-4.3497,-4.3497,-4.3497,-4.3497,-4.3497,-4.3497,-4.3497,-4.3497,-4.3479,-4.3697,-4.3899,-4.4146,-4.4612,-4.4966,-4.5222,-4.5495,-4.5586,-4.5586,-4.5586,-4.5586,-4.5663,-4.6336,-4.7221,-4.8317,-5.0048,-5.0702,-5.0702,-5.0702,-5.0702,-5.0702,-5.0702,-5.0702,-5.0702,-5.0702,-5.0702,-5.0643,-5.0336,-5.0019,-4.9746,-4.9532,-4.9265,-4.9043,-4.9043,-4.8813,-4.8568,-4.8568,-4.8568,-4.8568,-4.8568,-4.8744,-4.8963,-4.9139,-4.9356,-4.9561,-4.9746,-4.9719,-4.9645,-4.9645,-4.9645,-4.9475,-4.9075,-4.9043,-4.8847,-4.8326,-4.8402,-4.8383,-4.8306,-4.8306,-4.8306,-4.8306,-4.8306,-4.8306,-4.8306,-4.8306,-4.8306,-4.8306,-4.8306,-4.8306,-4.8306,-4.8306,-4.8033,-2.6725,-2.8082,-2.9486,-2.9572,0.0,0.0,-3.234,0.0,0.0,0.0,0.0,0.0,0.0,-3.3807,-3.3807,-3.3807,-3.4486,-3.5312,-3.6174,0.0,-3.779,-3.8597,-3.8707,-3.9331,-4.0946,-4.1111,-4.1772,-4.3369,-4.3497,-4.3497,-4.3497,-4.3497,-4.3497,-4.3497,-4.3497,-4.3497,-4.3497,-4.3497,-4.3497,-4.3532,-4.4194,-4.4527,-4.458,-4.5243,-4.5531,-4.5568,-4.5586,-4.5586,-4.5586,-4.5586,-4.5586,-4.5605,-4.5663,-4.6682,-4.8317,-5.0048,-5.0702,-5.0702,-5.0702,-5.0702,-5.0702,-5.0702,-5.0702,-5.0702,-5.0702,-5.0702,-5.0683,-5.0663,-5.0643,-5.0442,-4.9692,-4.9475,-4.9445,-4.9445,-4.9445,-4.9416,-4.9416,-4.9416,-4.9416,-4.9416,-4.9139,-4.9139,-4.9879,-4.9719,-4.9746,-5.0504,-5.0313,-5.0068,-5.0068,-5.0068,-4.9898,-4.9504,-4.9445,-4.9139,-4.8364,-4.8621,-4.8692,-4.8326,-4.8306,-4.8306,-4.8306,-4.8306,-4.8306,-4.8306,-4.8306,-4.8306,-4.8306,-4.8306,-4.8306,-4.8306,-4.8306,-4.8495,-2.7266,-2.8286,-2.933,-2.9809,0.0,0.0,0.0,0.0,0.0,0.0,0.0,0.0,0.0,0.0,-3.3872,-3.412,-3.5096,-3.6101,-3.6927,-3.7734,-3.8358,-3.867,-3.9148,-3.9882,-4.1001,-4.1552,-4.2304,-4.3406,-4.3497,-4.3497,-4.3497,-4.3497,-4.3497,-4.3497,-4.3497,-4.3497,-4.3497,-4.3497,-4.3497,-4.3532,-4.3986,-4.4364,-4.4624,-4.5074,-4.54,-4.5586,-4.5586,-4.5586,-4.5586,-4.5586,-4.5586,-4.5643,-4.6201,-4.7105,-4.8259,-4.9452,-5.0221,-5.0702,-5.0702,-5.0702,-5.0702,-5.0702,-5.0702,-5.0702,-5.0702,-5.0702,-5.0702,-5.0702,-5.0702,-5.0624,-5.0336,-5.0068,-4.9853,-4.9853,-4.9692,-4.9504,-4.9504,-4.9504,-4.9504,-4.9504,-4.9589,-4.9728,-5.0043,-5.0183,-5.0336,-5.0663,-5.0565,-5.0483,-5.0483,-5.0483,-5.0313,-4.9924,-4.9664,-4.9386,-4.9062,-4.9171,-4.9202,-4.9062,-4.8813,-4.8657,-4.8657,-4.8657,-4.8779,-4.9029,-4.9062,-4.9062,-4.9062,-4.9062,-4.9062,-4.9062,-4.9062,-4.9126,-2.7637,-2.8569,-2.9465,0.0,0.0,0.0,0.0,0.0,0.0,0.0,0.0,0.0,0.0,0.0,0.0,0.0,-3.5542,-3.6578,-3.7397,-3.8193,-3.8707,-3.8707,-3.9405,-4.0212,-4.1038,-4.1827,-4.2635,-4.3424,-4.3497,-4.3497,-4.3497,-4.3497,-4.3497,-4.3497,-4.3497,-4.3497,-4.3497,-4.3497,-4.3529,-4.3679,-4.4016,-4.4318,-4.4606,-4.5074,-4.5381,-4.5586,-4.5586,-4.5586,-4.5586,-4.5586,-4.5586,-4.5682,-4.6567,-4.7394,-4.8221,-4.9086,-4.9952,-5.0702,-5.0702,-5.0702,-5.0702,-5.0702,-5.0702,-5.0702,-5.0702,-5.0702,-5.0702,-5.0702,-5.0702,-5.0702,-5.0702,-5.0483,-5.0272,-5.0272,-5.0068,-4.9898,-4.9898,-4.9898,-4.9898,-4.9898,-4.9999,-5.0135,-5.0272,-5.0421,-5.0544,-5.0683,-5.0702,-5.0702,-5.0702,-5.0702,-5.0544,-5.0159,-4.9853,-4.9636,-4.9504,-4.9636,-4.9636,-4.9504,-4.9356,-4.9234,-4.9075,-4.9075,-4.9234,-4.9475,-4.9504,-4.9504,-4.9504,-4.9504,-4.9504,-4.9504,-4.9504,-4.9561,-2.7806,-2.8958,0.0,0.0,0.0,0.0,0.0,0.0,0.0,0.0,0.0,0.0,0.0,0.0,0.0,-3.4806,-3.5752,-3.6578,-3.7386,-3.8193,-3.8707,-3.8707,-3.9423,-4.0212,-4.1038,-4.1827,-4.2635,-4.3424,-4.3497,-4.3497,-4.3497,-4.3497,-4.3497,-4.3497,-4.3497,-4.3497,-4.3497,-4.3497,-4.3679,-4.4016,-4.4419,-4.4606,-4.4631,-4.5302,-4.5586,-4.5586,-4.5586,-4.5586,-4.5586,-4.5586,-4.5586,-4.5682,-4.6547,-4.7375,-4.8202,-4.9067,-4.9933,-5.0683,-5.0702,-5.0702,-5.0702,-5.0702,-5.0702,-5.0702,-5.0702,-5.0702,-5.0702,-5.0702,-5.0702,-5.0702,-5.0702,-5.0702,-5.0702,-5.0702,-5.0702,-5.0702,-5.0702,-5.0702,-5.0702,-5.0702,-5.0377,-5.0249,-5.0624,-5.0358,-5.0249,-5.0624,-5.0702,-5.0702,-5.0702,-5.0702,-5.0544,-5.0159,-5.0111,-4.9949,-4.9551,-4.9872,-4.9949,-4.9551,-4.9898,-4.9924,-4.9504,-4.9522,-4.9504,-4.9504,-4.9504,-4.9504,-4.9504,-4.9504,-4.9504,-4.9504,-4.9504,-4.9719,-2.9144,-2.9753,0.0,0.0,0.0,0.0,0.0,0.0,0.0,0.0,0.0,0.0,-3.3302,0.0,0.0,-3.5314,-3.6413,-3.7422,-3.823,-3.856,-3.8707,-3.8707,-3.9918,-4.0855,-4.1093,-4.2341,-4.3222,-4.3461,-4.3497,-4.3497,-4.3497,-4.3497,-4.3497,-4.3497,-4.3497,-4.3497,-4.3497,-4.3497,-4.3548,-4.3646,-4.428,-4.4707,-4.4985,-4.54,-4.5586,-4.5586,-4.5586,-4.5586,-4.5586,-4.5586,-4.5586,-4.5624,-4.5874,-4.6509,-4.7355,-4.8182,-4.9048,-4.9875,-5.0491,-5.0702,-5.0702,-5.0702,-5.0702,-5.0702,-5.0702,-5.0702,-5.0702,-5.0702,-5.0702,-5.0702,-5.0702,-5.0702,-5.0702,-5.0702,-5.0702,-5.0702,-5.0702,-5.0702,-5.0702,-5.0702,-5.0604,-5.0565,-5.0683,-5.0604,-5.0565,-5.0683,-5.0702,-5.0702,-5.0702,-5.0702,-5.0663,-5.0544,-5.0504,-5.0483,-5.0358,-5.0442,-5.0483,-5.0358,-5.0462,-5.0336,-4.9949,-4.9924,-5.0068,-5.0336,-5.0336,-5.0336,-5.0336,-5.0336,-5.0336,-5.0336,-5.0336,-5.0399,-2.9854,0.0,0.0,0.0,0.0,0.0,0.0,0.0,0.0,0.0,0.0,-3.3011,-3.3778,-3.4368,0.0,-3.6188,-3.7009,-3.7771,-3.8597,-3.8707,-3.8707,-3.8707,-3.9845,-4.0763,-4.1075,-4.2268,-4.3149,-4.3461,-4.3497,-4.3497,-4.3497,-4.3497,-4.3497,-4.3497,-4.3497,-4.3497,-4.3497,-4.3497,-4.3582,-4.3693,-4.4308,-4.4776,-4.5096,-4.5438,-4.5586,-4.5586,-4.5586,-4.5586,-4.5586,-4.5586,-4.5586,-4.5586,-4.5586,-4.6124,-4.7009,-4.7798,-4.8644,-4.951,-5.0394,-5.0702,-5.0702,-5.0702,-5.0702,-5.0702,-5.0702,-5.0702,-5.0702,-5.0702,-5.0702,-5.0702,-5.0702,-5.0702,-5.0702,-5.0702,-5.0702,-5.0702,-5.0702,-5.0702,-5.0702,-5.0702,-5.0702,-5.0702,-5.0702,-5.0702,-5.0702,-5.0702,-5.0702,-5.0702,-5.0702,-5.0702,-5.0702,-5.0702,-5.0702,-5.0702,-5.0702,-5.0702,-5.0702,-5.0702,-5.0702,-5.0604,-5.0336,-5.0336,-5.0442,-5.0702,-5.0702,-5.0702,-5.0702,-5.0702,-5.0702,-5.0702,-5.0702,-5.0702,0.0,0.0,0.0,0.0,0.0,0.0,0.0,0.0,0.0,0.0,0.0,-3.3586,-3.4769,-3.4768,-3.5242,-3.7191,-3.7551,-3.7845,-3.8597,-3.8707,-3.8707,-3.8707,-3.9405,-4.0212,-4.1038,-4.1827,-4.2635,-4.3424,-4.3497,-4.3497,-4.3497,-4.3497,-4.3497,-4.3497,-4.3497,-4.3497,-4.3497,-4.3497,-4.3646,-4.3955,-4.4392,-4.4757,-4.5074,-4.5438,-4.5586,-4.5586,-4.5586,-4.5586,-4.5586,-4.5586,-4.5586,-4.5586,-4.5586,-4.6086,-4.6874,-4.7702,-4.8548,-4.9413,-5.0279,-5.0625,-5.0702,-5.0702,-5.0702,-5.0702,-5.0702,-5.0702,-5.0702,-5.0702,-5.0702,-5.0702,-5.0702,-5.0702,-5.0702,-5.0702,-5.0702,-5.0702,-5.0702,-5.0702,-5.0702,-5.0702,-5.0702,-5.0702,-5.0702,-5.0702,-5.0702,-5.0702,-5.0702,-5.0702,-5.0702,-5.0702,-5.0702,-5.0702,-5.0702,-5.0702,-5.0702,-5.0702,-5.0702,-5.0702,-5.0702,-5.0702,-5.0702,-5.0702,-5.0702,-5.0702,-5.0702,-5.0702,-5.0702,-5.0702,-5.0702,-5.0702,-5.0702,-5.0702,0.0,0.0,0.0,0.0,0.0,0.0,0.0,0.0,0.0,0.0,-3.3214,-3.3586,-3.4769,-3.5483,-3.6234,-3.7312,-3.8028,-3.8505,-3.8689,-3.8707,-3.8707,-3.8707,-3.9405,-4.0212,-4.1038,-4.1827,-4.2635,-4.3424,-4.3497,-4.3497,-4.3497,-4.3497,-4.3497,-4.3497,-4.3497,-4.3497,-4.3497,-4.3497,-4.3548,-4.3631,-4.428,-4.465,-4.4751,-4.5342,-4.5586,-4.5586,-4.5586,-4.5586,-4.5586,-4.5586,-4.5586,-4.5586,-4.5586,-4.5701,-4.597,-4.6836,-4.7682,-4.8509,-4.9375,-5.0125,-5.0702,-5.0702,-5.0702,-5.0702,-5.0702,-5.0702,-5.0702,-5.0702,-5.0702,-5.0702,-5.0702,-5.0702,-5.0702,-5.0702,-5.0702,-5.0702,-5.0702,-5.0702,-5.0702,-5.0702,-5.0702,-5.0702,-5.0702,-5.0702,-5.0702,-5.0702,-5.0702,-5.0702,-5.0702,-5.0702,-5.0702,-5.0702,-5.0702,-5.0702,-5.0702,-5.0702,-5.0702,-5.0702,-5.0702,-5.0702,-5.0702,-5.0702,-5.0702,-5.0702,-5.0702,-5.0702,-5.0702,-5.0702,-5.0702,-5.0702,-5.0702,-5.0702,0.0,0.0,0.0,0.0,0.0,0.0,0.0,0.0,0.0,-3.3465,-3.3494,-3.3915,-3.5375,-3.5991,-3.6688,-3.7881,-3.8432,-3.8707,-3.8707,-3.8707,-3.8707,-3.8707,-3.9074,-3.9643,-4.0451,-4.091,-4.1644,-4.2837,-4.2928,-4.3075,-4.3461,-4.3497,-4.3497,-4.3497,-4.3497,-4.3497,-4.3497,-4.3497,-4.3563,-4.3758,-4.4337,-4.4757,-4.5096,-4.5438,-4.5586,-4.5586,-4.5586,-4.5586,-4.5586,-4.5586,-4.5586,-4.5586,-4.5586,-4.5586,-4.5701,-4.6586,-4.7413,-4.8221,-4.9106,-4.9971,-5.0702,-5.0702,-5.0702,-5.0702,-5.0702,-5.0702,-5.0702,-5.0702,-5.0702,-5.0702,-5.0702,-5.0702,-5.0702,-5.0702,-5.0702,-5.0702,-5.0702,-5.0702,-5.0702,-5.0702,-5.0702,-5.0702,-5.0702,-5.0702,-5.0702,-5.0702,-5.0702,-5.0702,-5.0702,-5.0702,-5.0702,-5.0702,-5.0702,-5.0702,-5.0702,-5.0702,-5.0702,-5.0702,-5.0702,-5.0702,-5.0702,-5.0702,-5.0702,-5.0702,-5.0702,-5.0702,-5.0702,-5.0702,-5.0702,-5.0702,-5.0702,-5.0702,0.0,0.0,0.0,0.0,0.0,0.0,0.0,0.0,0.0,-3.3918,-3.4009,-3.4486,-3.6009,-3.6413,-3.6982,-3.8469,-3.8707,-3.8707,-3.8707,-3.8707,-3.8707,-3.8707,-3.8707,-3.9019,-3.9808,-3.99,-4.0506,-4.1992,-4.2084,-4.2433,-4.324,-4.3277,-4.3351,-4.3497,-4.3497,-4.3497,-4.3497,-4.3582,-4.3726,-4.4016,-4.4474,-4.5011,-4.5586,-4.5586,-4.5586,-4.5586,-4.5586,-4.5586,-4.5586,-4.5586,-4.5586,-4.5586,-4.5586,-4.5586,-4.5682,-4.6413,-4.7278,-4.8202,-4.8933,-4.9837,-5.0702,-5.0702,-5.0702,-5.0702,-5.0702,-5.0702,-5.0702,-5.0702,-5.0702,-5.0702,-5.0702,-5.0702,-5.0702,-5.0702,-5.0702,-5.0702,-5.0702,-5.0702,-5.0702,-5.0702,-5.0702,-5.0702,-5.0702,-5.0702,-5.0702,-5.0702,-5.0702,-5.0702,-5.0702,-5.0702,-5.0702,-5.0702,-5.0702,-5.0702,-5.0702,-5.0702,-5.0702,-5.0702,-5.0702,-5.0702,-5.0702,-5.0702,-5.0702,-5.0702,-5.0702,-5.0702,-5.0702,-5.0702,-5.0702,-5.0702,-5.0702,-5.0702,0.0,0.0,0.0,0.0,0.0,0.0,0.0,0.0,-3.3936,0.0,-3.4825,-3.5147,-3.6119,-3.6853,-3.7624,-3.856,-3.8707,-3.8707,-3.8707,-3.8707,-3.8707,-3.8707,-3.8707,-3.9019,-3.9808,-3.99,-4.0286,-4.1203,-4.1277,-4.1625,-4.2415,-4.2451,-4.2782,-4.3461,-4.3497,-4.3497,-4.3497,-4.3772,-4.3955,-4.4016,-4.4688,-4.5222,-4.5586,-4.5586,-4.5586,-4.5586,-4.5586,-4.5586,-4.5586,-4.5586,-4.5586,-4.5586,-4.5586,-4.5586,-4.5605,-4.572,-4.6759,-4.8125,-4.824,-4.9336,-5.0702,-5.0702,-5.0702,-5.0702,-5.0702,-5.0702,-5.0702,-5.0702,-5.0702,-5.0702,-5.0702,-5.0702,-5.0702,-5.0702,-5.0702,-5.0702,-5.0702,-5.0702,-5.0702,-5.0702,-5.0702,-5.0702,-5.0702,-5.0702,-5.0702,-5.0702,-5.0702,-5.0702,-5.0702,-5.0702,-5.0702,-5.0702,-5.0702,-5.0702,-5.0702,-5.0702,-5.0702,-5.0702,-5.0702,-5.0702,-5.0702,-5.0702,-5.0702,-5.0702,-5.0702,-5.0702,-5.0702,-5.0702,-5.0702,-5.0702,-5.0702,-5.0702,0.0,0.0,0.0,0.0,0.0,0.0,0.0,0.0,-3.4578,-3.4917,-3.5752,-3.6523,-3.689,-3.7239,-3.7753,-3.8579,-3.8707,-3.8707,-3.8707,-3.8707,-3.8707,-3.8707,-3.8707,-3.8836,-3.9184,-3.9239,-3.9551,-4.0377,-4.0432,-4.0983,-4.2231,-4.2304,-4.2671,-4.3461,-4.366,-4.3772,-4.3772,-4.4165,-4.4428,-4.4638,-4.514,-4.5476,-4.5586,-4.5586,-4.5586,-4.5586,-4.5586,-4.5586,-4.5586,-4.5586,-4.5586,-4.5586,-4.5586,-4.5586,-4.5586,-4.5586,-4.6374,-4.749,-4.7952,-4.8913,-5.0048,-5.0529,-5.0702,-5.0702,-5.0702,-5.0702,-5.0702,-5.0702,-5.0702,-5.0702,-5.0702,-5.0702,-5.0702,-5.0702,-5.0702,-5.0702,-5.0702,-5.0702,-5.0702,-5.0702,-5.0702,-5.0702,-5.0702,-5.0702,-5.0702,-5.0702,-5.0702,-5.0702,-5.0702,-5.0702,-5.0702,-5.0702,-5.0702,-5.0702,-5.0702,-5.0702,-5.0702,-5.0702,-5.0702,-5.0702,-5.0702,-5.0702,-5.0702,-5.0702,-5.0702,-5.0702,-5.0702,-5.0702,-5.0702,-5.0702,-5.0702,-5.0702,0.0,0.0,0.0,0.0,0.0,0.0,0.0,0.0,-3.5119,0.0,-3.6633,-3.7551,-3.7753,-3.779,-3.7991,-3.8597,-3.8707,-3.8707,-3.8707,-3.8762,-3.8803,-3.8803,-3.8873,-3.8931,-3.8931,-3.8931,-3.9172,-3.9782,-3.9819,-4.0448,-4.1841,-4.2149,-4.263,-4.3426,-4.3923,-4.4146,-4.4146,-4.4535,-4.4896,-4.5222,-4.5495,-4.5586,-4.5586,-4.5586,-4.5586,-4.5586,-4.5586,-4.5586,-4.5586,-4.5586,-4.5586,-4.5586,-4.5586,-4.5586,-4.5586,-4.5586,-4.6144,-4.7028,-4.7817,-4.8663,-4.9529,-5.0414,-5.0702,-5.0702,-5.0702,-5.0702,-5.0702,-5.0702,-5.0702,-5.0702,-5.0702,-5.0702,-5.0702,-5.0702,-5.0702,-5.0702,-5.0702,-5.0702,-5.0702,-5.0702,-5.0702,-5.0702,-5.0702,-5.0702,-5.0702,-5.0702,-5.0702,-5.0702,-5.0702,-5.0702,-5.0702,-5.0702,-5.0702,-5.0702,-5.0702,-5.0702,-5.0702,-5.0702,-5.0702,-5.0702,-5.0702,-5.0702,-5.0702,-5.0702,-5.0702,-5.0702,-5.0702,-5.0702,-5.0702,-5.0702,-5.0702,-5.0702,0.0,0.0,0.0,0.0,0.0,0.0,0.0,0.0,-3.5459,-3.7037,-3.7452,-3.7716,-3.8505,-3.8634,-3.8652,-3.8689,-3.8707,-3.8707,-3.8707,-3.8923,-3.9072,-3.9072,-3.9358,-3.9552,-3.9552,-3.9552,-3.9571,-3.9609,-3.9628,-3.9981,-4.0822,-4.1657,-4.2467,-4.3276,-4.4139,-4.4553,-4.4553,-4.4896,-4.5243,-4.5568,-4.5586,-4.5586,-4.5586,-4.5586,-4.5586,-4.5586,-4.5586,-4.5586,-4.5586,-4.5586,-4.5586,-4.5586,-4.5586,-4.5586,-4.5586,-4.5586,-4.6144,-4.7028,-4.7817,-4.8663,-4.9529,-5.0414,-5.0702,-5.0702,-5.0702,-5.0702,-5.0702,-5.0702,-5.0702,-5.0702,-5.0702,-5.0702,-5.0702,-5.0702,-5.0702,-5.0702,-5.0702,-5.0702,-5.0702,-5.0702,-5.0702,-5.0702,-5.0702,-5.0702,-5.0702,-5.0702,-5.0702,-5.0702,-5.0702,-5.0702,-5.0702,-5.0702,-5.0702,-5.0702,-5.0702,-5.0702,-5.0702,-5.0702,-5.0702,-5.0702,-5.0702,-5.0702,-5.0702,-5.0702,-5.0702,-5.0702,-5.0702,-5.0702,-5.0702,-5.0702,-5.0702,-5.0702,0.0,0.0,0.0,0.0,0.0,0.0,0.0,-3.6292,-3.7355,-3.7947,-3.849,-3.8939,-3.9219,-3.897,-3.8707,-3.8707,-3.8707,-3.8762,-3.8933,-3.9036,-3.916,-3.9408,-3.9529,-3.9599,-3.9599,-3.9599,-3.9599,-3.9599,-3.9599,-3.9958,-4.0758,-4.1631,-4.2486,-4.3271,-4.4345,-4.5011,-4.5243,-4.5362,-4.5495,-4.5586,-4.5586,-4.5586,-4.5586,-4.5586,-4.5586,-4.5586,-4.5586,-4.5586,-4.5586,-4.5586,-4.5586,-4.5586,-4.5586,-4.5586,-4.5586,-4.5586,-4.5797,-4.6259,-4.7625,-4.8298,-4.8798,-5.0221,-5.0702,-5.0702,-5.0702,-5.0702,-5.0702,-5.0702,-5.0702,-5.0702,-5.0702,-5.0702,-5.0702,-5.0702,-5.0702,-5.0702,-5.0702,-5.0702,-5.0702,-5.0702,-5.0702,-5.0702,-5.0702,-5.0702,-5.0702,-5.0702,-5.0702,-5.0702,-5.0702,-5.0702,-5.0702,-5.0702,-5.0702,-5.0702,-5.0702,-5.0702,-5.0702,-5.0702,-5.0702,-5.0702,-5.0702,-5.0702,-5.0702,-5.0702,-5.0702,-5.0702,-5.0702,-5.0702,-5.0702,-5.0702,-5.0702,-5.0702,0.0,0.0,0.0,0.0,0.0,0.0,-3.633,0.0,-3.849,-3.8754,-3.9222,-3.9599,-3.9599,-3.9249,-3.8998,-3.8998,-3.8998,-3.9045,-3.9257,-3.9364,-3.9529,-3.9754,-3.9861,-3.9905,-3.9905,-3.9905,-3.9905,-3.9905,-3.9905,0.0,-4.0661,-4.1537,-4.2506,-4.3608,-4.4701,-4.5362,-4.5586,-4.5586,-4.5586,-4.5586,-4.5586,-4.5586,-4.5586,-4.5586,-4.5586,-4.5586,-4.5586,-4.5586,-4.5586,-4.5586,-4.5586,-4.5586,-4.5586,-4.5586,-4.5586,-4.5586,-4.5586,-4.5836,-4.7528,-4.8105,-4.8394,-5.0125,-5.0702,-5.0702,-5.0702,-5.0702,-5.0702,-5.0702,-5.0702,-5.0702,-5.0702,-5.0702,-5.0702,-5.0702,-5.0702,-5.0702,-5.0702,-5.0702,-5.0702,-5.0702,-5.0702,-5.0702,-5.0702,-5.0702,-5.0702,-5.0702,-5.0702,-5.0702,-5.0702,-5.0702,-5.0702,-5.0702,-5.0702,-5.0702,-5.0702,-5.0702,-5.0702,-5.0702,-5.0702,-5.0702,-5.0702,-5.0702,-5.0702,-5.0702,-5.0702,-5.0702,-5.0702,-5.0702,-5.0702,-5.0702,-5.0702,-5.0702,0.0,0.0,0.0,0.0,0.0,0.0,-3.7973,0.0,-3.8682,-3.9452,-3.9622,-3.9622,-3.9622,-3.9622,-3.9622,-3.9622,-3.9622,-3.9599,-3.9622,-3.9901,-4.0101,-4.0101,-4.0339,-4.0489,-4.0489,-4.0489,-4.0489,-4.0489,-4.0489,-4.0489,-4.0489,-4.1354,-4.2585,-4.4239,-4.5143,-4.5586,-4.5586,-4.5586,-4.5586,-4.5586,-4.5586,-4.5586,-4.5586,-4.5586,-4.5586,-4.5586,-4.5586,-4.5586,-4.5586,-4.5586,-4.5586,-4.5586,-4.5586,-4.5586,-4.5586,-4.5586,-4.5586,-4.5836,-4.7528,-4.8105,-4.8394,-5.0125,-5.0702,-5.0702,-5.0702,-5.0702,-5.0702,-5.0702,-5.0702,-5.0702,-5.0702,-5.0702,-5.0702,-5.0702,-5.0702,-5.0702,-5.0702,-5.0702,-5.0702,-5.0702,-5.0702,-5.0702,-5.0702,-5.0702,-5.0702,-5.0702,-5.0702,-5.0702,-5.0702,-5.0702,-5.0702,-5.0702,-5.0702,-5.0702,-5.0702,-5.0702,-5.0702,-5.0702,-5.0702,-5.0702,-5.0702,-5.0702,-5.0702,-5.0702,-5.0702,-5.0702,-5.0702,-5.0702,-5.0702,-5.0702,-5.0702,-5.0702,-3.5158,0.0,0.0,0.0,0.0,0.0,0.0,0.0,-3.9978,-4.021,-4.0248,-4.0248,-4.0248,-4.0248,-4.0248,-4.0248,-3.9884,-3.9668,-3.9922,-4.0042,-4.0177,-4.0372,-4.0457,-4.0489,-4.0489,-4.0489,-4.0489,0.0,-4.0489,-4.0489,-4.0489,-4.1912,-4.322,-4.4259,-4.5143,-4.5586,-4.5586,-4.5586,-4.5586,-4.5586,-4.5586,-4.5586,-4.5586,-4.5586,-4.5586,-4.5605,-4.5699,-4.5699,-4.5586,-4.5586,-4.5586,-4.5586,-4.5586,-4.5586,-4.5586,-4.5586,-4.5586,-4.5836,-4.7528,-4.8105,-4.8394,-5.0125,-5.0702,-5.0702,-5.0702,-5.0702,-5.0702,-5.0702,-5.0702,-5.0702,-5.0702,-5.0702,-5.0702,-5.0702,-5.0702,-5.0702,-5.0702,-5.0702,-5.0702,-5.0702,-5.0702,-5.0702,-5.0702,-5.0702,-5.0702,-5.0702,-5.0702,-5.0702,-5.0702,-5.0702,-5.0702,-5.0702,-5.0702,-5.0702,-5.0702,-5.0702,-5.0702,-5.0702,-5.0779,-5.0856,-5.0856,-5.0856,-5.0895,-5.0991,-5.0895,-5.0895,-5.0991,-5.0779,-5.0702,-5.0702,-5.0702,-5.0702,0.0,0.0,0.0,0.0,0.0,0.0,-3.9463,-4.006,-4.0489,-4.0489,-4.0489,-4.0489,-4.0489,-4.0562,-4.0581,-4.0581,-4.0289,-4.012,-4.0251,-4.0269,-4.0321,-4.0473,-4.0489,-4.0489,-4.0489,-4.0489,-4.0489,-4.0489,-4.0489,-4.0489,-4.0489,-4.2143,-4.3316,-4.3778,-4.497,-4.5586,-4.5586,-4.5643,-4.568,-4.568,-4.5719,-4.5738,-4.5738,-4.5738,-4.5738,-4.5738,-4.5815,-4.58,-4.5722,-4.5728,-4.568,-4.5586,-4.5586,-4.5586,-4.5586,-4.5586,-4.5586,-4.5836,-4.7528,-4.8105,-4.8394,-5.0125,-5.0702,-5.0702,-5.0702,-5.0702,-5.0702,-5.0702,-5.0702,-5.0702,-5.0702,-5.0741,-5.0779,-5.0779,-5.0837,-5.0875,-5.0875,-5.0875,-5.0837,-5.0721,-5.0702,-5.0702,-5.0702,-5.0741,-5.0779,-5.0779,-5.0837,-5.0875,-5.0875,-5.0875,-5.0875,-5.0875,-5.0875,-5.0875,-5.0875,-5.0875,-5.0875,-5.0875,-5.0952,-5.0988,-5.0964,-5.0979,-5.1015,-5.1087,-5.1018,-5.1018,-5.1095,-5.095,-5.0875,-5.0875,-5.0875,-5.0875,0.0,0.0,0.0,0.0,0.0,0.0,-4.0303,-4.0543,-4.0543,-4.0543,-4.0543,-4.0543,-4.0543,-4.0639,-4.0712,-4.0718,-4.0699,-4.0665,-4.0543,-4.0508,-4.0489,-4.0489,-4.0489,-4.0508,-4.0508,-4.0508,-4.0543,-4.0543,-4.0543,-4.0543,-4.0543,-4.2197,-4.3124,-4.3124,-4.4759,-4.5624,-4.5624,-4.5757,-4.5813,-4.5806,-4.5863,-4.5902,-4.5902,-4.5902,-4.5902,-4.5902,-4.5909,-4.5916,-4.59,-4.5916,-4.5815,-4.5624,-4.5624,-4.5624,-4.5624,-4.5624,-4.5624,-4.5855,-4.7432,-4.8048,-4.8413,-5.0029,-5.0625,-5.0721,-5.0702,-5.0702,-5.0702,-5.0702,-5.0702,-5.0702,-5.0721,-5.0818,-5.0895,-5.0913,-5.1009,-5.1105,-5.1105,-5.1105,-5.1028,-5.0797,-5.0741,-5.0741,-5.0741,-5.0856,-5.0933,-5.0931,-5.1009,-5.1105,-5.1105,-5.1105,-5.1105,-5.1105,-5.1105,-5.1105,-5.1105,-5.1105,-5.1105,-5.1105,-5.1125,-5.1114,-5.1109,-5.1103,-5.112,-5.1145,-5.1127,-5.1133,-5.1133,-5.1099,-5.1105,-5.1105,-5.1105,-5.1105,0.0,0.0,0.0,0.0,0.0,0.0,-4.0604,-4.0696,-4.0735,-4.0735,-4.0735,-4.0735,-4.0735,-4.0754,-4.0781,-4.0781,-4.0771,-4.0759,-4.0665,-4.0581,-4.0489,-4.0489,-4.0489,-4.0543,-4.0658,-4.0658,-4.0677,-4.0735,-4.0735,-4.0735,-4.0735,-4.2383,-4.3327,-4.3352,-4.4968,-4.5834,-4.5834,-4.5873,-4.5881,-4.588,-4.588,-4.5899,-4.5899,-4.5899,-4.5899,-4.5908,-4.6001,-4.5993,-4.59,-4.6032,-4.5969,-4.5834,-4.5834,-4.5834,-4.5834,-4.5834,-4.5834,-4.5969,-4.691,-4.7739,-4.8548,-4.9394,-5.0202,-5.0856,-5.0721,-5.0702,-5.0702,-5.0702,-5.0702,-5.0721,-5.0837,-5.0895,-5.093,-5.1043,-5.1086,-5.1105,-5.1105,-5.1105,-5.1086,-5.1027,-5.1025,-5.1029,-5.1029,-5.1049,-5.1063,-5.1069,-5.1086,-5.1105,-5.1105,-5.1105,-5.1105,-5.1105,-5.1105,-5.1105,-5.1105,-5.1105,-5.1105,-5.1105,-5.1167,-5.1183,-5.1178,-5.1172,-5.1238,-5.1337,-5.1354,-5.1347,-5.1347,-5.1178,-5.1105,-5.1105,-5.1105,-5.1105,0.0,0.0,0.0,-4.0562,0.0,0.0,0.0,-4.0781,-4.08,-4.08,-4.08,-4.08,-4.08,-4.0847,-4.0892,-4.0892,-4.0898,-4.0898,-4.0853,-4.0735,-4.0658,-4.0658,-4.0658,-4.0677,-4.0735,-4.0752,-4.0761,-4.08,-4.08,-4.0994,-4.1432,-4.2695,-4.3606,-4.402,-4.5247,-4.5893,-4.5893,-4.597,-4.6008,-4.6003,-4.6072,-4.6108,-4.6108,-4.6108,-4.6108,-4.6104,-4.6162,-4.6152,-4.6093,-4.6171,-4.6162,-4.61,-4.5951,-4.5893,-4.5893,-4.5893,-4.5893,-4.6022,-4.6829,-4.7708,-4.8619,-4.9359,-5.0226,-5.0991,-5.0933,-5.0914,-5.0914,-5.0914,-5.0914,-5.0914,-5.0991,-5.1029,-5.1067,-5.1134,-5.1201,-5.126,-5.126,-5.125,-5.1249,-5.1249,-5.1244,-5.1218,-5.1121,-5.1136,-5.1143,-5.1149,-5.1219,-5.126,-5.126,-5.126,-5.126,-5.126,-5.126,-5.126,-5.126,-5.126,-5.126,-5.126,-5.169,-5.196,-5.196,-5.2378,-5.2638,-5.2709,-5.2708,-5.2469,-5.204,-5.1943,-5.1669,-5.126,-5.126,-5.126,0.0,0.0,0.0,0.0,0.0,-4.0882,0.0,0.0,0.0,-4.1325,-4.1364,-4.1364,-4.1364,0.0,0.0,-4.1301,0.0,0.0,0.0,-4.1087,0.0,-4.0819,-4.08,-4.081,-4.0847,-4.0859,-4.087,-4.087,-4.1013,-4.1422,-4.2124,-4.3143,-4.4027,-4.4748,-4.556,-4.5981,-4.5981,-4.6077,-4.6129,-4.6143,-4.6245,-4.6308,-4.6308,-4.6308,-4.6308,-4.6308,-4.6308,-4.6293,-4.6307,-4.63,-4.629,-4.6274,-4.6059,-4.5981,-4.5981,-4.5981,-4.5981,-4.6079,-4.6741,-4.7686,-4.8667,-4.934,-5.0241,-5.1101,-5.1101,-5.1101,-5.1101,-5.1101,-5.1101,-5.1103,-5.1106,-5.1164,-5.1221,-5.1241,-5.1328,-5.1406,-5.1406,-5.141,-5.1398,-5.1398,-5.1398,-5.1359,-5.1203,-5.1198,-5.1235,-5.1235,-5.133,-5.1406,-5.1406,-5.1406,-5.1406,-5.1406,-5.1406,-5.1406,-5.1406,-5.1543,-5.1641,-5.1641,-5.2461,-5.2949,-5.2949,-5.3633,-5.4004,-5.4004,-5.4004,-5.3652,-5.2949,-5.2949,-5.2422,-5.1406,-5.1406,-5.1484,0.0,0.0,0.0,0.0,-4.0892,0.0,0.0,0.0,-4.244,-4.3201,0.0,-4.3377,-4.3377,0.0,0.0,0.0,0.0,0.0,-4.1398,-4.1772,-4.1857,-4.0915,-4.0799,-4.0848,-4.0973,-4.1078,-4.115,-4.115,-4.1815,-4.2264,-4.2362,-4.3924,-4.4861,-4.4959,-4.5799,-4.6247,-4.6247,-4.6264,-4.628,-4.628,-4.6288,-4.6308,-4.6308,-4.6308,-4.6308,-4.6308,-4.6308,-4.6308,-4.6307,-4.6308,-4.6308,-4.6307,-4.6267,-4.6247,-4.6247,-4.6247,-4.6247,-4.6247,-4.6228,-4.7372,-4.8827,-4.869,-4.9761,-5.11,-5.11,-5.11,-5.11,-5.11,-5.11,-5.112,-5.118,-5.1183,-5.1225,-5.1357,-5.1385,-5.1406,-5.1406,-5.1406,-5.1403,-5.1403,-5.1403,-5.1384,-5.1364,-5.1361,-5.1377,-5.1377,-5.1385,-5.1406,-5.1406,-5.1406,-5.1406,-5.1406,-5.1406,-5.1406,-5.1406,-5.2109,-5.2558,-5.2558,-5.3379,-5.3848,-5.3848,-5.3945,-5.4004,-5.4004,-5.4004,-5.3945,-5.3848,-5.3848,-5.3008,-5.1406,-5.1406,-5.1816,0.0,0.0,0.0,0.0,0.0,0.0,-4.302,0.0,-4.3262,0.0,0.0,0.0,0.0,0.0,0.0,0.0,-4.3456,0.0,0.0,0.0,-4.263,-4.1202,0.0,0.0,-4.1753,-4.1858,-4.2109,-4.2617,-4.248,-4.2832,-4.3848,-4.4609,-4.5234,-4.5742,-4.6113,-4.6308,-4.6308,-4.6308,-4.6308,-4.6308,-4.6308,-4.6308,-4.6308,-4.6308,-4.6308,-4.6308,-4.6308,-4.6308,-4.6308,-4.6308,-4.6308,-4.6308,-4.6308,-4.6308,-4.6308,-4.6308,-4.6308,-4.6367,-4.6816,-4.7826,-4.9032,-4.9895,-5.0672,-5.1273,-5.1273,-5.1273,-5.1273,-5.1273,-5.1273,-5.1284,-5.1316,-5.1331,-5.133,-5.1384,-5.1406,-5.1406,-5.1406,-5.1406,-5.1406,-5.1406,-5.1406,-5.1406,-5.1406,-5.1406,-5.1406,-5.1406,-5.1406,-5.1406,-5.1406,-5.1406,-5.1406,-5.1406,-5.1406,-5.1601,-5.2109,-5.248,-5.293,-5.3418,-5.4277,-5.498,-5.5488,-5.5508,-5.5508,-5.5508,-5.5508,-5.5254,-5.4746,-5.4746,-5.4121,-5.291,-5.291,-5.3105,-4.3603,0.0,0.0,0.0,0.0,0.0,0.0,0.0,0.0,0.0,0.0,0.0,0.0,0.0,0.0,0.0,0.0,-4.4159,0.0,-4.386,0.0,0.0,0.0,0.0,0.0,-4.207,-4.2422,-4.3281,-4.2988,-4.3418,-4.4922,-4.5234,-4.5644,-4.6289,-4.6308,-4.6308,-4.6308,-4.6308,-4.6308,-4.6308,-4.6308,-4.6308,-4.6308,-4.6308,-4.6308,-4.6308,-4.6308,-4.6308,-4.6308,-4.6308,-4.6308,-4.6308,-4.6308,-4.6308,-4.6308,-4.6308,-4.6308,-4.6426,-4.7305,-4.832,-4.9492,-5.0937,-5.1406,-5.1406,-5.1406,-5.1406,-5.1406,-5.1406,-5.1406,-5.1406,-5.1406,-5.1406,-5.1406,-5.1406,-5.1406,-5.1406,-5.1406,-5.1406,-5.1406,-5.1406,-5.1406,-5.1406,-5.1406,-5.1406,-5.1406,-5.1406,-5.1406,-5.1406,-5.1406,-5.1406,-5.1406,-5.1406,-5.1406,-5.1758,-5.2637,-5.293,-5.3535,-5.4648,-5.5312,-5.5937,-5.6562,-5.6601,-5.6601,-5.6601,-5.6601,-5.6289,-5.5664,-5.5664,-5.5332,-5.4707,-5.4219,-5.4121,0.0,0.0,0.0,-4.3672,0.0,0.0,0.0,0.0,-4.5195,0.0,0.0,0.0,0.0,0.0,0.0,0.0,0.0,0.0,0.0,0.0,0.0,0.0,0.0,0.0,0.0,-4.123,-4.1562,-4.2383,-4.3203,-4.4043,-4.4941,-4.5801,-4.6269,-4.6308,-4.6308,-4.6308,-4.6308,-4.6308,-4.6308,-4.6308,-4.6308,-4.6308,-4.6308,-4.6308,-4.6308,-4.6308,-4.6308,-4.6308,-4.6308,-4.6308,-4.6308,-4.6308,-4.6308,-4.6308,-4.6308,-4.6308,-4.6308,-4.6426,-4.7305,-4.8711,-5.0293,-5.1133,-5.1406,-5.1406,-5.1406,-5.1406,-5.1406,-5.1406,-5.1406,-5.1406,-5.1406,-5.1406,-5.1406,-5.1406,-5.1406,-5.1406,-5.1406,-5.1406,-5.1406,-5.1406,-5.1406,-5.1406,-5.1406,-5.1406,-5.1406,-5.1406,-5.1406,-5.1406,-5.1406,-5.1406,-5.1406,-5.1406,-5.1406,-5.1758,-5.2637,-5.3476,-5.4687,-5.6406,-5.6543,-5.6562,-5.6601,-5.6601,-5.6601,-5.6601,-5.6601,-5.6582,-5.6562,-5.6562,-5.6543,-5.6484,-5.4785,-5.4453,0.0,0.0,-4.5138,-4.5252,0.0,0.0,0.0,0.0,0.0,0.0,0.0,0.0,0.0,0.0,0.0,0.0,0.0,0.0,0.0,0.0,-4.4504,0.0,0.0,0.0,0.0,0.0,-4.3203,-4.4062,-4.4394,-4.4941,-4.5801,-4.6133,-4.6308,-4.6308,-4.6308,-4.6308,-4.6308,-4.6308,-4.6308,-4.6308,-4.6308,-4.6253,-4.6177,-4.6261,-4.625,-4.6172,-4.6269,-4.6308,-4.6308,-4.6308,-4.6308,-4.6308,-4.6308,-4.6308,-4.6308,-4.6308,-4.6308,-4.6504,-4.7969,-4.957,-5.1035,-5.1308,-5.1406,-5.1406,-5.1406,-5.1406,-5.1406,-5.1406,-5.1406,-5.1406,-5.1406,-5.1406,-5.1406,-5.1406,-5.1406,-5.1406,-5.1406,-5.1406,-5.1406,-5.1406,-5.1406,-5.1406,-5.1406,-5.1406,-5.1406,-5.1406,-5.1406,-5.1406,-5.1406,-5.1406,-5.1406,-5.1406,-5.1406,-5.1992,-5.3437,-5.4883,-5.5976,-5.6562,-5.6601,-5.6601,-5.6601,-5.6601,-5.6601,-5.6601,-5.6601,-5.6601,-5.6601,-5.6601,-5.6601,-5.6582,-5.5996,-5.5879,-4.5853,-4.5853,0.0,-4.5994,-4.6026,0.0,-4.6131,0.0,-4.6032,0.0,0.0,0.0,0.0,0.0,0.0,0.0,0.0,0.0,0.0,-4.5393,-4.5089,-4.5098,0.0,0.0,0.0,-4.3624,-4.3972,-4.4922,-4.4961,-4.5332,0.0,-4.6308,-4.6308,-4.6308,-4.6253,-4.6222,-4.6222,-4.6171,-4.617,-4.617,-4.617,-4.6118,-4.6032,-4.618,-4.6175,-4.6113,-4.623,-4.6308,-4.6308,-4.6308,-4.6308,-4.6308,-4.6308,-4.6308,-4.6308,-4.6308,-4.6699,-4.7383,-4.8516,-5.0,-5.1406,-5.1406,-5.1406,-5.1406,-5.1406,-5.1406,-5.1523,-5.2148,-5.1875,-5.1543,-5.2168,-5.1855,-5.1406,-5.1406,-5.1406,-5.1406,-5.1406,-5.1406,-5.1406,-5.1406,-5.1406,-5.1406,-5.1406,-5.1406,-5.1406,-5.1406,-5.1406,-5.1406,-5.1406,-5.1406,-5.1406,-5.1406,-5.168,-5.2578,-5.4316,-5.5781,-5.6601,-5.6601,-5.6601,-5.6601,-5.6601,-5.6601,-5.6758,-5.7051,-5.6758,-5.6758,-5.7051,-5.6758,-5.6601,-5.6601,-5.6601,-5.6601]}]]